[[{"header":{"parameterUnit":"m.s-1","parameterCategory":1,"la1":30.6,"la2":29.2853,"lo1":-89.7004,"lo2":-87.6739,"dx":0.0162,"dy":0.0183,"nx":112,"ny":82,"refTime":"2022-12-15T06:00:00:Z","depth":0,"parameterNumber":2,"parameterNumberName":"U-component_of_WINDS"},"data":[0.0,0.0,0.0,0.0,0.0,0.0,0.0,0.0,0.0,0.0,0.0,0.0,0.0,0.0,0.0,0.0,0.0,0.0,0.0,0.0,0.0,0.0,0.0,0.0,0.0,0.0,0.0,0.0,0.0,0.0,0.0,0.0,0.0,0.0,0.0,0.0,0.0,0.0,0.0,0.0,0.0,0.0,0.0,0.0,0.0,0.0,0.0,0.0,0.0,0.0,0.0,0.0,0.0,0.0,0.0,0.0,0.0,0.0,0.0,0.0,0.0,0.0,0.0,0.0,0.0,0.0,0.0,0.0,0.0,0.0,0.0,0.0,0.0,0.0,0.0,0.0,0.0,0.0,0.0,0.0,0.0,0.0,0.0,0.0,0.0,0.0,0.0,0.0,0.0,0.0,2.4075,2.6211,2.9694,3.1627,3.1044,3.0696,2.8634,2.4135,0.0,0.0,0.0,0.0,0.0,0.0,0.0,0.0,0.0,0.0,0.0,0.0,0.0,0.0,0.0,0.0,0.0,0.0,0.0,0.0,0.0,0.0,0.0,0.0,0.0,0.0,0.0,0.0,0.0,0.0,0.0,0.0,0.0,0.0,0.0,0.0,0.0,0.0,0.0,0.0,0.0,0.0,0.0,0.0,0.0,0.0,0.0,0.0,0.0,0.0,0.0,0.0,0.0,0.0,0.0,0.0,0.0,0.0,0.0,0.0,0.0,0.0,0.0,0.0,0.0,0.0,0.0,0.0,0.0,0.0,0.0,0.0,0.0,0.0,0.0,0.0,0.0,0.0,0.0,0.0,0.0,0.0,0.0,0.0,0.0,0.0,0.0,0.0,0.0,0.0,0.0,0.0,0.0,0.0,0.0,0.0,0.0,0.0,0.0,0.0,0.0,0.0,0.0,0.0,2.4334,2.9248,3.1558,3.2812,3.3036,3.3002,3.0815,2.5775,0.0,0.0,0.0,0.0,0.0,0.0,0.0,0.0,0.0,0.0,0.0,0.0,0.0,0.0,0.0,0.0,0.0,0.0,0.0,0.0,0.0,0.0,0.0,0.0,0.0,0.0,0.0,0.0,0.0,0.0,0.0,0.0,0.0,0.0,0.0,0.0,0.0,0.0,0.0,0.0,0.0,0.0,0.0,0.0,0.0,0.0,0.0,0.0,0.0,0.0,0.0,0.0,0.0,0.0,0.0,0.0,0.0,0.0,0.0,0.0,0.0,0.0,0.0,0.0,0.0,0.0,0.0,0.0,0.0,0.0,0.0,0.0,0.0,0.0,0.0,0.0,0.0,0.0,0.0,0.0,0.0,0.0,0.0,0.0,0.0,0.0,0.0,0.0,0.0,0.0,0.0,0.0,0.0,0.0,0.0,0.0,0.0,0.0,0.0,0.0,0.0,0.0,0.0,2.3312,2.6117,3.0634,3.2154,3.3156,3.3723,3.4163,3.1959,2.6167,2.4017,0.0,0.0,0.0,0.0,0.0,0.0,0.0,0.0,0.0,0.0,0.0,0.0,0.0,0.0,0.0,0.0,0.0,0.0,0.0,0.0,0.0,0.0,0.0,0.0,0.0,0.0,0.0,0.0,0.0,0.0,0.0,0.0,0.0,0.0,0.0,0.0,0.0,0.0,0.0,0.0,0.0,0.0,0.0,0.0,0.0,0.0,0.0,0.0,0.0,0.0,0.0,0.0,0.0,0.0,0.0,0.0,0.0,0.0,0.0,0.0,0.0,0.0,0.0,0.0,0.0,0.0,0.0,0.0,0.0,0.0,0.0,0.0,0.0,0.0,0.0,0.0,0.0,0.0,0.0,0.0,0.0,0.0,0.0,0.0,0.0,0.0,0.0,0.0,0.0,0.0,0.0,0.0,0.0,0.0,0.0,0.0,0.0,0.0,0.0,0.0,0.0,0.0,2.6866,2.8622,3.157,3.2808,3.3667,3.4249,3.5046,3.2795,2.6478,2.5229,0.0,0.0,0.0,0.0,0.0,0.0,0.0,0.0,0.0,0.0,0.0,0.0,0.0,0.0,0.0,0.0,0.0,0.0,0.0,0.0,0.0,0.0,0.0,0.0,0.0,0.0,0.0,0.0,0.0,0.0,0.0,0.0,0.0,0.0,0.0,0.0,0.0,0.0,0.0,0.0,0.0,0.0,0.0,0.0,0.0,0.0,0.0,0.0,0.0,0.0,0.0,0.0,0.0,0.0,0.0,0.0,0.0,0.0,0.0,0.0,0.0,0.0,0.0,0.0,0.0,0.0,0.0,0.0,0.0,0.0,0.0,0.0,0.0,0.0,0.0,0.0,0.0,0.0,0.0,0.0,0.0,0.0,0.0,0.0,0.0,0.0,0.0,0.0,0.0,0.0,0.0,0.0,0.0,0.0,0.0,0.0,0.0,0.0,0.0,0.0,0.0,0.0,2.8721,3.1603,3.2497,3.4066,3.5048,3.5117,3.5857,3.3616,2.7299,2.5515,0.0,0.0,0.0,0.0,0.0,0.0,0.0,0.0,0.0,0.0,0.0,0.0,0.0,0.0,0.0,0.0,0.0,0.0,0.0,0.0,0.0,0.0,0.0,0.0,0.0,0.0,0.0,0.0,0.0,0.0,0.0,0.0,0.0,0.0,0.0,0.0,0.0,0.0,0.0,0.0,0.0,0.0,0.0,0.0,0.0,0.0,0.0,0.0,0.0,0.0,0.0,0.0,0.0,0.0,0.0,0.0,0.0,0.0,0.0,0.0,0.0,0.0,0.0,0.0,0.0,0.0,0.0,0.0,0.0,0.0,0.0,0.0,0.0,0.0,0.0,0.0,0.0,0.0,0.0,0.0,0.0,0.0,0.0,0.0,0.0,0.0,0.0,0.0,0.0,0.0,0.0,0.0,0.0,0.0,0.0,0.0,0.0,0.0,0.0,0.0,0.0,0.0,2.8423,3.1272,3.3789,3.4746,3.5359,3.5766,3.6632,3.4222,2.7406,0.0,0.0,0.0,0.0,0.0,0.0,0.0,0.0,0.0,0.0,0.0,0.0,0.0,0.0,0.0,0.0,0.0,0.0,0.0,0.0,0.0,0.0,0.0,0.0,0.0,0.0,0.0,0.0,0.0,0.0,0.0,0.0,0.0,0.0,0.0,0.0,0.0,0.0,0.0,0.0,0.0,0.0,0.0,0.0,0.0,0.0,0.0,0.0,0.0,0.0,0.0,0.0,0.0,0.0,0.0,0.0,0.0,0.0,0.0,0.0,0.0,0.0,0.0,0.0,0.0,0.0,0.0,0.0,0.0,0.0,0.0,0.0,0.0,0.0,0.0,0.0,0.0,0.0,0.0,0.0,0.0,0.0,0.0,0.0,0.0,0.0,0.0,0.0,0.0,0.0,0.0,0.0,0.0,0.0,0.0,0.0,0.0,0.0,0.0,0.0,0.0,0.0,2.574,2.892,3.1802,3.4286,3.482,3.5229,3.5835,3.6587,3.4264,2.7799,0.0,0.0,0.0,0.0,0.0,0.0,0.0,0.0,0.0,0.0,0.0,0.0,0.0,0.0,0.0,0.0,0.0,0.0,0.0,0.0,0.0,0.0,0.0,0.0,0.0,0.0,0.0,0.0,0.0,0.0,0.0,0.0,0.0,0.0,0.0,0.0,0.0,0.0,0.0,0.0,0.0,0.0,0.0,0.0,0.0,0.0,0.0,0.0,0.0,0.0,0.0,0.0,0.0,0.0,0.0,0.0,0.0,0.0,0.0,0.0,0.0,0.0,0.0,0.0,0.0,0.0,0.0,0.0,0.0,0.0,0.0,0.0,0.0,0.0,0.0,0.0,0.0,0.0,0.0,0.0,0.0,0.0,0.0,0.0,0.0,0.0,0.0,0.0,0.0,0.0,0.0,0.0,0.0,0.0,0.0,0.0,0.0,0.0,0.0,0.0,0.0,0.0,2.5938,3.0675,3.3789,3.3789,3.4242,3.4687,3.5145,3.5549,3.3635,0.0,0.0,0.0,0.0,0.0,0.0,0.0,0.0,0.0,0.0,0.0,0.0,0.0,0.0,0.0,0.0,0.0,0.0,0.0,0.0,0.0,0.0,0.0,0.0,0.0,0.0,0.0,0.0,0.0,0.0,0.0,0.0,0.0,0.0,0.0,0.0,0.0,0.0,0.0,0.0,0.0,0.0,0.0,0.0,0.0,0.0,0.0,0.0,0.0,0.0,0.0,0.0,0.0,0.0,0.0,0.0,0.0,0.0,0.0,0.0,0.0,0.0,0.0,0.0,0.0,0.0,0.0,0.0,0.0,0.0,0.0,0.0,0.0,0.0,0.0,0.0,0.0,0.0,0.0,0.0,0.0,0.0,0.0,0.0,0.0,0.0,0.0,0.0,0.0,0.0,0.0,0.0,0.0,0.0,0.0,0.0,0.0,0.0,0.0,0.0,0.0,0.0,0.0,2.6005,3.1106,3.4386,3.3856,3.4242,3.4687,3.5145,3.5549,3.3388,2.77,0.0,0.0,0.0,0.0,0.0,0.0,0.0,0.0,0.0,0.0,0.0,0.0,0.0,0.0,0.0,0.0,0.0,0.0,0.0,0.0,0.0,0.0,0.0,0.0,0.0,0.0,0.0,0.0,0.0,0.0,0.0,0.0,0.0,0.0,0.0,0.0,0.0,0.0,0.0,0.0,0.0,0.0,0.0,0.0,0.0,0.0,0.0,0.0,0.0,0.0,0.0,0.0,0.0,0.0,0.0,0.0,0.0,0.0,0.0,0.0,0.0,0.0,0.0,0.0,0.0,0.0,0.0,0.0,0.0,0.0,0.0,0.0,0.0,0.0,0.0,0.0,0.0,0.0,0.0,0.0,0.0,0.0,0.0,0.0,0.0,0.0,0.0,0.0,0.0,0.0,0.0,0.0,0.0,0.0,0.0,0.0,0.0,0.0,0.0,0.0,0.0,0.0,2.6402,3.147,3.4618,3.3856,3.4063,3.437,3.4691,3.494,3.3318,2.9126,0.0,0.0,0.0,0.0,0.0,0.0,0.0,0.0,0.0,0.0,0.0,0.0,0.0,0.0,0.0,0.0,0.0,0.0,0.0,0.0,0.0,0.0,0.0,0.0,0.0,0.0,0.0,0.0,0.0,0.0,0.0,0.0,0.0,0.0,0.0,0.0,0.0,0.0,0.0,0.0,0.0,0.0,0.0,0.0,0.0,0.0,0.0,0.0,0.0,0.0,0.0,0.0,0.0,0.0,0.0,0.0,0.0,0.0,0.0,0.0,0.0,0.0,0.0,0.0,0.0,0.0,0.0,0.0,0.0,0.0,0.0,0.0,0.0,0.0,0.0,0.0,0.0,0.0,0.0,0.0,0.0,0.0,0.0,0.0,0.0,0.0,0.0,0.0,0.0,0.0,0.0,0.0,0.0,0.0,0.0,0.0,0.0,0.0,0.0,0.0,0.0,0.0,2.7035,3.1735,3.4618,3.3856,3.3789,3.3896,3.41,3.4111,3.3413,3.18,0.0,0.0,0.0,0.0,0.0,0.0,0.0,0.0,0.0,0.0,0.0,0.0,0.0,0.0,0.0,0.0,0.0,0.0,0.0,0.0,0.0,0.0,0.0,0.0,0.0,0.0,0.0,0.0,0.0,0.0,0.0,0.0,0.0,0.0,0.0,0.0,0.0,0.0,0.0,0.0,0.0,0.0,0.0,0.0,0.0,0.0,0.0,0.0,0.0,0.0,0.0,0.0,0.0,0.0,0.0,0.0,0.0,0.0,0.0,0.0,2.472,2.0967,0.0,0.0,0.0,0.0,0.0,0.0,0.0,0.0,0.0,0.0,0.0,0.0,0.0,0.0,0.0,0.0,0.0,0.0,0.0,0.0,0.0,0.0,0.0,0.0,0.0,0.0,0.0,0.0,0.0,0.0,0.0,0.0,0.0,0.0,0.0,0.0,0.0,0.0,0.0,0.0,2.7035,3.1735,3.4618,3.3856,3.3789,3.4097,3.4863,3.4944,3.4007,3.1836,3.0761,0.0,0.0,0.0,0.0,0.0,0.0,0.0,0.0,0.0,0.0,0.0,0.0,0.0,0.0,0.0,0.0,0.0,0.0,0.0,0.0,0.0,0.0,0.0,0.0,0.0,0.0,0.0,0.0,0.0,0.0,0.0,0.0,0.0,0.0,0.0,0.0,0.0,0.0,0.0,0.0,0.0,0.0,0.0,0.0,0.0,0.0,0.0,0.0,0.0,0.0,0.0,0.0,0.0,0.0,0.0,0.0,0.0,0.0,0.0,2.8344,2.5993,0.0,0.0,0.0,0.0,0.0,0.0,0.0,0.0,0.0,0.0,0.0,0.0,0.0,0.0,0.0,0.0,0.0,0.0,0.0,0.0,0.0,0.0,0.0,0.0,0.0,0.0,0.0,0.0,0.0,0.0,0.0,0.0,0.0,0.0,0.0,0.0,0.0,0.0,0.0,0.0,2.724,3.1847,3.475,3.4352,3.4319,3.4566,3.5098,3.5145,3.4809,3.4011,3.2152,0.0,0.0,0.0,0.0,0.0,0.0,0.0,0.0,0.0,0.0,0.0,0.0,0.0,0.0,0.0,0.0,0.0,0.0,0.0,0.0,0.0,0.0,0.0,0.0,0.0,0.0,0.0,0.0,0.0,0.0,0.0,0.0,0.0,0.0,0.0,0.0,0.0,0.0,0.0,0.0,0.0,0.0,0.0,0.0,0.0,0.0,0.0,0.0,0.0,0.0,0.0,0.0,0.0,3.0696,3.1316,3.1316,3.145,3.3015,3.5392,3.1977,3.1676,3.3182,2.7721,0.0,0.0,0.0,0.0,0.0,0.0,0.0,0.0,0.0,0.0,0.0,0.0,0.0,0.0,0.0,0.0,0.0,0.0,0.0,0.0,0.0,0.0,3.0321,2.9976,3.2067,3.2955,2.8642,0.0,0.0,0.0,0.0,0.0,0.0,0.0,0.0,0.0,0.0,0.0,2.8101,3.222,3.4883,3.4883,3.5015,3.5144,3.5343,3.5476,3.5774,3.6434,3.3512,3.1255,0.0,0.0,0.0,0.0,0.0,0.0,0.0,0.0,0.0,0.0,0.0,0.0,0.0,0.0,0.0,0.0,0.0,0.0,0.0,0.0,0.0,0.0,0.0,0.0,0.0,0.0,0.0,0.0,0.0,0.0,0.0,0.0,2.9217,2.9205,0.0,0.0,0.0,0.0,0.0,0.0,0.0,0.0,0.0,0.0,0.0,0.0,0.0,2.8727,2.9158,3.2295,3.3881,3.3881,3.7041,3.8521,3.8521,3.8542,3.8807,3.9186,3.8639,0.0,3.4446,3.3579,0.0,0.0,0.0,0.0,0.0,0.0,0.0,0.0,0.0,0.0,0.0,0.0,0.0,0.0,0.0,0.0,0.0,0.0,0.0,0.0,0.0,0.0,3.7062,3.6772,3.7063,3.7104,3.622,3.1067,2.6277,2.4988,2.4541,2.3275,0.0,0.0,0.0,0.0,0.0,0.0,3.0558,3.3313,3.4883,3.4883,3.5479,3.6052,3.648,3.6816,3.6928,3.6755,3.668,3.5432,3.2634,3.2056,0.0,0.0,0.0,0.0,0.0,0.0,0.0,0.0,0.0,0.0,0.0,0.0,0.0,0.0,0.0,0.0,0.0,0.0,0.0,0.0,0.0,0.0,0.0,0.0,0.0,0.0,0.0,0.0,0.0,2.6159,2.789,2.8734,2.7101,2.5271,0.0,0.0,0.0,0.0,0.0,0.0,0.0,0.0,0.0,3.2332,3.2408,3.3351,3.5317,3.6852,3.7629,3.7629,3.9148,3.9889,3.9889,3.9889,3.9889,3.9889,3.9889,3.9034,3.7478,3.5587,3.2789,2.9494,0.0,0.0,0.0,0.0,2.6241,2.6776,3.0208,3.145,3.1429,3.0922,0.0,0.0,0.0,0.0,0.0,0.0,0.0,2.9026,3.1799,3.4263,3.6276,3.7469,3.7792,3.7757,3.7613,3.5116,3.2094,2.9414,2.8328,2.6208,2.1162,2.167,0.0,0.0,0.0,2.8444,3.098,3.3796,3.5512,3.5512,3.6174,3.6803,3.73,3.7729,3.8001,3.8152,3.8631,3.7899,3.5717,3.431,3.1647,0.0,0.0,0.0,0.0,0.0,0.0,0.0,0.0,0.0,0.0,0.0,0.0,0.0,0.0,0.0,0.0,0.0,0.0,0.0,0.0,0.0,0.0,0.0,0.0,0.0,0.0,0.0,0.0,2.7325,2.8597,2.9332,2.8976,2.7663,0.0,0.0,0.0,0.0,0.0,0.0,3.0809,3.1053,3.2673,3.5941,3.6017,3.7268,3.9851,3.9889,3.9889,3.9889,3.9889,3.9889,3.9889,3.9889,3.9889,3.9889,3.9889,3.9889,3.97,3.722,3.5607,3.4507,3.1977,3.0396,2.9664,3.0489,3.0904,3.1487,3.4884,3.6079,3.6063,3.536,3.4261,3.2572,2.9126,0.0,0.0,0.0,0.0,3.0404,3.333,3.4543,3.5435,3.7184,3.7577,3.7577,3.7577,3.7362,3.6327,3.3592,3.2228,2.9793,2.4206,2.5,0.0,2.3915,2.7278,3.0558,3.2183,3.4673,3.6373,3.6539,3.7069,3.7636,3.8314,3.8619,3.898,3.9491,3.9767,3.9435,3.8365,3.6702,3.4695,3.2327,0.0,0.0,0.0,0.0,0.0,0.0,0.0,0.0,0.0,0.0,0.0,0.0,0.0,0.0,0.0,0.0,0.0,0.0,0.0,0.0,0.0,0.0,0.0,0.0,0.0,0.0,0.0,0.0,0.0,3.4002,3.4462,0.0,0.0,0.0,0.0,2.9471,3.0481,3.207,3.4315,3.5322,3.701,3.9548,3.9624,3.97,3.9889,3.9889,3.9889,3.9889,3.9889,3.9889,3.9889,3.9889,3.9889,3.9889,3.9889,3.9889,3.9889,3.97,3.7768,3.4851,3.4544,3.2524,3.0076,3.3278,3.4446,3.4939,3.8407,3.9624,3.9624,3.9586,3.7084,3.3821,3.2699,3.0919,0.0,0.0,3.2581,3.4365,3.672,3.7362,3.7434,3.7541,3.7577,3.7577,3.7577,3.6679,3.6176,3.7111,3.6887,3.5454,3.1914,0.0,3.0673,3.012,3.0865,3.2486,3.5364,3.6539,3.7334,3.803,3.8129,3.8602,3.98,3.9679,3.9777,4.0297,4.0086,3.9935,3.9976,3.9615,3.7937,3.4694,3.3627,0.0,0.0,0.0,0.0,0.0,0.0,0.0,0.0,0.0,0.0,0.0,0.0,0.0,0.0,0.0,0.0,0.0,0.0,0.0,0.0,0.0,0.0,0.0,0.0,0.0,0.0,0.0,0.0,3.4961,3.5652,0.0,3.2252,3.3202,3.3714,3.3109,3.5381,3.7162,3.7991,3.8412,3.9001,3.9851,3.9889,3.9889,3.9889,3.9889,3.9889,3.9889,3.9889,3.9889,3.9889,3.9889,3.9889,3.9889,3.9889,3.9889,3.9889,3.9889,3.9229,3.8109,3.8066,3.7327,3.6419,3.7612,3.8066,3.8218,3.9472,3.9889,3.9807,3.9364,3.8255,3.6952,3.6131,3.5313,3.4793,3.5328,3.5899,3.6542,3.7362,3.7577,3.7577,3.7577,3.8005,3.8362,3.8362,3.8783,3.9093,3.8722,3.7298,3.5457,3.3026,3.4037,3.4415,3.223,3.3756,3.5545,3.6572,3.7765,3.8593,3.8858,3.9322,3.9901,4.0679,4.05,4.0574,4.1069,4.1328,4.1217,4.0756,4.0999,4.0138,3.8088,3.8152,3.4835,0.0,0.0,0.0,0.0,0.0,0.0,0.0,0.0,0.0,0.0,0.0,0.0,0.0,0.0,0.0,0.0,0.0,0.0,0.0,0.0,0.0,0.0,0.0,0.0,0.0,3.3351,3.5801,3.5056,3.6665,3.6763,3.403,3.6008,3.722,3.6651,3.866,3.9889,3.9889,3.9889,3.9889,3.9889,4.0192,4.0366,4.0366,4.0631,4.0745,4.0745,4.0745,4.0745,4.0745,4.0745,4.0745,4.0745,4.0479,4.0517,4.0707,4.0116,4.0079,4.0328,4.0003,3.9889,3.9889,3.9889,3.9889,3.9889,3.9889,3.9889,3.9785,3.9249,3.9008,3.8781,3.8132,3.7827,3.7721,3.7613,3.7577,3.7577,3.7577,3.7791,3.8005,3.8005,3.8611,3.9254,3.9539,4.0396,4.0882,4.0102,3.8426,3.665,3.5194,3.6444,3.6793,3.4512,3.6473,3.803,3.7533,3.8957,4.0083,4.0348,4.058,4.1009,4.1716,4.0759,4.0585,4.1709,4.1463,4.138,4.1502,4.1178,4.0445,3.935,3.9442,3.6453,3.0292,0.0,0.0,0.0,0.0,0.0,0.0,0.0,0.0,0.0,0.0,0.0,0.0,0.0,0.0,0.0,0.0,0.0,0.0,0.0,0.0,0.0,0.0,0.0,3.3307,3.5361,3.6377,3.4685,3.7939,3.9308,3.6761,3.8573,3.9911,3.9911,3.9949,3.9927,3.9927,3.9965,3.9965,3.9965,4.0821,4.1237,4.12,4.1996,4.2412,4.2412,4.245,4.245,4.245,4.2488,4.245,4.2375,4.1616,4.1692,4.2261,4.0669,4.0479,4.1162,4.0252,3.9889,3.9889,3.9889,3.9889,3.9889,3.9889,3.9889,3.9889,3.9739,3.9477,3.9175,3.8766,3.8368,3.8039,3.7757,3.7684,3.7648,3.7648,3.8255,3.8861,3.8861,3.9468,4.0217,4.0967,4.1181,4.1268,4.1508,4.0607,3.9628,3.8971,3.8538,3.803,3.7334,3.9056,0.0,3.8493,4.015,4.1707,4.2336,4.1773,4.1753,4.279,4.0436,3.9859,4.2133,4.0501,4.0318,4.2216,4.0378,3.8974,3.834,3.7474,3.591,3.3696,0.0,0.0,0.0,0.0,0.0,0.0,0.0,0.0,0.0,0.0,0.0,0.0,0.0,0.0,0.0,0.0,0.0,0.0,0.0,0.0,0.0,3.4698,3.6207,3.5102,3.7704,3.9496,3.8863,3.9692,4.0032,3.9308,3.966,3.9954,4.004,4.0545,4.0858,4.0858,4.1427,4.173,4.173,4.1958,4.1806,4.12,4.1996,4.2412,4.2412,4.3057,4.336,4.336,4.3966,4.3549,4.2412,4.2829,4.2791,4.2375,4.192,4.1844,4.192,4.0457,3.9889,3.9889,3.9889,3.9889,3.9889,3.9889,3.9889,3.9867,3.9537,3.9724,3.9993,3.9577,3.9607,3.9734,3.9662,3.9478,3.9289,3.9289,3.9432,3.9753,4.0324,4.1074,4.168,4.1895,4.3322,4.4084,4.2642,4.2706,4.2412,4.0663,4.0288,4.0247,4.0237,4.0746,4.0978,4.058,4.1508,4.1707,4.0315,3.9984,4.0098,4.0582,3.9399,3.9747,4.2139,4.1813,4.1742,4.2287,4.1962,4.165,4.1533,3.8751,3.6684,0.0,0.0,0.0,0.0,0.0,0.0,0.0,0.0,0.0,0.0,0.0,0.0,0.0,0.0,0.0,0.0,0.0,0.0,0.0,0.0,0.0,0.0,3.7224,3.8373,3.7909,3.9533,4.0759,4.0654,4.0462,4.0537,4.0883,4.073,4.0806,4.1246,4.1322,4.1376,4.1376,4.1452,4.1528,4.1528,4.2214,4.2366,4.1909,4.3454,4.4217,4.4217,4.5004,4.5399,4.5375,4.5759,4.5407,4.4497,4.4687,4.4459,4.3966,4.3587,4.3436,4.3284,0.0,0.0,0.0,0.0,4.0972,4.0972,4.0972,4.0972,4.0889,4.0688,4.0841,4.1098,4.0754,4.0725,4.0769,4.0563,4.0311,4.0085,3.9971,4.0396,4.1038,4.1502,4.243,4.3358,4.3679,4.4821,4.5472,4.4366,4.4628,0.0,4.2765,4.1984,4.1577,4.1432,4.1939,4.2104,4.1508,4.2336,4.2502,4.1243,4.111,4.103,4.0793,3.9637,0.0,0.0,0.0,4.0925,4.1288,4.1319,0.0,0.0,0.0,3.8439,3.8731,3.6308,0.0,0.0,3.16,3.0434,0.0,0.0,0.0,0.0,0.0,0.0,0.0,0.0,0.0,0.0,0.0,0.0,0.0,0.0,0.0,0.0,3.9274,4.081,4.0926,4.0926,4.0926,4.0926,4.0756,4.0992,4.1894,4.1745,4.1928,4.2731,4.2044,4.1698,4.189,4.1161,0.0,0.0,0.0,4.3138,4.3023,4.5381,4.6608,4.6724,4.7401,4.7754,4.7869,4.7756,4.7644,4.7416,4.6809,4.6467,4.6315,4.5556,4.5228,4.5052,4.336,4.264,4.2564,4.2564,4.2564,4.2564,4.2564,0.0,0.0,4.2564,4.2583,4.2574,4.2243,4.1969,4.1724,4.1235,4.0889,4.0635,4.0405,4.1399,4.2465,4.2644,4.375,4.4928,4.5641,4.5856,4.597,4.6152,4.6182,4.587,4.4872,4.3608,4.246,4.1773,4.2767,4.3164,4.1839,4.28,4.3529,4.3297,4.3264,0.0,4.2011,4.0361,4.0003,4.1506,3.9965,3.9378,4.0143,3.9914,3.9995,4.0369,4.0157,4.0928,4.2678,4.2602,4.2541,4.2314,3.3823,3.1842,0.0,0.0,0.0,0.0,0.0,0.0,0.0,0.0,0.0,0.0,0.0,0.0,0.0,0.0,0.0,3.8833,4.0048,4.1042,4.1661,4.1777,4.1777,4.1777,4.1644,4.1923,4.2897,4.214,4.1694,4.1986,4.1771,4.2179,4.354,4.3445,4.402,4.5419,4.5093,4.4557,4.3885,4.5055,4.5975,4.6724,4.7489,0.0,4.8924,4.9532,4.9073,4.7809,4.8384,4.8231,4.7542,4.7388,4.7264,4.6976,4.5138,4.4004,4.3436,4.3436,4.3436,4.3436,4.3436,4.3436,4.3436,4.3436,4.4247,4.5051,4.4357,4.425,0.0,4.4243,4.3286,4.2405,4.2976,4.3207,4.3572,4.4821,4.5356,4.5606,4.5784,4.632,4.6605,4.597,4.6035,4.6119,4.592,4.4898,4.391,4.3256,4.3429,4.3529,4.323,4.3462,4.2965,4.121,4.1011,4.0833,4.0476,4.0087,4.0607,4.2286,4.1866,4.1659,4.1823,4.2118,4.2481,4.2918,4.32,4.3713,4.4421,4.3777,4.3388,4.3228,4.0688,3.9689,0.0,0.0,0.0,0.0,0.0,0.0,0.0,0.0,0.0,0.0,0.0,3.4726,3.6875,0.0,3.956,4.1335,4.1879,4.2254,4.2641,4.2744,4.2744,4.2667,4.2574,4.2922,4.3852,4.3458,4.3489,4.436,4.4006,4.4267,4.5517,4.4807,4.4768,4.5616,4.523,4.4807,4.4344,4.6039,4.7118,4.7542,4.874,4.9509,4.9971,5.0274,4.9925,4.9158,4.9618,4.9311,4.8565,4.8565,4.8503,4.8378,4.7869,4.6815,4.5558,4.5558,4.5558,4.5558,4.5558,4.5558,4.5558,4.5558,4.6038,4.6479,4.5684,4.5509,4.5492,4.5276,4.4613,4.4088,4.4633,4.4867,4.5245,4.5911,4.6239,4.6391,4.6391,4.6712,4.6855,4.6462,4.6529,4.6542,4.6253,4.5717,4.5142,4.4507,4.4202,4.4064,4.4064,4.3805,4.3197,4.2137,4.2005,4.1787,4.1297,4.1409,4.1847,4.2762,4.3218,4.3286,4.2929,4.331,4.3543,4.3487,4.4035,4.4448,4.4815,4.4285,4.4044,4.3928,4.3203,4.2329,0.0,0.0,0.0,0.0,0.0,0.0,0.0,3.125,3.2409,3.4384,3.5933,3.7617,3.9961,4.0834,4.1707,4.3323,4.3504,4.349,4.3656,4.3724,4.3853,4.4059,4.3789,4.3982,4.4987,4.4949,4.5452,4.6999,4.6303,4.6264,4.7308,4.5916,4.5258,4.5568,4.5452,4.5336,4.5336,4.7386,4.8469,4.8662,4.9903,5.0583,5.0738,5.0413,5.0258,5.0258,5.0084,4.9643,4.9067,4.9181,4.9258,4.9296,4.9946,4.9175,4.7732,4.758,4.7479,4.7467,4.7467,4.7517,4.7643,4.7643,4.7757,4.7719,4.6923,4.658,4.6393,4.6001,4.573,4.5616,4.5883,4.6318,4.6673,4.6649,4.6852,4.7098,4.7187,4.7088,4.7043,4.7088,4.7043,4.687,4.6447,4.635,4.6119,4.5425,4.4947,4.4652,4.4652,4.4202,4.3948,4.3948,4.3831,4.3539,4.2941,4.3076,4.3251,4.34,4.4152,4.4357,4.375,4.4021,4.3977,4.3574,4.4103,4.4486,4.4621,4.453,4.4438,4.4327,4.3781,4.2885,3.3272,3.1071,2.994,3.2019,3.2029,3.2919,0.0,3.7827,3.7035,3.968,4.0359,4.0859,4.1914,4.2148,4.2467,4.3453,4.3549,4.3746,4.4533,4.4655,4.5219,4.6769,4.5537,4.5156,4.6651,4.6109,4.6071,4.7038,4.6303,4.6535,4.8159,4.7347,4.754,4.9088,4.8392,4.7966,4.7966,4.8275,4.8778,4.9552,4.973,5.0178,5.0835,5.0085,4.9776,4.9737,4.8964,4.8578,4.8539,4.9139,4.9355,4.9393,4.9373,4.9214,4.8903,4.8137,4.7783,4.7686,4.7686,4.806,4.8553,4.8553,4.9045,4.9462,4.8666,4.8283,4.8108,4.8079,4.7215,4.6531,4.712,4.7131,4.7093,4.7664,4.7632,4.7536,4.7829,4.7407,4.7088,4.7399,4.7187,4.6998,4.6952,4.6906,4.6507,4.5477,4.5267,4.5214,4.5214,4.5161,4.5108,4.5108,4.4708,4.4373,4.4271,4.4073,4.4196,4.4725,4.4688,4.4571,4.45,4.4507,4.4448,4.4199,4.4554,4.4649,4.4411,4.4726,4.4648,4.4221,4.3781,4.3343,3.7368,3.6369,3.5566,3.7139,3.7626,3.8295,4.0358,4.0358,4.0397,4.2099,4.243,4.2733,4.3671,4.3789,4.4059,4.5016,4.5101,4.5365,4.6264,4.6385,4.6845,4.7961,4.7512,4.7312,4.7918,4.7632,4.7787,4.8638,4.8368,4.8716,4.9977,4.9189,4.9073,4.9807,4.8972,4.8508,4.8508,4.9025,4.9219,4.9049,4.9513,4.9707,4.956,4.9111,4.8933,4.8933,4.8546,4.8392,4.843,4.8678,4.8817,4.88,4.875,4.8424,4.8004,4.849,4.8618,4.863,4.9127,4.9465,4.9701,4.9701,4.9858,4.9911,4.9074,4.8707,4.8521,4.8438,4.8117,4.7889,4.8477,4.8431,4.8298,4.8493,4.8309,4.8117,4.8271,4.7999,4.7756,4.7879,4.7585,4.7276,4.7276,4.7133,4.6824,4.6363,4.5985,4.5784,4.5784,4.5528,4.532,4.532,4.5108,4.4947,4.4947,4.52,4.5431,4.5712,4.5904,4.5784,4.532,4.5364,4.5228,4.4919,4.5187,4.5426,4.5664,4.5244,4.5273,4.5723,4.4063,4.3504,3.91,3.9234,3.9251,4.0384,4.1506,4.2189,4.1609,4.1932,4.255,4.3247,4.3385,4.3713,4.4675,4.4826,4.5186,4.6395,4.6534,4.6805,4.7692,4.7865,4.8152,4.8883,4.9028,4.9161,4.9317,4.9088,4.9304,5.0196,5.0274,5.0546,5.1192,5.0596,5.0248,5.0248,4.964,4.933,4.933,4.9925,4.9925,4.933,4.964,4.9509,4.8941,4.8377,4.7966,4.7773,4.7773,4.7773,4.7773,4.8019,4.8251,4.8392,4.8159,4.7966,4.7913,4.868,4.8952,4.9027,4.9834,5.0274,5.0385,5.0385,5.0336,5.0168,4.9519,4.9272,4.9125,4.8943,4.8996,4.9186,4.9416,4.9408,4.9277,4.9118,4.8813,4.8639,4.8709,4.8495,4.831,4.831,4.8038,4.7752,4.771,4.75,4.7327,4.7327,4.688,4.6542,4.6447,4.607,4.5734,4.558,4.5528,4.5528,4.5528,4.597,4.6266,4.6398,4.6778,4.6748,4.6222,4.6275,4.609,4.5594,4.5838,4.6103,4.6397,4.5866,4.5998,4.6712,4.4909,4.4272,3.6834,3.7279,3.827,4.0121,4.1889,4.3153,4.3153,4.322,4.3285,4.3388,4.3388,4.3672,4.4614,4.4812,4.5358,4.698,4.726,4.7579,4.8429,4.8553,4.8872,4.9769,4.9847,5.0205,5.1023,5.0347,5.0236,5.1078,5.1156,5.1156,5.1195,5.1156,5.1156,5.1156,5.1117,5.1117,5.1117,5.1156,5.1156,5.1117,5.0291,4.9886,4.9814,4.8121,4.6907,4.6162,4.6162,4.6162,4.6239,4.7027,4.7801,4.8406,4.7579,4.8198,4.9513,4.8725,4.8298,4.8256,4.9142,4.9855,5.0385,5.0385,5.0385,5.0385,5.0385,5.0325,5.0342,5.0197,5.0149,5.0076,4.9741,4.9692,4.9634,4.9446,4.9118,4.8982,4.9283,4.8919,4.8531,4.864,4.8568,4.8421,4.8234,4.8196,4.8157,4.8157,4.7756,4.732,4.7043,4.6952,4.6731,4.6253,4.6168,4.6168,4.6168,4.6204,4.6447,4.6952,4.6998,4.7043,4.7143,4.7143,4.688,4.6302,4.6597,4.6468,4.5847,4.6525,4.6719,4.6401,4.6424,4.6052,3.846,3.9337,4.0577,4.3081,4.417,4.4624,4.4832,4.4931,4.4945,4.4984,4.4461,4.4091,4.446,4.5012,4.5595,4.6215,4.7327,4.8464,4.933,4.9446,4.9795,5.0662,5.0739,5.0895,5.1179,5.092,5.0884,5.1196,5.1196,5.1196,5.1196,5.1196,5.1196,5.1196,5.1196,5.1196,5.1196,5.1196,5.0654,4.9528,4.8113,4.769,4.807,4.6995,4.6346,4.6095,4.6095,4.6445,4.6951,4.6639,4.7301,4.8497,4.7649,4.8005,4.9001,4.9311,4.9359,4.9389,5.0146,5.0538,5.0735,5.0735,5.0663,5.0587,5.0587,5.0507,5.0363,5.0358,5.0245,5.0163,5.0063,4.9933,4.9797,4.9741,4.9646,4.9617,4.9712,4.9499,4.9315,4.9352,4.9052,4.8674,4.8384,4.8347,4.8384,4.8384,4.7915,4.7363,4.7043,4.6998,4.6952,4.6731,4.6731,4.6731,4.6731,4.6731,4.6778,4.6998,4.7088,4.7133,4.7178,4.7312,4.7299,4.7096,4.7306,4.7405,4.7462,4.7131,4.7445,4.8365,4.6945,4.6456,3.9588,4.0579,4.1745,4.4805,4.5371,4.5321,4.5858,4.5791,4.5571,4.5364,4.4746,4.4184,4.3897,4.4845,4.5758,4.6022,4.7653,4.9153,5.0019,5.0135,5.04,5.1006,5.1099,5.1099,5.1099,5.1076,5.1131,5.1169,5.1208,5.1208,5.1208,5.1208,5.1208,5.1208,5.1208,5.1208,5.1208,5.1208,5.049,4.9127,4.7699,4.7116,4.7215,4.6432,4.6092,4.6085,4.6085,4.6436,4.6905,4.6633,4.7137,4.8099,4.7883,4.8302,4.9116,4.9664,5.0079,5.0403,5.0835,5.0983,5.0983,5.0945,5.0841,5.0773,5.0773,5.0663,5.0587,5.0527,5.0445,5.0374,5.0268,5.0174,5.0051,5.0012,5.0012,4.9986,4.9906,4.9824,4.9778,4.9721,4.9469,4.9145,4.8919,4.8885,4.8847,4.8674,4.8272,4.7838,4.7327,4.7232,4.7133,4.6998,4.6998,4.6998,4.6998,4.6998,4.6998,4.6998,4.7133,4.7223,4.7223,4.7443,4.7578,4.7788,4.787,4.8032,4.8306,4.8015,4.8264,4.8952,4.7937,4.7545,4.0127,4.0917,4.1832,4.5155,4.5483,4.5261,4.6249,4.5916,4.5188,4.4553,4.4256,4.3824,4.2787,4.4222,4.5742,4.6219,4.8048,4.9682,5.0491,5.0606,5.0681,5.0874,5.089,5.089,5.089,5.089,5.0967,5.1177,5.1177,5.1177,5.1177,5.1177,5.1177,5.1177,5.1177,5.1177,5.1177,5.1099,5.0701,4.9932,4.8994,4.8135,4.739,4.66,4.6208,4.6247,4.6247,4.6247,4.6356,4.7081,4.7398,4.7494,4.8348,4.9177,4.9869,4.9926,5.0498,5.1203,5.114,5.113,5.1099,5.0983,5.0945,5.0906,5.0906,5.0906,5.0874,5.0756,5.0701,5.0664,5.0486,5.0385,5.038,5.0259,5.0212,5.0163,4.9959,4.9906,4.9852,4.975,4.9835,4.9824,4.9721,4.9692,4.9506,4.9015,4.8949,4.8637,4.7846,4.7627,4.7407,4.7098,4.7053,4.7053,4.7043,4.7043,4.7043,4.7043,4.7178,4.7267,4.7327,4.7493,4.7788,4.8306,4.8306,4.8306,4.8306,4.9023,4.899,4.8344,4.9257,4.9283,4.1054,4.2731,4.4423,4.5425,4.6036,4.6345,4.6177,4.6145,4.5569,4.3405,4.2947,4.2144,3.9261,4.2393,4.5036,4.3925,4.7545,5.0571,5.0803,5.0841,5.0841,5.0897,5.0897,5.088,5.0808,5.0808,5.0846,5.0885,5.0951,5.0983,5.0983,5.0983,5.0983,5.0983,5.0983,5.0983,5.0983,4.9784,4.9659,5.0622,4.8537,4.8121,4.9141,4.8283,4.7921,4.796,4.796,4.8309,4.8904,4.8464,4.902,5.0132,4.9714,5.0088,5.0859,5.0863,5.1023,5.119,5.1162,5.1161,5.1177,5.1138,5.1138,5.1099,5.1061,5.1061,5.1006,5.0897,5.0773,5.0682,5.0645,5.0507,5.0363,5.0358,5.0358,5.0336,5.0252,5.0174,5.0114,5.0063,4.9797,4.9596,4.9797,4.9499,4.9346,4.9617,4.9439,4.9019,4.8384,4.8272,4.8196,4.8119,4.8119,4.8002,4.7715,4.7674,4.7674,4.7674,4.7669,4.7793,4.8117,4.8269,4.8307,4.8306,4.8569,4.8569,4.8306,4.8748,4.8887,4.875,4.909,4.9057,4.21,4.3689,4.509,4.5584,4.5802,4.5823,4.5602,4.5176,4.4032,4.1177,4.0829,3.9943,3.6512,4.0642,4.4128,4.2709,4.7127,5.0735,5.0717,5.0605,5.0568,5.0682,5.0529,5.0469,5.0389,5.0389,5.0389,5.0389,5.0699,5.0841,5.0841,5.0858,5.0913,5.0913,5.089,5.0906,5.0906,5.0001,5.0001,5.0867,4.9126,4.8817,4.9707,4.8871,4.8469,4.8508,4.8508,4.8793,4.9219,4.9126,4.9436,5.0016,5.0302,5.048,5.0642,5.107,5.1186,5.1208,5.1203,5.1206,5.1213,5.1208,5.1217,5.1178,5.1178,5.1125,5.1138,5.1022,5.0935,5.0868,5.0791,5.0699,5.0606,5.0547,5.0527,5.0507,5.0445,5.0358,5.0268,5.0268,5.0038,4.9884,5.01,4.9884,4.9738,5.0012,4.9879,4.9466,4.8696,4.8624,4.8639,4.8495,4.8421,4.8272,4.8041,4.7959,4.7955,4.7955,4.7955,4.8035,4.8233,4.8383,4.8495,4.8641,4.8816,4.8816,4.8641,4.9085,4.9052,4.8642,4.9123,4.9155,4.2951,4.3979,4.4821,4.5407,4.5224,4.482,4.4761,4.3558,4.1622,3.8602,3.8301,3.757,3.4278,3.8931,4.2936,4.2044,4.6533,5.0179,5.0368,5.023,5.0159,5.0298,5.0059,4.9873,4.9873,4.9873,4.9873,4.9873,5.0347,5.0644,5.0663,5.0738,5.0756,5.0756,5.0752,5.0769,5.0769,5.0653,5.067,5.0786,4.9992,4.9699,4.976,4.9073,4.8725,4.8709,4.8725,4.874,4.8778,4.9552,4.9397,4.8894,5.048,5.0596,5.0031,5.0867,5.1177,5.1177,5.1177,5.1192,5.1179,5.1196,5.1206,5.1193,5.1193,5.1201,5.1217,5.1136,5.1091,5.1099,5.0983,5.0945,5.0874,5.0756,5.072,5.0701,5.0527,5.0427,5.0406,5.0423,5.0385,5.0385,5.0385,5.0385,5.038,5.0259,5.0236,4.9896,4.901,4.8905,4.8725,4.8377,4.8273,4.82,4.8162,4.8119,4.8111,4.8111,4.8153,4.8192,4.8269,4.8345,4.8641,4.9123,4.915,4.9182,4.9118,4.9646,4.9408,4.8495,4.9321,4.9452,4.2849,4.3973,4.4953,4.4447,4.521,4.5573,4.3688,4.2216,4.0314,3.6911,3.649,3.5668,3.2161,3.6535,4.067,4.0753,4.46,4.8188,4.9782,4.9948,4.9936,4.9949,4.9962,4.9872,4.9819,4.9819,4.9819,4.9819,4.9898,4.9999,5.0045,5.0083,5.0045,5.0045,5.0068,5.0068,5.0068,4.9419,4.948,5.0214,4.9603,4.9565,5.0112,5.0349,5.0361,5.022,5.0378,5.048,5.048,5.0635,5.0596,5.0519,5.0828,5.0828,5.0751,5.0906,5.0945,5.0983,5.1099,5.113,5.1114,5.1186,5.124,5.1285,5.1206,5.1242,5.1261,5.1195,5.1178,5.1177,5.1099,5.1061,5.1006,5.0913,5.0874,5.0858,5.0841,5.0738,5.0587,5.0406,5.0385,5.0385,5.0385,5.0385,5.0385,5.038,5.038,5.0275,4.9973,4.925,4.84,4.7513,4.801,4.8172,4.7745,4.8342,4.875,4.875,4.8605,4.8641,4.8993,4.916,4.9225,4.916,4.9566,4.9617,4.9352,4.9741,4.9683,4.9225,4.9574,4.9514,4.2501,4.336,4.415,4.3796,4.4299,4.4119,4.1353,3.995,3.8059,3.3924,3.3472,3.3031,3.0463,3.4357,3.8118,3.8701,4.3074,4.6859,4.8136,4.8919,4.9311,4.9288,4.8973,4.8667,4.867,4.867,4.867,4.867,4.8878,4.9234,4.9808,4.986,4.9911,4.9898,4.9898,4.9898,4.9898,4.9518,4.9542,4.9986,4.9686,4.9725,5.0035,5.0265,5.0308,5.0221,5.0329,5.0371,5.0371,5.0371,5.043,5.0489,5.0489,5.0568,5.0735,5.0735,5.0825,5.0906,5.0983,5.1022,5.0999,5.1037,5.1152,5.125,5.1201,5.1215,5.1232,5.1201,5.1185,5.1195,5.1159,5.1139,5.1138,5.1061,5.1022,5.0983,5.0945,5.0858,5.0791,5.0681,5.0663,5.0663,5.0663,5.0663,5.0644,5.0567,5.0547,5.0333,4.9762,4.9266,4.8895,4.8651,4.8796,4.8875,4.8721,4.8837,4.8925,4.9027,4.8959,4.8993,4.9197,4.9321,4.9415,4.9483,4.9692,4.9721,4.9574,4.9769,4.9741,4.9415,4.9634,4.9574,4.205,4.2654,4.3223,4.3045,4.3152,4.2406,3.9025,3.7571,3.5616,3.1213,3.0765,3.0706,2.9263,3.2451,3.5674,3.6868,4.1138,4.4834,4.6323,4.7541,4.8342,4.8456,4.7926,4.7591,4.7591,4.7591,4.7632,4.7715,4.8153,4.8746,4.9579,4.957,4.9561,4.9542,4.9542,4.9542,4.9542,4.9635,4.969,4.9728,4.977,4.9743,4.9597,4.9822,4.9848,4.9705,4.9848,4.9898,4.9898,4.9898,4.9961,5.0049,5.0049,5.0214,5.0448,5.0448,5.0548,5.0696,5.0769,5.0786,5.0803,5.0858,5.1006,5.1184,5.1169,5.1181,5.1209,5.1206,5.1205,5.1209,5.1196,5.1201,5.1242,5.1203,5.1145,5.1099,5.0983,5.0945,5.0945,5.0906,5.0906,5.0906,5.0906,5.0906,5.0858,5.0756,5.0738,5.047,4.9624,4.9527,4.963,4.9987,4.9552,4.9303,4.9419,4.9177,4.9061,4.9225,4.9225,4.9225,4.9225,4.9384,4.9537,4.9692,4.9721,4.975,4.975,4.9824,4.9769,4.9506,4.9692,4.9625,4.1648,4.2246,4.2668,4.193,4.2281,4.178,3.7714,3.5684,3.3619,3.0109,2.9661,2.9621,2.8719,3.0863,3.3594,3.6141,3.8185,4.0854,4.4889,4.6124,4.6921,4.7606,4.7632,4.7591,4.7591,4.7591,4.7756,4.8229,4.8605,4.889,4.8993,4.8641,4.8458,4.8458,4.8458,4.8458,4.8458,4.8818,4.9061,4.9164,4.937,4.9171,4.8637,4.9514,4.9597,4.9027,4.9652,4.9898,4.9898,4.9898,4.9898,4.9923,4.9923,4.9923,4.9948,4.9948,4.9973,5.0021,5.0325,5.0469,5.049,5.0717,5.0957,5.1099,5.1091,5.1145,5.1184,5.1213,5.1257,5.1289,5.121,5.1245,5.1295,5.1217,5.1217,5.1177,5.1099,5.1099,5.1061,5.0945,5.0906,5.0906,5.0906,5.0906,5.089,5.089,5.089,5.0803,5.0586,5.0567,5.049,5.0363,4.9415,4.8704,4.8596,4.9055,4.9352,4.9384,4.9384,4.9384,4.9384,4.9574,4.9692,4.9692,4.9835,4.9879,4.9879,4.9879,4.9879,4.9852,4.9852,4.9835,4.156,4.1635,4.1627,4.1313,4.1313,4.0193,3.5862,3.4375,3.2788,2.8768,2.8012,2.825,2.8836,2.942,3.0907,3.4251,3.5993,3.7813,4.0419,4.2619,4.4147,4.4764,4.5346,4.5988,4.6671,4.6742,4.6936,4.7421,4.7632,4.7838,4.8117,4.8231,4.8306,4.8306,4.8035,4.7875,4.7875,4.8038,4.8307,4.8642,4.8713,4.8746,4.8748,4.9113,4.9145,4.8915,4.9177,4.9302,4.9302,4.9302,4.937,4.9401,4.9401,4.955,4.9711,4.9711,4.9808,4.9923,5.0059,5.0107,5.0138,5.0448,5.0625,5.0721,5.0902,5.1006,5.1061,5.1138,5.1153,5.117,5.1185,5.1249,5.1268,5.1229,5.1245,5.1225,5.119,5.1153,5.1138,5.1099,5.1099,5.1099,5.1099,5.1061,5.1022,5.1022,5.0945,5.0874,5.0825,5.0825,5.0808,5.0717,5.0035,4.9616,4.9639,4.9682,4.9765,4.9884,4.9884,4.983,4.9693,4.9962,5.0025,4.9797,4.9986,5.0012,4.9879,4.9879,4.9879,4.9879,4.9879,4.9852,4.1094,4.1071,4.0802,4.0802,4.0172,3.8452,3.4355,3.2942,3.1369,2.7224,2.6621,2.7129,2.8078,2.8216,2.924,3.2252,3.3839,3.5466,3.7617,3.9981,4.1847,4.2812,4.3659,4.4535,4.5586,4.6112,4.6554,4.688,4.7026,4.7248,4.7591,4.7756,4.7955,4.8075,4.7632,4.7464,4.7591,4.7715,4.7995,4.8306,4.842,4.8569,4.8714,4.882,4.882,4.8714,4.882,4.889,4.889,4.889,4.8962,4.9068,4.9068,4.9193,4.9408,4.9408,4.9483,4.9645,4.9728,4.9781,4.9796,5.0121,5.0252,5.032,5.0547,5.0738,5.0897,5.099,5.1045,5.1068,5.1186,5.1257,5.1254,5.1196,5.1238,5.1248,5.121,5.1178,5.1214,5.1218,5.1192,5.1192,5.1192,5.1153,5.1125,5.1115,5.1061,5.0983,5.0983,5.0983,5.0945,5.0906,5.0587,5.0427,5.0486,5.0214,5.0083,5.0252,5.0252,5.0206,5.0062,5.0275,5.0313,5.0051,5.0212,5.0174,5.0025,5.0025,5.0025,5.0025,5.0025,5.0025,4.008,4.0417,4.0417,4.0417,3.8967,3.6659,3.3428,3.121,2.8876,2.5592,2.5758,2.6406,2.6023,2.7411,2.9016,3.0233,3.1675,3.3967,3.7729,3.8939,4.024,4.2535,4.3078,4.3638,4.4435,4.5952,4.689,4.689,4.7335,4.7591,4.7591,4.716,4.7115,4.7591,4.716,4.7115,4.7591,4.8035,4.8306,4.8306,4.8714,4.8678,4.8306,4.8714,4.8678,4.8344,4.8714,4.889,4.889,4.889,4.889,4.889,4.889,4.889,4.889,4.889,4.889,4.8959,4.9289,4.9401,4.9445,4.9711,4.9834,4.9898,4.9898,5.032,5.0773,5.0773,5.0919,5.1022,5.1177,5.1177,5.1189,5.12,5.1203,5.1206,5.1209,5.1211,5.1205,5.1193,5.1195,5.1195,5.1195,5.1195,5.1211,5.1184,5.1215,5.1177,5.1099,5.1099,5.1061,5.0906,5.089,5.0841,5.0701,5.0507,5.0385,5.0385,5.0385,5.0385,5.0385,5.0385,5.0385,5.0385,5.0385,5.0385,5.0385,5.0385,5.0385,5.0385,5.0385,5.0385,3.795,3.8472,3.852,3.807,3.7268,3.5724,3.237,3.0829,2.9207,2.6198,2.5488,2.5552,2.5894,2.6044,2.7122,3.0344,3.0843,3.2052,3.5531,3.7576,3.9163,4.0663,4.3237,4.4939,4.5233,4.593,4.6447,4.6447,4.6554,4.6649,4.6649,4.6459,4.6649,4.7115,4.6649,4.6459,4.6649,4.6788,4.7062,4.7335,4.7464,4.7632,4.7834,4.7959,4.7919,4.7797,4.7959,4.8192,4.8495,4.8495,4.8642,4.889,4.889,4.889,4.889,4.889,4.889,4.889,4.9027,4.9094,4.9123,4.9439,4.9521,4.9608,4.9776,5.0159,5.0567,5.0738,5.0846,5.0863,5.0941,5.0974,5.1037,5.1062,5.1127,5.1192,5.1197,5.1203,5.1201,5.119,5.125,5.1277,5.1277,5.1277,5.1268,5.1284,5.1234,5.119,5.119,5.1153,5.1138,5.1099,5.1099,5.1045,5.0841,5.0769,5.0735,5.0735,5.0735,5.0699,5.0587,5.0681,5.0644,5.0385,5.0527,5.0527,5.0385,5.0385,5.0385,5.0385,5.0385,5.0385,3.525,3.6378,3.6702,3.6039,3.4949,3.338,3.0746,2.9092,2.7503,2.5443,2.4699,2.4585,2.5258,2.5237,2.6094,2.9059,2.9751,3.1182,3.4632,3.671,3.8632,4.0713,4.3288,4.4993,4.5147,4.5629,4.5955,4.5955,4.5955,4.6055,4.6189,4.6189,4.635,4.6602,4.635,4.6253,4.6495,4.6495,4.6602,4.689,4.7071,4.7335,4.7591,4.7591,4.7591,4.7591,4.7591,4.7756,0.0,4.8035,4.8192,4.8421,4.8605,4.8678,4.8678,4.882,4.889,4.889,4.889,4.889,4.8925,4.916,4.9225,4.9289,4.9588,4.9987,5.0363,5.0567,5.0701,5.0756,5.0773,5.0863,5.0935,5.0935,5.0974,5.1067,5.1083,5.1127,5.1131,5.1208,5.1234,5.1269,5.1265,5.1226,5.1222,5.1222,5.1171,5.1164,5.1121,5.1154,5.119,5.1163,5.1178,5.1153,5.1037,5.0966,5.0945,5.0906,5.0906,5.0858,5.0773,5.0858,5.0786,5.0606,5.0699,5.0699,5.0606,5.0606,5.0606,5.0606,5.0606,5.0606,0.0,3.3899,3.4881,3.4184,3.2196,3.001,2.8711,2.6457,0.0,2.3819,2.364,2.3769,2.4284,2.4902,2.5679,2.6973,2.8658,3.1108,3.4832,3.6598,3.8838,4.2396,4.3439,4.3973,4.444,4.5131,4.5546,4.5546,4.5546,4.5701,4.6055,4.6105,4.6105,4.6189,4.6189,4.6398,4.688,4.688,4.688,4.688,4.7291,4.7506,4.7506,4.7506,4.7506,4.7506,4.7506,4.7506,4.7548,4.7548,4.7591,4.7632,4.8075,4.8267,4.8306,4.8714,4.8855,4.8855,4.889,4.889,4.889,4.889,4.889,4.8959,4.9289,4.9721,5.0159,5.0252,5.0427,5.0664,5.072,5.0738,5.0756,5.0756,5.0773,5.0846,5.0951,5.0967,5.1006,5.1161,5.1177,5.1189,5.1191,5.1142,5.1102,5.1102,5.1103,5.107,5.1016,5.1105,5.1172,5.1102,5.1167,5.1203,5.1218,5.1127,5.1061,5.0945,5.0906,5.0906,5.0906,5.0906,5.0906,5.0906,5.0906,5.0906,5.0906,5.0906,5.0906,5.0906,5.0906,5.0906,2.717,0.0,3.1436,3.0752,2.972,2.8688,0.0,2.6519,2.5196,2.4507,2.3969,2.3953,2.5093,2.4595,2.5123,2.8455,2.8921,3.0629,3.5522,3.9135,4.1962,4.3989,4.4202,4.4429,4.5117,4.5111,4.5054,4.5054,4.5054,4.5142,4.5196,4.5196,4.5354,4.5752,4.5752,4.5955,4.635,4.635,4.635,4.635,4.6495,4.6507,4.6507,4.6507,4.6507,4.6507,4.6507,4.6742,4.7071,4.7071,4.7291,4.7632,4.7715,4.7756,4.7797,4.8269,4.8458,4.8495,4.8785,4.889,4.889,4.889,4.889,4.889,4.8993,4.9283,4.9646,4.9857,4.9987,5.0038,5.0038,5.023,5.0406,5.0406,5.0606,5.0829,5.0846,5.0846,5.0846,5.0885,5.0941,5.0974,5.0975,5.1037,5.1122,5.1095,5.1095,5.1106,5.1091,5.1087,5.1109,5.1113,5.1154,5.1206,5.1201,5.119,5.1138,5.1061,5.1061,5.1022,5.0906,5.0906,5.0906,5.0906,5.0906,5.0906,5.0906,5.0906,5.0906,5.0906,5.0906,5.0906,2.5166,2.7538,2.9885,2.9215,2.8545,2.7868,2.73,2.5854,2.4597,2.4238,2.3849,2.3909,2.4865,2.5239,2.6123,2.8256,3.0081,3.2854,3.7581,4.1035,4.3432,4.4339,4.4682,4.4832,4.4899,4.4756,4.4597,4.4597,4.4597,4.4708,4.4892,4.4729,4.4838,4.5249,4.5001,4.5267,4.6189,4.6189,4.6189,4.6189,4.6189,4.6189,4.6189,4.6189,4.6189,4.6189,4.6189,4.635,4.6554,4.6554,4.6742,4.6981,4.7204,4.7291,4.7335,4.7834,4.7995,4.7995,4.8231,4.8458,4.8642,4.882,4.889,4.889,4.889,4.9027,4.922,4.9558,4.9693,4.9803,4.9803,4.9924,5.0111,5.023,5.0385,5.0567,5.072,5.0738,5.0756,5.0773,5.0829,5.0829,5.0829,5.0889,5.093,5.0914,5.0933,5.0914,5.093,5.0987,5.1013,5.1024,5.1101,5.1141,5.1132,5.1193,5.117,5.1152,5.1136,5.1099,5.1061,5.1061,5.1022,5.0983,5.0983,5.0983,5.0906,5.0906,5.0906,5.0906,5.0906,5.0945,2.4548,2.6902,2.9002,2.8166,2.7599,2.7061,2.6404,2.4805,2.348,2.3566,2.348,2.3792,2.4904,2.6277,2.7488,2.8278,3.197,3.5982,3.9404,4.1981,4.3652,4.4063,4.4737,4.4917,4.4414,4.4246,4.4179,4.4179,4.4121,4.4259,4.4618,4.4339,4.4249,4.4618,4.4102,4.4439,4.5819,4.5819,4.5819,4.5819,4.5819,4.587,4.6005,4.6005,4.6055,4.6189,4.6189,4.6189,4.6189,4.6189,4.6189,4.6204,4.6649,4.6788,4.688,4.7335,4.7506,4.7506,4.7591,4.7838,4.8267,4.8678,4.8785,4.882,4.8855,4.889,4.8959,4.9257,4.9499,4.9665,4.9665,4.9693,4.9803,5.0038,5.0111,5.0206,5.0507,5.0547,5.0567,5.0625,5.0664,5.0664,5.0664,5.0606,5.0606,5.0606,5.0664,5.0682,5.0682,5.0778,5.0874,5.0892,5.0987,5.1083,5.1058,5.1147,5.1164,5.1171,5.1208,5.1228,5.1213,5.1213,5.1175,5.1136,5.113,5.1061,5.0945,5.0937,5.0966,5.0966,5.0942,5.102,2.439,2.6242,2.7166,2.5515,2.5379,2.5431,2.4781,2.3606,2.2785,2.326,2.2965,2.3873,2.7659,2.6878,2.7152,3.2105,3.5055,3.7116,3.8121,4.0831,4.2974,4.346,4.3727,4.4112,4.4577,4.4079,4.3687,4.3687,4.3416,4.3323,4.3383,4.308,4.3047,4.3529,4.3469,4.3672,4.4271,4.4271,4.4271,4.4271,4.4271,4.4606,4.5267,4.5161,4.5511,4.6189,4.609,4.609,4.6189,4.6189,4.6189,4.6239,4.6253,4.6301,4.635,4.6799,4.6981,4.7071,4.7464,4.7632,4.7756,4.8231,4.8382,4.8458,4.8785,4.889,4.889,4.8959,4.9027,4.9061,4.9061,4.922,4.9469,4.9499,4.9693,4.9884,4.9936,4.9962,4.9962,4.9962,4.9924,4.9924,4.9924,5.0135,5.0275,5.0275,5.0525,5.0683,5.0683,5.0721,5.0741,5.074,5.0837,5.0932,5.0941,5.1018,5.1136,5.1122,5.1206,5.1281,5.12,5.12,5.12,5.12,5.1192,5.1177,5.1138,5.1152,5.1152,5.1162,5.1148,5.1148,2.203,2.3977,2.5487,2.4665,2.6389,2.8277,2.7983,2.6945,2.5995,2.5923,2.5716,2.6374,2.9019,2.9427,3.1014,3.579,3.6811,3.7473,3.871,4.0532,4.1852,4.1997,4.242,4.2719,4.2655,4.2366,4.2109,4.2109,4.2301,4.2396,4.2396,4.2333,4.2522,4.2896,4.2585,4.2553,4.2892,4.2769,4.3103,4.3896,4.4271,4.464,4.5001,4.5249,4.5598,4.599,4.5939,4.5939,4.5955,4.5955,4.5955,4.5955,4.5955,4.5955,4.6005,4.6253,4.6315,4.6363,4.6845,4.699,4.708,4.7632,4.7797,4.7838,4.8117,4.8194,4.8194,4.8194,4.8532,4.889,4.889,4.9027,4.9193,4.9352,4.9499,4.9608,4.9776,4.9803,4.9803,4.9803,4.9803,4.9803,4.9803,4.991,4.9987,4.9987,5.0111,5.0221,5.0221,5.0336,5.0423,5.0445,5.0663,5.0798,5.0798,5.091,5.1037,5.112,5.1193,5.1242,5.1199,5.1277,5.1277,5.1162,5.1206,5.1217,5.1109,5.1164,5.1218,5.1218,5.1206,5.1219,2.047,2.2261,2.4041,2.4451,2.7195,2.9959,3.0368,2.9347,2.8361,2.8408,2.8469,2.8882,3.0129,3.2193,3.466,3.7533,3.7533,3.7709,3.9207,4.0171,4.072,4.0576,4.1295,4.1528,4.093,4.0899,4.0899,4.0899,4.1295,4.1459,4.1459,4.1525,4.1688,4.1981,4.1491,4.1358,4.1785,4.1522,4.2045,4.3403,4.3872,4.4305,4.4618,4.5054,4.5494,4.5787,4.5787,4.5787,4.5787,4.5787,4.5787,4.5787,4.5787,4.5787,4.5787,4.5787,4.5787,4.5854,4.6217,4.6328,4.6424,4.699,4.7212,4.7212,4.7428,4.7548,4.7548,4.7548,4.8038,4.8605,4.875,4.875,4.8855,4.9193,4.9289,4.9315,4.955,4.9608,4.9608,4.9608,4.9608,4.9608,4.9608,4.9665,4.9693,4.9693,4.9749,4.9803,4.9803,4.9987,5.0111,5.0111,5.038,5.0624,5.0702,5.0773,5.0898,5.0984,5.1109,5.1185,5.1171,5.1293,5.1249,5.1084,5.1187,5.1206,5.1054,5.1166,5.1235,5.1261,5.1261,5.1274,2.1536,2.24,2.3057,2.4673,2.5654,2.6747,2.8479,2.7513,2.6856,2.9059,2.9574,3.0177,3.1857,3.4171,3.5849,3.5635,3.72,3.8339,3.8335,3.9265,3.9879,3.9737,4.0447,4.0961,4.0899,4.0899,4.0899,4.0899,4.0659,4.0485,4.0485,4.0239,4.01,4.01,4.003,4.0339,4.0851,4.0851,4.1189,4.1754,4.1819,4.252,4.3756,4.3672,4.4451,4.5787,4.5684,4.5684,4.5787,4.5787,4.5787,4.5787,4.5787,4.5787,4.5787,4.5787,4.5787,4.5838,4.5838,4.5854,4.5905,4.6424,4.6531,4.6624,4.7088,4.7342,4.7428,4.7428,4.7548,4.7797,4.8229,4.8344,4.8458,4.882,4.8925,4.8925,4.8959,4.8959,4.8959,4.8959,4.8959,4.8959,4.8959,4.9225,4.9446,4.9446,4.9637,4.9803,4.9803,4.983,4.983,4.983,5.0087,5.0358,5.0644,5.0721,5.0702,5.0721,5.0989,5.1122,5.1109,5.112,5.112,5.1109,5.1115,5.1127,5.1187,5.12,5.1245,5.1385,5.1385,5.1382,1.8939,2.1232,2.3354,2.3976,2.5851,2.8102,3.0102,3.0623,3.1115,3.2876,3.3252,3.3331,3.3494,3.5622,3.7089,3.6008,3.7255,3.8277,3.8202,3.8546,3.8841,3.8767,3.903,3.9218,3.9218,3.9218,3.9218,3.9218,3.9463,3.9565,3.9565,3.9748,3.9889,3.9889,4.027,4.0578,4.0783,4.1122,4.139,4.1588,4.2013,4.2522,4.3047,4.3317,4.4054,4.5015,4.4961,4.5177,4.5581,4.5581,4.5581,4.5581,4.5581,4.5581,4.5581,4.5581,4.5581,4.5581,4.5581,4.5581,4.5581,4.5854,4.592,4.597,4.6231,4.6376,4.6376,4.6376,4.6424,4.6707,4.7632,4.7838,4.7879,4.7959,4.7962,4.8002,4.8233,4.8271,4.8383,4.875,4.8857,4.8857,4.889,4.8993,4.9094,4.9094,4.9155,4.9252,4.9252,4.9439,4.9558,4.9558,4.9803,5.0012,5.0149,5.0149,5.0221,5.038,5.076,5.099,5.0995,5.0998,5.1011,5.0956,5.102,5.1037,5.0992,5.1152,5.125,5.1284,5.1362,5.1414,1.8729,2.1332,2.3955,2.4216,2.6324,2.8885,3.1104,3.2206,3.3396,3.5565,3.5652,3.5282,3.5195,3.6327,3.706,3.6532,3.7469,3.8202,3.8202,3.8202,3.8202,3.8202,3.8202,3.8202,3.8202,3.8202,3.8202,3.8202,3.8575,3.8797,3.8797,3.9133,3.932,3.932,3.992,4.037,4.0509,4.1055,4.1456,4.1588,4.2077,4.2396,4.2585,4.3047,4.3588,4.4202,4.4202,4.4429,4.4818,4.5015,4.5264,4.5423,4.5423,4.5423,4.5423,4.5423,4.5423,4.5423,4.5423,4.5423,4.5423,4.5528,4.5528,4.5581,4.5632,4.5736,4.5736,4.5736,4.5787,4.6005,4.6799,4.716,4.7255,4.7342,4.7342,4.7385,4.7638,4.7679,4.7802,4.8194,4.8307,4.8307,4.8346,4.8495,4.8569,4.8569,4.875,4.8892,4.8892,4.9094,4.9289,4.9384,4.9558,4.9693,4.9803,4.9803,4.9884,5.0062,5.0368,5.0624,5.0825,5.0898,5.0859,5.0841,5.0859,5.0889,5.0921,5.1035,5.1133,5.1122,5.1218,5.1284,2.1923,2.3146,2.4668,2.5815,2.6881,2.8402,3.0939,3.1486,3.2596,3.6489,3.6168,3.5617,3.704,3.6168,3.5691,3.704,3.7796,3.8202,3.8202,3.8202,3.8202,3.8202,3.8202,3.8202,3.8202,3.8202,3.8202,3.8202,3.8202,3.8202,3.8202,3.8202,3.8202,3.8202,3.8797,3.9379,3.9889,4.0478,4.1055,4.1588,4.1588,4.1948,4.2585,4.2585,4.2925,4.3495,4.3495,4.3495,4.3555,4.4202,4.4852,4.5371,4.5371,4.5371,4.5371,4.5371,4.5371,4.5371,4.5423,4.5423,4.5423,4.5423,4.5423,4.5423,4.5423,4.5476,4.5632,4.5632,4.5684,4.5787,4.5787,4.6119,4.6578,4.7044,4.7176,4.7176,4.7176,4.7176,4.7176,4.7176,4.7176,4.7176,4.7176,4.7596,4.7919,4.7919,4.8421,4.8787,4.8787,4.8857,4.9027,4.9352,4.9415,4.9499,4.9776,4.9803,4.9803,4.9803,4.9803,5.0062,5.0682,5.0702,5.0702,5.0702,5.0702,5.0776,5.0906,5.0906,5.0918,5.1008,5.1008,5.1008,1.8818,2.1536,2.4456,2.4597,2.7378,3.036,3.1548,3.2673,3.4169,3.6552,3.7139,3.6939,3.5746,3.6524,3.7089,3.6532,3.7394,3.8202,3.8202,3.8202,3.8202,3.8202,3.8202,3.8202,3.8202,3.8202,3.8202,3.8202,3.8202,3.8202,3.8202,3.8202,3.8202,3.8202,3.8797,3.9162,3.9379,3.992,4.027,4.0378,4.082,4.1323,4.1916,4.1916,4.2269,4.2863,4.2863,4.3108,4.3529,4.3706,4.3881,4.4054,4.4054,4.4054,4.4112,4.4597,4.4797,4.4852,4.5264,4.5423,4.5423,4.5423,4.5423,4.5423,4.5423,4.5423,4.5476,4.5476,4.5476,4.5528,4.5528,4.5598,4.5803,4.602,4.6035,4.6133,4.6424,4.6753,4.699,4.7044,4.7638,4.8035,4.772,4.8078,4.8383,4.8383,4.8532,4.8642,4.8642,4.8787,4.8892,4.8996,4.9027,4.9094,4.9155,4.9155,4.9283,4.9499,4.9529,4.9665,5.0038,5.0062,5.0174,5.0358,5.0358,5.0466,5.0758,5.0858,5.0898,5.0942,5.0959,5.1008,2.1271,2.4063,2.6764,2.7085,2.8961,3.1017,3.2053,3.3472,3.4863,3.6147,3.657,3.6452,3.535,3.6059,3.6606,3.6003,3.6592,3.7309,3.7644,3.7644,3.7796,3.8127,3.8202,3.8202,3.8202,3.8202,3.8202,3.8202,3.8202,3.8202,3.8202,3.8202,3.8202,3.8202,3.8797,3.909,3.909,3.9636,4.003,4.027,4.0646,4.1055,4.1588,4.1588,4.1851,4.2206,4.2206,4.2585,4.3169,4.3169,4.329,4.3495,4.3495,4.3495,4.3588,4.3939,4.4112,4.4112,4.4541,4.4652,4.4652,4.4652,4.4652,4.4708,4.4961,4.5015,4.5069,4.5318,4.5423,4.5423,4.5423,4.5423,4.5423,4.5528,4.5528,4.5581,4.5803,4.6119,4.6328,4.6341,4.6855,4.7168,4.6945,4.747,4.7919,4.7919,4.8269,4.8569,4.8605,4.8678,4.8714,4.8714,4.875,4.8785,4.8785,4.882,4.8962,4.916,4.9193,4.9252,4.9431,4.9693,4.9884,5.0038,5.0159,5.0313,5.0504,5.072,5.0808,5.0808,5.0867,5.0874,2.6291,2.8385,3.0164,3.1281,3.0844,3.0707,3.2368,3.3684,3.4657,3.5251,3.5087,3.4952,3.5359,3.5115,3.4952,3.5547,3.5628,3.5869,3.6766,3.6922,3.726,3.8127,3.8202,3.8202,3.8202,3.8202,3.8202,3.8202,3.8202,3.8202,3.8202,3.8202,3.8202,3.8202,3.8723,3.9017,3.9017,3.9493,4.006,4.0578,4.0646,4.0919,4.1456,4.1522,4.1588,4.1588,4.1588,4.198,4.2522,4.2522,4.2802,4.3317,4.3317,4.3317,4.3317,4.341,4.341,4.3436,4.3495,4.3495,4.3495,4.3495,4.3495,4.3614,4.4259,4.4373,4.4485,4.5069,4.523,4.523,4.523,4.523,4.523,4.523,4.5318,4.5423,4.5423,4.5423,4.5476,4.5423,4.5476,4.5528,4.5476,4.6266,4.689,4.689,4.7752,4.8382,4.8495,4.8495,4.8532,4.8605,4.8605,4.8605,4.8605,4.8678,4.8787,4.8787,4.8857,4.8855,4.8855,4.9401,4.9749,4.9776,5.0038,5.0183,5.0206,5.0525,5.0702,5.0702,5.0702,5.0702,2.1348,2.4325,2.7582,2.8689,2.9732,3.0624,3.1059,3.1647,3.2504,3.3723,3.4741,3.5251,3.4759,3.5062,3.5493,3.5601,3.5628,3.5869,3.6766,3.6922,3.726,3.8127,3.8202,3.8202,3.8202,3.8202,3.8202,3.8202,3.8202,3.8202,3.8202,3.8202,3.8202,3.8202,3.8352,3.8427,3.8427,3.8501,3.862,3.8767,3.9235,3.9707,4.0309,4.1158,4.1588,4.1588,4.1588,4.1654,4.1851,4.1851,4.1884,4.2013,4.2013,4.2013,4.2077,4.2585,4.2802,4.2863,4.335,4.3495,4.3495,4.3495,4.3495,4.3495,4.3706,4.3706,4.3764,4.3881,4.3939,4.3939,4.3939,4.3939,4.3939,4.3939,4.4652,4.5423,4.5423,4.5701,4.5905,4.5476,4.602,4.6459,4.607,4.6507,4.689,4.689,4.7107,4.7378,4.7756,4.7915,4.8114,4.8494,4.8569,4.8605,4.8605,4.8642,4.8642,4.8642,4.8678,4.8678,4.8678,4.8922,4.922,4.9469,4.9749,5.0012,5.0206,5.0483,5.0663,5.0702,5.0663,5.0642,2.152,2.4271,2.6846,2.825,2.9322,3.0049,3.0049,3.0553,3.1271,3.1928,3.3342,3.4288,3.381,3.4121,3.4345,3.4236,3.4262,3.4485,3.5224,3.5386,3.5709,3.666,3.6816,3.6816,3.6922,3.7,3.6922,3.6816,3.7309,3.7491,3.7183,3.7672,3.7825,3.7596,3.7596,3.7596,3.7596,3.7596,3.772,3.8023,3.8323,3.8738,3.9361,4.0925,4.1588,4.1588,4.1588,4.1588,4.1588,4.1588,4.1588,4.1588,4.1588,4.1588,4.1654,4.1948,4.2142,4.2142,4.249,4.2615,4.2615,4.2615,4.2615,4.2678,4.2986,4.3047,4.3108,4.341,4.3495,4.3495,4.3495,4.3495,4.3495,4.3495,4.3997,4.4597,4.4906,4.5196,4.5407,4.5423,4.5854,4.6119,4.5854,4.6217,4.6649,4.688,4.689,4.6981,4.7248,4.7335,4.7464,4.771,4.7756,4.7879,4.8078,4.8192,4.8307,4.8532,4.8569,4.8605,4.8605,4.8714,4.8855,4.899,4.9309,4.9512,4.9683,4.9924,5.0087,5.0135,5.0268,5.0291,2.2186,2.4704,2.6641,2.8631,2.9209,2.9341,2.9341,3.0019,3.0598,3.0598,3.183,3.2943,3.2943,3.2932,3.2896,3.2723,3.2636,3.2871,3.359,3.3674,3.4069,3.5142,3.5224,3.5305,3.5467,3.5548,3.5467,3.5224,3.6029,3.6373,3.5976,3.6794,3.7211,3.6978,3.6978,3.6978,3.6978,3.6978,3.7183,3.7691,3.7767,3.804,3.8605,4.0347,4.1158,4.1292,4.1292,4.139,4.1522,4.1522,4.1522,4.1522,4.1522,4.1522,4.1522,4.1522,4.1522,4.1522,4.1522,4.1588,4.1588,4.1588,4.1588,4.172,4.2206,4.2396,4.2459,4.2986,4.3108,4.3108,4.3108,4.3108,4.3108,4.3108,4.3108,4.3317,4.4145,4.4316,4.4485,4.5123,4.5318,4.5423,4.5423,4.5752,4.6168,4.6566,4.6613,4.666,4.6788,4.6788,4.6835,4.689,4.689,4.7071,4.7464,4.7548,4.7793,4.819,4.8269,4.8345,4.8421,4.8421,4.8458,4.8569,4.8885,4.9085,4.9085,4.9363,4.9475,4.9504,4.9792,4.9898,1.7462,2.1259,2.5562,2.8415,2.9131,2.9131,2.9131,2.9998,3.0762,3.0762,3.1447,3.2087,3.2087,3.2314,3.2487,3.2487,3.2487,3.2723,3.359,3.3674,3.3985,3.4897,3.5061,3.5061,3.5061,3.5061,3.5061,3.5061,3.5142,3.5467,3.5976,3.6136,3.648,3.6978,3.6978,3.6978,3.6978,3.6978,3.7056,3.7134,3.7539,3.7814,3.7965,3.8752,3.9505,4.01,4.01,4.0478,4.1185,4.1185,4.1185,4.1185,4.1185,4.1185,4.1185,4.1185,4.1221,4.1323,4.1323,4.1456,4.1588,4.1588,4.1588,4.1588,4.1522,4.1456,4.1456,4.139,4.1421,4.1421,4.1421,4.1421,4.1421,4.1421,4.1421,4.1851,4.3317,4.3647,4.3823,4.4485,4.5015,4.5423,4.5423,4.5476,4.5528,4.5598,4.5598,4.5752,4.6217,4.6266,4.6459,4.688,4.689,4.6926,4.6981,4.6981,4.7026,4.7115,4.7115,4.7291,4.7715,4.7715,4.7919,4.8344,4.8816,4.9085,4.9085,4.9302,4.9445,4.9504,4.9475,4.9475,1.8641,2.2306,2.5803,2.8875,2.9715,2.9797,2.9797,3.0327,3.0753,3.0753,3.1196,3.1663,3.2068,3.2315,3.2313,3.2225,3.2225,3.2288,3.25,3.2587,3.276,3.3275,3.336,3.336,3.353,3.353,3.3615,3.3843,3.4511,3.5006,3.5277,3.5871,3.627,3.627,3.627,3.627,3.627,3.627,3.627,3.627,3.648,3.661,3.661,3.6894,3.7785,3.9218,3.9218,3.9433,3.9748,3.9748,3.9748,3.9819,4.027,4.0439,4.0509,4.095,4.1185,4.1221,4.1221,4.1221,4.1288,4.1288,4.1288,4.1288,4.1221,4.1221,4.1153,4.1117,4.1117,4.1117,4.1117,4.1117,4.1117,4.1117,4.1117,4.1288,4.2013,4.2707,4.3436,4.4202,4.4373,4.4451,4.4852,4.4906,4.5015,4.5371,4.5318,4.5389,4.5701,4.5701,4.5752,4.602,4.607,4.6168,4.6507,4.6507,4.6649,4.6845,4.689,4.6981,4.7204,4.7204,4.7291,4.7506,4.8271,4.8641,4.8641,4.8746,4.8779,4.8813,4.8982,4.908,1.8938,2.1868,2.4116,2.7941,2.9186,2.9605,3.0181,3.0542,3.0783,3.0783,3.1053,3.1477,3.2127,3.2201,3.2138,3.1937,3.1937,3.1849,3.1761,3.1673,3.1761,3.1937,3.1937,3.2025,3.2201,3.2376,3.2636,3.2871,3.3843,3.4511,3.4703,3.5467,3.5898,3.571,3.571,3.571,3.571,3.571,3.571,3.571,3.571,3.571,3.571,3.571,3.6531,3.7936,3.8161,3.8605,3.9145,3.8928,3.9,3.9218,3.9819,4.006,4.013,4.0746,4.095,4.1018,4.1018,4.1049,4.1117,4.1117,4.1117,4.1117,4.1049,4.1018,4.1018,4.0982,4.0982,4.0982,4.0982,4.0982,4.0982,4.0982,4.0982,4.0982,4.1049,4.1981,4.2953,4.3588,4.3529,4.3555,4.4259,4.4373,4.4597,4.5211,4.5211,4.5211,4.5264,4.5211,4.5177,4.5318,4.5318,4.5494,4.587,4.6005,4.6119,4.6507,4.6554,4.6602,4.6742,4.6742,4.6788,4.6926,4.7591,4.7955,4.7955,4.8035,4.8114,4.8114,4.8495,4.8676,1.5351,1.6813,1.8627,2.4258,2.6294,2.7415,2.9666,3.0555,3.0917,3.0917,3.1351,3.1713,3.1761,3.1761,3.1761,3.1761,3.1761,3.1761,3.1673,3.1673,3.1673,3.1761,3.1761,3.1761,3.1761,3.2288,3.2723,3.2723,3.3386,3.4037,3.4647,3.4812,3.5059,3.571,3.571,3.571,3.571,3.571,3.571,3.571,3.571,3.571,3.571,3.571,3.579,3.5871,3.661,3.8264,4.037,3.9606,3.9677,4.037,4.0439,4.047,4.047,4.0539,4.0677,4.0814,4.0814,4.095,4.1117,4.1117,4.1117,4.1049,4.0882,4.0814,4.0814,4.0608,4.0539,4.0539,4.0539,4.0539,4.0539,4.0539,4.0539,4.0608,4.1049,4.1623,4.2045,4.2109,4.2613,4.3224,4.3905,4.4054,4.4226,4.4906,4.5015,4.5049,4.5049,4.5015,4.5049,4.5049,4.5123,4.523,4.523,4.5371,4.5476,4.5476,4.5476,4.5701,4.6253,4.6253,4.6459,4.689,4.6936,4.6936,4.6936,4.7421,4.7632,4.7632,4.8114,4.8344,1.4842,1.6332,1.7904,2.2343,2.5182,2.7158,2.8268,3.0,3.1384,3.1384,3.1529,3.1673,3.1673,3.1673,3.1673,3.1673,3.1673,3.1673,3.1673,3.1673,3.1673,3.1673,3.1673,3.1673,3.1673,3.1937,3.2288,3.2636,3.33,3.3979,3.462,3.5141,3.5467,3.571,3.571,3.571,3.571,3.571,3.571,3.571,3.571,3.571,3.571,3.571,3.6031,3.648,3.6243,3.661,3.7386,3.7155,3.7155,3.7434,3.7994,3.8487,3.9,3.9535,4.006,4.0608,4.0608,4.0677,4.0746,4.0746,4.0746,4.0677,4.0677,4.0608,4.0608,4.0539,4.0539,4.0539,4.0539,4.0539,4.0539,4.0539,4.0539,4.0539,4.0677,4.0987,4.1358,4.1787,4.1787,4.1981,4.2613,4.2737,4.3103,4.4169,4.4316,4.4429,4.4906,4.494,4.4886,4.4995,4.5015,4.5069,4.5069,4.5103,4.5157,4.5157,4.5157,4.523,4.5441,4.5441,4.5511,4.5666,4.5666,4.6084,4.689,4.7071,4.716,4.716,4.7632,4.7875,1.3585,1.4902,1.6483,2.038,2.286,2.486,2.7198,2.8975,3.0372,3.124,3.1529,3.1673,3.1673,3.1673,3.1673,3.1673,3.1961,3.2082,3.1721,3.1817,3.1865,3.1697,3.1673,3.1673,3.1673,3.1937,3.2176,3.2636,3.33,3.3979,3.462,3.5141,3.5467,3.571,3.571,3.571,3.571,3.571,3.571,3.571,3.571,3.571,3.571,3.571,3.6031,3.648,3.5951,3.6031,3.6452,3.6243,3.6243,3.6531,3.7078,3.7663,3.8161,3.8708,3.9247,3.9677,3.9677,3.9677,3.9778,3.999,4.0091,4.0161,4.0439,4.0539,4.0539,4.0539,4.0539,4.0539,4.0539,4.0539,4.0539,4.0539,4.0539,4.0539,4.0539,4.0578,4.0851,4.1292,4.1122,4.1122,4.169,4.182,4.2173,4.3317,4.3436,4.3588,4.4112,4.4054,4.4088,4.4169,4.4429,4.4631,4.4631,4.4852,4.4995,4.4995,4.4995,4.4995,4.4995,4.4995,4.4995,4.4995,4.4995,4.5407,4.628,4.6613,4.6799,4.689,4.7506,4.7834,0.0,0.0,0.0,1.8176,1.9041,2.0421,2.6462,2.7301,2.7608,3.0241,3.1168,3.1577,3.1649,3.1697,3.1721,3.1721,3.2587,3.2899,3.1817,3.2154,3.2322,3.1745,3.1673,3.1673,3.1673,3.2288,3.2723,3.2723,3.33,3.3953,3.462,3.4729,3.5059,3.5737,3.5764,3.5764,3.5764,3.5764,3.5764,3.5764,3.5764,3.5737,3.5737,3.5737,3.571,3.571,3.571,3.661,3.7936,3.7232,3.7281,3.8011,3.8011,3.8011,3.8086,3.8086,3.8086,3.8086,3.8086,3.8086,3.8235,3.9,3.932,3.9391,4.0231,4.0439,4.0439,4.0439,4.0439,4.0439,4.047,4.047,4.0539,4.0539,4.0539,4.0539,4.0539,4.0539,4.0539,4.0539,4.0539,4.0715,4.1327,4.1459,4.1722,4.2395,4.2458,4.2458,4.252,4.252,4.252,4.252,4.329,4.3764,4.3764,4.4519,4.4995,4.4995,4.4995,4.4995,4.4995,4.4995,4.4995,4.4995,4.4995,4.4995,4.4995,4.5985,4.6613,4.6845,4.7747,4.8151,1.0486,0.0,0.0,0.0,0.0,0.0,2.0227,2.2207,2.426,2.6948,2.8211,2.9388,3.1312,3.2298,3.2851,3.2851,3.2779,3.2466,3.1769,3.2466,3.2731,3.1769,3.201,3.2106,3.1697,3.1849,3.2025,3.2025,3.2612,3.33,3.3953,3.5292,3.6196,3.6361,3.6795,3.7039,3.7039,3.7039,3.7039,3.7039,3.6578,3.6361,3.6334,3.59,3.571,3.571,3.571,3.5951,3.6401,3.6084,3.6163,3.6373,3.6373,3.6688,3.7232,3.7232,3.7587,3.8161,3.8782,3.8561,3.8235,3.9,3.8928,3.8487,3.8708,3.8782,3.8782,3.8782,3.8782,3.8928,3.9463,4.006,4.0539,4.0539,4.0539,4.0539,4.0539,4.0539,4.0539,4.0539,4.0539,4.0578,4.0783,4.0783,4.1024,4.1656,4.1787,4.1949,4.2458,4.252,4.252,4.252,4.2707,4.3075,4.3529,4.3764,4.4145,4.4665,4.472,4.472,4.472,4.472,4.472,4.472,4.472,4.4776,4.4831,4.523,4.5459,4.5563,4.6098,4.6774,1.0926,1.1305,1.1976,1.2738,0.0,0.0,1.8826,2.0794,2.3051,2.7049,2.8674,2.9845,3.1384,3.2178,3.2611,3.2611,3.2539,3.2466,3.237,3.2899,3.2971,3.2106,3.2298,3.237,3.2034,3.201,3.201,3.201,3.2366,3.2896,3.3568,3.5201,3.6199,3.6538,3.6887,3.716,3.7528,3.7528,3.7528,3.7528,3.7148,3.6985,3.6985,3.6632,3.6469,3.6469,3.6469,3.6334,3.609,3.609,3.5954,3.571,3.571,3.6031,3.6401,3.6401,3.6688,3.7204,3.7663,3.751,3.7281,3.8413,3.8264,3.7738,3.8413,3.8635,3.8635,3.8635,3.8855,3.9145,3.9247,3.992,4.0539,4.0539,4.0539,4.0539,4.0539,4.0539,4.0539,4.0539,4.0539,4.0539,4.0539,4.0539,4.0646,4.1024,4.1091,4.1194,4.1656,4.1656,4.1656,4.1656,4.2141,4.2645,4.3075,4.3588,4.4179,4.4587,4.4587,4.4587,4.4587,4.4587,4.4587,4.4587,4.4587,4.4643,4.472,4.5015,4.5249,4.5563,4.5835,4.6257,1.2025,1.2499,1.3227,1.3957,1.3332,0.0,1.949,2.0665,2.2071,2.7427,2.938,3.0252,3.0539,3.0706,3.0865,3.0865,3.1536,3.228,3.302,3.326,3.3164,3.2563,3.2611,3.2635,3.2515,3.2491,3.2491,3.2491,3.2653,3.2925,3.3529,3.4743,3.576,3.6463,3.6603,3.6917,3.7718,3.7718,3.7718,3.7718,3.7663,3.7636,3.7636,3.7555,3.7528,3.7528,3.7528,3.7229,3.6714,3.6714,3.6307,3.571,3.571,3.571,3.571,3.571,3.571,3.571,3.579,3.579,3.5951,3.751,3.7434,3.7,3.8487,3.8928,3.8928,3.8928,3.9463,3.992,3.9247,3.9707,4.037,4.037,4.0439,4.0539,4.0539,4.047,4.047,4.047,4.047,4.0539,4.0539,4.0539,4.0539,4.0539,4.0539,4.0539,4.0539,4.0539,4.0539,4.0539,4.1591,4.2332,4.2395,4.3562,4.4327,4.4384,4.4384,4.4384,4.4384,4.444,4.4497,4.4497,4.4587,4.4587,4.4587,4.5035,4.5528,4.6098,4.6098,4.6196,1.2288,1.2557,1.3306,1.2698,1.2661,0.0,1.3931,1.4445,1.5529,1.8473,1.9868,2.1216,2.341,2.47,2.55,2.5477,2.7441,2.9691,3.168,3.3092,3.3549,3.2611,3.3236,3.3404,3.2587,3.2491,3.2491,3.2491,3.3423,3.4008,3.4099,3.5325,3.6328,3.7069,3.7632,3.8229,3.8966,3.8966,3.8966,3.8939,3.8477,3.8233,3.8233,3.7745,3.7528,3.7528,3.7528,3.7473,3.7338,3.7338,3.6714,3.571,3.571,3.571,3.571,3.571,3.571,3.579,3.648,3.6243,3.5871,3.6844,3.6638,3.6031,3.6322,3.6401,3.6401,3.6401,3.7,3.7539,3.7386,3.8413,3.9535,3.9535,3.999,4.0539,4.0539,4.0401,4.0331,4.0331,4.0401,4.0539,4.0539,4.0539,4.0539,4.0539,4.0539,4.0539,4.0539,4.0539,4.0539,4.0539,4.0715,4.1091,4.1656,4.1981,4.2332,4.2892,4.2892,4.2892,4.2892,4.341,4.3706,4.3706,4.4293,4.4587,4.4587,4.4665,4.4797,4.4906,4.4906,4.5142,1.2827,1.2958,1.3756,1.2687,1.2577,0.0,0.0,1.4473,1.5594,1.8721,1.9639,2.0423,2.2192,2.2737,2.3112,2.3504,2.5515,2.7233,2.7664,3.0461,3.23,3.1783,3.2183,3.23,3.1783,3.1736,3.1854,3.2112,3.2865,3.3315,3.3315,3.474,3.5787,3.6555,3.7416,3.8213,3.8962,3.8962,3.8962,3.8962,3.8639,3.8505,3.8505,3.8209,3.8075,3.8075,3.8075,3.7913,3.7644,3.7704,3.7277,3.6466,3.6549,3.6632,3.6632,3.6632,3.6415,3.6225,3.6631,3.6197,3.571,3.648,3.6243,3.5629,3.6004,3.6163,3.6163,3.6004,3.661,3.7078,3.6688,3.751,3.8413,3.8413,3.8708,3.903,3.903,3.8957,3.903,3.9421,3.9565,3.9707,4.0191,4.0261,4.0261,4.0401,4.0401,4.0401,4.047,4.0539,4.0539,4.0539,4.0783,4.1158,4.1459,4.182,4.2141,4.2458,4.252,4.252,4.252,4.2831,4.3015,4.3015,4.3706,4.403,4.403,4.444,4.4587,4.4587,4.4587,4.472,1.3881,1.3847,1.4634,1.3241,1.3074,1.3549,0.0,0.0,0.0,1.9768,2.0203,2.0226,2.0849,2.0573,2.049,2.1063,2.3055,2.4033,2.2708,2.6394,2.9347,2.9731,3.0606,3.102,3.0514,3.0399,3.0606,3.1525,3.1685,3.1938,3.242,3.3906,3.5162,3.5928,3.6922,3.7874,3.8602,3.8602,3.8602,3.8602,3.8602,3.8602,3.8602,3.8602,3.8602,3.8602,3.8602,3.8336,3.7909,3.8086,3.788,3.7424,3.7466,3.7528,3.7528,3.7528,3.7118,3.6685,3.6549,3.6033,3.5629,3.6111,3.5843,3.5467,3.6084,3.6322,3.6322,3.6136,3.6531,3.6894,3.6215,3.6688,3.7281,3.7281,3.7357,3.751,3.751,3.7434,3.7663,3.8264,3.8339,3.8738,3.9839,4.0011,4.0081,4.0222,4.0261,4.0261,4.0401,4.0401,4.0401,4.0401,4.0888,4.1194,4.1194,4.169,4.2013,4.2078,4.2078,4.2078,4.2141,4.2269,4.2332,4.2458,4.3015,4.3317,4.3317,4.3914,4.4327,4.4587,4.4587,4.4587,1.5845,1.568,1.6175,1.4231,1.4286,1.4514,1.3349,0.0,1.3275,1.3723,0.0,1.3233,1.3328,0.0,0.0,1.3918,1.6742,1.8805,1.8184,2.0773,2.3296,2.5043,2.908,3.0836,2.8665,2.8041,2.8757,3.0882,2.9961,3.0214,3.2351,3.3906,3.5162,3.5928,3.6922,3.7874,3.8602,3.8602,3.8602,3.8602,3.8602,3.8602,3.8602,3.8602,3.8602,3.8602,3.8602,3.8575,3.8496,3.8496,3.8469,3.8399,3.779,3.7528,3.7528,3.7528,3.7304,3.7026,3.6545,3.6163,3.5778,3.541,3.5249,3.5168,3.5223,3.5223,3.5223,3.5223,3.5304,3.5386,3.5223,3.5843,3.6452,3.6452,3.6972,3.751,3.751,3.7357,3.7281,3.7357,3.7204,3.7738,3.9696,4.0011,4.0011,4.0011,4.0011,4.0081,4.0051,4.0081,4.0081,4.0081,4.0121,4.0191,4.0191,4.0261,4.0401,4.0509,4.0539,4.0578,4.0715,4.126,4.182,4.2332,4.252,4.2645,4.2645,4.2707,4.335,4.4587,4.4587,4.4587,1.5806,1.6534,1.7624,1.4625,1.526,1.5884,1.3299,1.2531,1.2466,1.2935,0.0,0.0,0.0,0.0,0.0,0.0,1.5467,1.6967,1.5879,1.9081,2.1875,2.2697,2.4655,2.599,2.6371,2.6505,2.7495,2.9952,2.8768,2.8991,3.1448,3.3613,3.4969,3.5259,3.6828,3.79,3.8175,3.8175,3.8175,3.8175,3.8175,3.8175,3.8175,3.8175,3.8175,3.8175,3.8175,3.8175,3.8148,3.833,3.8395,3.8342,3.822,3.8121,3.8121,3.8121,3.7819,3.7411,3.723,3.6764,3.6247,3.6008,3.5929,3.5929,3.5929,3.5929,3.5844,3.5732,3.5437,3.5173,3.5173,3.5243,3.5196,3.5196,3.5494,3.5736,3.5736,3.5655,3.5709,3.6188,3.6267,3.666,3.7965,3.862,3.9017,3.906,3.9523,3.9839,4.0011,4.0011,4.0011,4.0011,4.0011,4.0011,4.0011,4.0011,4.0081,4.0152,4.0152,4.0121,4.0191,4.0439,4.0783,4.0956,4.1393,4.1625,4.1625,4.2013,4.2583,4.329,4.335,4.3588,1.6607,1.7411,1.8375,1.4944,1.5415,1.6088,1.3427,1.2833,1.2931,1.3359,1.3227,0.0,0.0,0.0,1.2808,1.3457,0.0,1.5732,1.4503,1.7377,1.9659,1.979,2.0402,2.1691,2.3962,2.3919,2.5011,2.8069,2.6846,2.7371,3.071,3.3212,3.4559,3.4559,3.6752,3.7808,3.7505,3.7716,3.79,3.79,3.79,3.79,3.79,3.79,3.79,3.79,3.79,3.79,3.79,3.8057,3.8122,3.8148,3.833,3.8421,3.8421,3.8512,3.8246,3.7847,3.7714,3.7061,3.6384,3.6384,3.6384,3.6384,3.6384,3.6384,3.6384,3.6184,3.5809,3.5521,3.5521,3.5182,3.4868,3.4868,3.4868,3.4816,3.4685,3.4633,3.4748,3.5223,3.5359,3.5494,3.6108,3.7155,3.7843,3.7965,3.8517,3.8987,3.9133,3.9133,3.9235,3.9481,3.9481,3.9625,3.9798,3.9869,3.9869,3.991,4.0011,4.0011,3.991,4.0011,4.0011,3.991,4.0439,4.0752,4.0752,4.1194,4.1494,4.169,4.2205,4.2707,1.9347,1.8632,1.8009,1.5203,1.4524,1.4352,1.3412,1.3985,1.4547,1.3898,1.4602,1.5021,1.4134,1.3961,1.3912,1.3912,1.4274,0.0,0.0,1.429,1.4788,1.5247,1.7366,1.955,2.1516,1.9615,2.0227,2.4945,2.3547,2.4925,3.0629,3.2842,3.3982,3.3887,3.6523,3.7413,3.6307,3.7413,3.79,3.79,3.79,3.79,3.79,3.79,3.79,3.79,3.79,3.79,3.79,3.79,3.79,3.79,3.79,3.79,3.7992,3.8421,3.8395,3.8107,3.758,3.6796,3.6096,3.6096,3.6096,3.6096,3.6096,3.6096,3.6096,3.6096,3.6096,3.607,3.607,3.607,3.6044,3.6044,3.6044,3.5913,3.5391,3.526,3.5103,3.4502,3.4481,3.4481,3.4481,3.5869,3.6972,3.6972,3.6944,3.6944,3.6972,3.6972,3.7281,3.8202,3.8277,3.8575,3.9337,3.9409,3.9481,3.9696,3.991,3.991,3.9696,3.991,3.991,3.9696,3.991,4.0011,4.0011,4.0051,4.0081,4.0121,4.1656,4.2395,2.2661,2.3338,2.3368,1.9293,1.8574,1.8087,1.4935,1.4288,1.4233,1.3901,1.4653,1.5215,1.458,1.448,1.432,1.3962,1.4233,1.4314,0.0,1.414,1.4439,1.4613,1.6754,1.8501,1.9157,1.9921,2.1712,2.4923,2.488,2.625,2.9764,3.1892,3.3001,3.3001,3.5441,3.6709,3.6307,3.7413,3.79,3.79,3.79,3.79,3.79,3.79,3.79,3.79,3.79,3.79,3.79,3.79,3.79,3.79,3.79,3.79,3.79,3.8083,3.8083,3.7887,3.731,3.6708,3.6096,3.6096,3.6384,3.6698,3.6698,3.6985,3.7299,3.7299,3.7011,3.6698,3.6698,3.641,3.6096,3.6096,3.6096,3.6044,3.5861,3.5835,3.5783,3.5574,3.5521,3.5521,3.5521,3.6008,3.6302,3.6166,3.6582,3.6894,3.6894,3.6894,3.7049,3.7281,3.7386,3.7691,3.8501,3.9119,3.9192,3.8723,3.9265,3.9553,3.9481,3.9553,3.9553,3.9481,3.9553,3.9625,3.9625,3.9625,3.9696,3.9839,4.0339,4.0925,2.4616,2.5624,2.5909,2.2175,2.1535,2.0824,1.7036,1.6366,1.6433,1.5936,1.6131,1.6626,1.7719,1.6378,1.5231,1.58,1.5236,1.458,0.0,1.4233,1.4373,1.4373,1.5771,1.706,1.7933,1.848,2.0555,2.4858,2.4508,2.5766,2.9591,3.1354,3.219,3.2167,3.4868,3.6118,3.5738,3.7201,3.7716,3.732,3.7716,3.7716,3.732,3.7716,3.79,3.79,3.79,3.79,3.79,3.79,3.79,3.79,3.79,3.79,3.79,3.79,3.79,3.7821,3.722,3.675,3.6384,3.6175,3.6358,3.6671,3.6671,3.6959,3.7273,3.7273,3.7142,3.7011,3.7011,3.6881,3.675,3.675,3.675,3.6698,3.6462,3.6436,3.6358,3.6149,3.6096,3.6096,3.6096,3.6096,3.6008,3.5835,3.628,3.6524,3.6385,3.6358,3.6356,3.6452,3.6738,3.7357,3.8501,3.8826,3.887,3.8649,3.8797,3.9119,3.9409,3.9409,3.9409,3.9409,3.9409,3.9409,3.9409,3.9409,3.9481,3.9625,3.9625,3.9879]},{"header":{"parameterUnit":"m.s-1","parameterCategory":1,"la1":30.6,"la2":29.2853,"lo1":-89.7004,"lo2":-87.6739,"dx":0.0162,"dy":0.0183,"nx":112,"ny":82,"refTime":"2022-12-15T06:00:00:Z","depth":0,"parameterNumber":3,"parameterNumberName":"V-component_of_WINDS"},"data":[0.0,0.0,0.0,0.0,0.0,0.0,0.0,0.0,0.0,0.0,0.0,0.0,0.0,0.0,0.0,0.0,0.0,0.0,0.0,0.0,0.0,0.0,0.0,0.0,0.0,0.0,0.0,0.0,0.0,0.0,0.0,0.0,0.0,0.0,0.0,0.0,0.0,0.0,0.0,0.0,0.0,0.0,0.0,0.0,0.0,0.0,0.0,0.0,0.0,0.0,0.0,0.0,0.0,0.0,0.0,0.0,0.0,0.0,0.0,0.0,0.0,0.0,0.0,0.0,0.0,0.0,0.0,0.0,0.0,0.0,0.0,0.0,0.0,0.0,0.0,0.0,0.0,0.0,0.0,0.0,0.0,0.0,0.0,0.0,0.0,0.0,0.0,0.0,0.0,0.0,-1.369,-1.4754,-1.6123,-1.6817,-1.6333,-1.5472,-1.3735,-1.0809,0.0,0.0,0.0,0.0,0.0,0.0,0.0,0.0,0.0,0.0,0.0,0.0,0.0,0.0,0.0,0.0,0.0,0.0,0.0,0.0,0.0,0.0,0.0,0.0,0.0,0.0,0.0,0.0,0.0,0.0,0.0,0.0,0.0,0.0,0.0,0.0,0.0,0.0,0.0,0.0,0.0,0.0,0.0,0.0,0.0,0.0,0.0,0.0,0.0,0.0,0.0,0.0,0.0,0.0,0.0,0.0,0.0,0.0,0.0,0.0,0.0,0.0,0.0,0.0,0.0,0.0,0.0,0.0,0.0,0.0,0.0,0.0,0.0,0.0,0.0,0.0,0.0,0.0,0.0,0.0,0.0,0.0,0.0,0.0,0.0,0.0,0.0,0.0,0.0,0.0,0.0,0.0,0.0,0.0,0.0,0.0,0.0,0.0,0.0,0.0,0.0,0.0,0.0,0.0,-1.3628,-1.5798,-1.678,-1.7081,-1.6381,-1.6186,-1.4698,-1.1543,0.0,0.0,0.0,0.0,0.0,0.0,0.0,0.0,0.0,0.0,0.0,0.0,0.0,0.0,0.0,0.0,0.0,0.0,0.0,0.0,0.0,0.0,0.0,0.0,0.0,0.0,0.0,0.0,0.0,0.0,0.0,0.0,0.0,0.0,0.0,0.0,0.0,0.0,0.0,0.0,0.0,0.0,0.0,0.0,0.0,0.0,0.0,0.0,0.0,0.0,0.0,0.0,0.0,0.0,0.0,0.0,0.0,0.0,0.0,0.0,0.0,0.0,0.0,0.0,0.0,0.0,0.0,0.0,0.0,0.0,0.0,0.0,0.0,0.0,0.0,0.0,0.0,0.0,0.0,0.0,0.0,0.0,0.0,0.0,0.0,0.0,0.0,0.0,0.0,0.0,0.0,0.0,0.0,0.0,0.0,0.0,0.0,0.0,0.0,0.0,0.0,0.0,0.0,-1.4216,-1.5615,-1.7955,-1.7731,-1.7352,-1.7276,-1.6478,-1.4649,-1.1719,-1.0882,0.0,0.0,0.0,0.0,0.0,0.0,0.0,0.0,0.0,0.0,0.0,0.0,0.0,0.0,0.0,0.0,0.0,0.0,0.0,0.0,0.0,0.0,0.0,0.0,0.0,0.0,0.0,0.0,0.0,0.0,0.0,0.0,0.0,0.0,0.0,0.0,0.0,0.0,0.0,0.0,0.0,0.0,0.0,0.0,0.0,0.0,0.0,0.0,0.0,0.0,0.0,0.0,0.0,0.0,0.0,0.0,0.0,0.0,0.0,0.0,0.0,0.0,0.0,0.0,0.0,0.0,0.0,0.0,0.0,0.0,0.0,0.0,0.0,0.0,0.0,0.0,0.0,0.0,0.0,0.0,0.0,0.0,0.0,0.0,0.0,0.0,0.0,0.0,0.0,0.0,0.0,0.0,0.0,0.0,0.0,0.0,0.0,0.0,0.0,0.0,0.0,0.0,-1.6788,-1.7885,-1.9727,-1.8562,-1.7807,-1.821,-1.6716,-1.4601,-1.1789,-1.1233,0.0,0.0,0.0,0.0,0.0,0.0,0.0,0.0,0.0,0.0,0.0,0.0,0.0,0.0,0.0,0.0,0.0,0.0,0.0,0.0,0.0,0.0,0.0,0.0,0.0,0.0,0.0,0.0,0.0,0.0,0.0,0.0,0.0,0.0,0.0,0.0,0.0,0.0,0.0,0.0,0.0,0.0,0.0,0.0,0.0,0.0,0.0,0.0,0.0,0.0,0.0,0.0,0.0,0.0,0.0,0.0,0.0,0.0,0.0,0.0,0.0,0.0,0.0,0.0,0.0,0.0,0.0,0.0,0.0,0.0,0.0,0.0,0.0,0.0,0.0,0.0,0.0,0.0,0.0,0.0,0.0,0.0,0.0,0.0,0.0,0.0,0.0,0.0,0.0,0.0,0.0,0.0,0.0,0.0,0.0,0.0,0.0,0.0,0.0,0.0,0.0,0.0,-1.7947,-1.9748,-2.0307,-1.9274,-1.8537,-1.8574,-1.7103,-1.4967,-1.2154,-1.136,0.0,0.0,0.0,0.0,0.0,0.0,0.0,0.0,0.0,0.0,0.0,0.0,0.0,0.0,0.0,0.0,0.0,0.0,0.0,0.0,0.0,0.0,0.0,0.0,0.0,0.0,0.0,0.0,0.0,0.0,0.0,0.0,0.0,0.0,0.0,0.0,0.0,0.0,0.0,0.0,0.0,0.0,0.0,0.0,0.0,0.0,0.0,0.0,0.0,0.0,0.0,0.0,0.0,0.0,0.0,0.0,0.0,0.0,0.0,0.0,0.0,0.0,0.0,0.0,0.0,0.0,0.0,0.0,0.0,0.0,0.0,0.0,0.0,0.0,0.0,0.0,0.0,0.0,0.0,0.0,0.0,0.0,0.0,0.0,0.0,0.0,0.0,0.0,0.0,0.0,0.0,0.0,0.0,0.0,0.0,0.0,0.0,0.0,0.0,0.0,0.0,0.0,-1.7761,-1.9541,-2.1114,-1.9658,-1.8702,-1.9017,-1.7473,-1.5237,-1.2202,0.0,0.0,0.0,0.0,0.0,0.0,0.0,0.0,0.0,0.0,0.0,0.0,0.0,0.0,0.0,0.0,0.0,0.0,0.0,0.0,0.0,0.0,0.0,0.0,0.0,0.0,0.0,0.0,0.0,0.0,0.0,0.0,0.0,0.0,0.0,0.0,0.0,0.0,0.0,0.0,0.0,0.0,0.0,0.0,0.0,0.0,0.0,0.0,0.0,0.0,0.0,0.0,0.0,0.0,0.0,0.0,0.0,0.0,0.0,0.0,0.0,0.0,0.0,0.0,0.0,0.0,0.0,0.0,0.0,0.0,0.0,0.0,0.0,0.0,0.0,0.0,0.0,0.0,0.0,0.0,0.0,0.0,0.0,0.0,0.0,0.0,0.0,0.0,0.0,0.0,0.0,0.0,0.0,0.0,0.0,0.0,0.0,0.0,0.0,0.0,0.0,0.0,-1.6084,-1.8071,-1.9872,-2.1424,-2.0002,-1.9028,-1.9054,-1.7746,-1.5525,-1.2377,0.0,0.0,0.0,0.0,0.0,0.0,0.0,0.0,0.0,0.0,0.0,0.0,0.0,0.0,0.0,0.0,0.0,0.0,0.0,0.0,0.0,0.0,0.0,0.0,0.0,0.0,0.0,0.0,0.0,0.0,0.0,0.0,0.0,0.0,0.0,0.0,0.0,0.0,0.0,0.0,0.0,0.0,0.0,0.0,0.0,0.0,0.0,0.0,0.0,0.0,0.0,0.0,0.0,0.0,0.0,0.0,0.0,0.0,0.0,0.0,0.0,0.0,0.0,0.0,0.0,0.0,0.0,0.0,0.0,0.0,0.0,0.0,0.0,0.0,0.0,0.0,0.0,0.0,0.0,0.0,0.0,0.0,0.0,0.0,0.0,0.0,0.0,0.0,0.0,0.0,0.0,0.0,0.0,0.0,0.0,0.0,0.0,0.0,0.0,0.0,0.0,0.0,-1.6208,-1.9168,-2.1114,-2.1114,-2.0372,-1.9525,-1.8687,-1.7821,-1.5953,0.0,0.0,0.0,0.0,0.0,0.0,0.0,0.0,0.0,0.0,0.0,0.0,0.0,0.0,0.0,0.0,0.0,0.0,0.0,0.0,0.0,0.0,0.0,0.0,0.0,0.0,0.0,0.0,0.0,0.0,0.0,0.0,0.0,0.0,0.0,0.0,0.0,0.0,0.0,0.0,0.0,0.0,0.0,0.0,0.0,0.0,0.0,0.0,0.0,0.0,0.0,0.0,0.0,0.0,0.0,0.0,0.0,0.0,0.0,0.0,0.0,0.0,0.0,0.0,0.0,0.0,0.0,0.0,0.0,0.0,0.0,0.0,0.0,0.0,0.0,0.0,0.0,0.0,0.0,0.0,0.0,0.0,0.0,0.0,0.0,0.0,0.0,0.0,0.0,0.0,0.0,0.0,0.0,0.0,0.0,0.0,0.0,0.0,0.0,0.0,0.0,0.0,0.0,-1.6249,-1.9437,-2.1487,-2.1155,-2.0372,-1.9525,-1.8687,-1.7821,-1.5836,-1.2406,0.0,0.0,0.0,0.0,0.0,0.0,0.0,0.0,0.0,0.0,0.0,0.0,0.0,0.0,0.0,0.0,0.0,0.0,0.0,0.0,0.0,0.0,0.0,0.0,0.0,0.0,0.0,0.0,0.0,0.0,0.0,0.0,0.0,0.0,0.0,0.0,0.0,0.0,0.0,0.0,0.0,0.0,0.0,0.0,0.0,0.0,0.0,0.0,0.0,0.0,0.0,0.0,0.0,0.0,0.0,0.0,0.0,0.0,0.0,0.0,0.0,0.0,0.0,0.0,0.0,0.0,0.0,0.0,0.0,0.0,0.0,0.0,0.0,0.0,0.0,0.0,0.0,0.0,0.0,0.0,0.0,0.0,0.0,0.0,0.0,0.0,0.0,0.0,0.0,0.0,0.0,0.0,0.0,0.0,0.0,0.0,0.0,0.0,0.0,0.0,0.0,0.0,-1.6498,-1.9665,-2.1631,-2.1155,-2.067,-1.9844,-1.8543,-1.7899,-1.6251,-1.3044,0.0,0.0,0.0,0.0,0.0,0.0,0.0,0.0,0.0,0.0,0.0,0.0,0.0,0.0,0.0,0.0,0.0,0.0,0.0,0.0,0.0,0.0,0.0,0.0,0.0,0.0,0.0,0.0,0.0,0.0,0.0,0.0,0.0,0.0,0.0,0.0,0.0,0.0,0.0,0.0,0.0,0.0,0.0,0.0,0.0,0.0,0.0,0.0,0.0,0.0,0.0,0.0,0.0,0.0,0.0,0.0,0.0,0.0,0.0,0.0,0.0,0.0,0.0,0.0,0.0,0.0,0.0,0.0,0.0,0.0,0.0,0.0,0.0,0.0,0.0,0.0,0.0,0.0,0.0,0.0,0.0,0.0,0.0,0.0,0.0,0.0,0.0,0.0,0.0,0.0,0.0,0.0,0.0,0.0,0.0,0.0,0.0,0.0,0.0,0.0,0.0,0.0,-1.6811,-1.9831,-2.1631,-2.1155,-2.1114,-2.0266,-1.8323,-1.8137,-1.7025,-1.4242,0.0,0.0,0.0,0.0,0.0,0.0,0.0,0.0,0.0,0.0,0.0,0.0,0.0,0.0,0.0,0.0,0.0,0.0,0.0,0.0,0.0,0.0,0.0,0.0,0.0,0.0,0.0,0.0,0.0,0.0,0.0,0.0,0.0,0.0,0.0,0.0,0.0,0.0,0.0,0.0,0.0,0.0,0.0,0.0,0.0,0.0,0.0,0.0,0.0,0.0,0.0,0.0,0.0,0.0,0.0,0.0,0.0,0.0,0.0,0.0,-0.7322,-0.7015,0.0,0.0,0.0,0.0,0.0,0.0,0.0,0.0,0.0,0.0,0.0,0.0,0.0,0.0,0.0,0.0,0.0,0.0,0.0,0.0,0.0,0.0,0.0,0.0,0.0,0.0,0.0,0.0,0.0,0.0,0.0,0.0,0.0,0.0,0.0,0.0,0.0,0.0,0.0,0.0,-1.6811,-1.9831,-2.1631,-2.1155,-2.1114,-2.0386,-1.8635,-1.8483,-1.7234,-1.4258,-1.3696,0.0,0.0,0.0,0.0,0.0,0.0,0.0,0.0,0.0,0.0,0.0,0.0,0.0,0.0,0.0,0.0,0.0,0.0,0.0,0.0,0.0,0.0,0.0,0.0,0.0,0.0,0.0,0.0,0.0,0.0,0.0,0.0,0.0,0.0,0.0,0.0,0.0,0.0,0.0,0.0,0.0,0.0,0.0,0.0,0.0,0.0,0.0,0.0,0.0,0.0,0.0,0.0,0.0,0.0,0.0,0.0,0.0,0.0,0.0,-0.7861,-0.7699,0.0,0.0,0.0,0.0,0.0,0.0,0.0,0.0,0.0,0.0,0.0,0.0,0.0,0.0,0.0,0.0,0.0,0.0,0.0,0.0,0.0,0.0,0.0,0.0,0.0,0.0,0.0,0.0,0.0,0.0,0.0,0.0,0.0,0.0,0.0,0.0,0.0,0.0,0.0,0.0,-1.7438,-2.0094,-2.1714,-2.1466,-2.1445,-2.0667,-1.8859,-1.8687,-1.764,-1.5231,-1.4315,0.0,0.0,0.0,0.0,0.0,0.0,0.0,0.0,0.0,0.0,0.0,0.0,0.0,0.0,0.0,0.0,0.0,0.0,0.0,0.0,0.0,0.0,0.0,0.0,0.0,0.0,0.0,0.0,0.0,0.0,0.0,0.0,0.0,0.0,0.0,0.0,0.0,0.0,0.0,0.0,0.0,0.0,0.0,0.0,0.0,0.0,0.0,0.0,0.0,0.0,0.0,0.0,0.0,-0.8874,-0.898,-0.898,-0.8648,-0.8846,-0.9483,-0.8494,-0.8562,-0.9124,-0.7623,0.0,0.0,0.0,0.0,0.0,0.0,0.0,0.0,0.0,0.0,0.0,0.0,0.0,0.0,0.0,0.0,0.0,0.0,0.0,0.0,0.0,0.0,-1.202,-1.2956,-1.3529,-1.3735,-1.2978,0.0,0.0,0.0,0.0,0.0,0.0,0.0,0.0,0.0,0.0,0.0,-1.8337,-2.0526,-2.1797,-2.1797,-2.188,-2.1221,-1.939,-1.9062,-1.8326,-1.6604,-1.5008,-1.3834,0.0,0.0,0.0,0.0,0.0,0.0,0.0,0.0,0.0,0.0,0.0,0.0,0.0,0.0,0.0,0.0,0.0,0.0,0.0,0.0,0.0,0.0,0.0,0.0,0.0,0.0,0.0,0.0,0.0,0.0,0.0,0.0,-0.5481,-0.6141,0.0,0.0,0.0,0.0,0.0,0.0,0.0,0.0,0.0,0.0,0.0,0.0,0.0,-0.8646,-0.8706,-0.9108,-0.9237,-0.9237,-0.9666,-0.9872,-0.9872,-0.9788,-0.9856,-0.9952,-0.9723,0.0,-0.9391,-0.9155,0.0,0.0,0.0,0.0,0.0,0.0,0.0,0.0,0.0,0.0,0.0,0.0,0.0,0.0,0.0,0.0,0.0,0.0,0.0,0.0,0.0,0.0,-1.4413,-1.5137,-1.5352,-1.5559,-1.6032,-1.4158,-1.2323,-1.1852,-1.197,-1.1796,0.0,0.0,0.0,0.0,0.0,0.0,-1.9281,-2.0918,-2.1797,-2.1797,-2.217,-2.1985,-2.0956,-2.0198,-1.9326,-1.8026,-1.691,-1.5591,-1.419,-1.2627,0.0,0.0,0.0,0.0,0.0,0.0,0.0,0.0,0.0,0.0,0.0,0.0,0.0,0.0,0.0,0.0,0.0,0.0,0.0,0.0,0.0,0.0,0.0,0.0,0.0,0.0,0.0,0.0,0.0,-0.4613,-0.4918,-0.5716,-0.5514,-0.5487,0.0,0.0,0.0,0.0,0.0,0.0,0.0,0.0,0.0,-0.9119,-0.914,-0.9249,-0.9463,-0.9616,-0.9732,-0.9732,-0.9942,-1.0038,-1.0038,-1.0038,-1.0038,-1.0038,-1.0038,-0.9913,-0.9692,-0.9203,-0.8786,-0.8388,0.0,0.0,0.0,0.0,-0.796,-0.7805,-0.8448,-0.85,-0.8275,-0.8358,0.0,0.0,0.0,0.0,0.0,0.0,0.0,-1.2396,-1.3662,-1.4456,-1.5212,-1.6098,-1.6237,-1.6319,-1.6648,-1.5726,-1.4541,-1.3638,-1.374,-1.3354,-1.1371,-1.1827,0.0,0.0,0.0,-1.7947,-1.9927,-2.1324,-2.219,-2.219,-2.2604,-2.2553,-2.1644,-2.0806,-1.9888,-1.8815,-1.7809,-1.6775,-1.5623,-1.4037,-1.2386,0.0,0.0,0.0,0.0,0.0,0.0,0.0,0.0,0.0,0.0,0.0,0.0,0.0,0.0,0.0,0.0,0.0,0.0,0.0,0.0,0.0,0.0,0.0,0.0,0.0,0.0,0.0,0.0,-0.4511,-0.4721,-0.5503,-0.5698,-0.588,0.0,0.0,0.0,0.0,0.0,0.0,-0.8907,-0.8904,-0.9061,-0.9546,-0.9566,-0.9725,-1.0028,-1.0038,-1.0038,-1.0038,-1.0038,-1.0038,-1.0038,-1.0038,-1.0038,-1.0038,-1.0038,-1.0038,-0.999,-0.928,-0.9126,-0.9165,-0.8643,-0.8501,-0.8646,-0.8887,-0.8716,-0.8511,-0.9266,-0.9331,-0.9075,-0.9145,-0.9905,-1.0741,-1.0314,0.0,0.0,0.0,0.0,-1.3537,-1.4839,-1.538,-1.5777,-1.6555,-1.673,-1.673,-1.673,-1.6732,-1.6555,-1.5397,-1.5545,-1.518,-1.2803,-1.3716,0.0,-1.5531,-1.7378,-1.9281,-2.0801,-2.1983,-2.2729,-2.2832,-2.3163,-2.3063,-2.2232,-2.1297,-2.0292,-1.9368,-1.8333,-1.7454,-1.6781,-1.5203,-1.3492,-1.1686,0.0,0.0,0.0,0.0,0.0,0.0,0.0,0.0,0.0,0.0,0.0,0.0,0.0,0.0,0.0,0.0,0.0,0.0,0.0,0.0,0.0,0.0,0.0,0.0,0.0,0.0,0.0,0.0,0.0,-0.6455,-0.6543,0.0,0.0,0.0,0.0,-0.8035,-0.7883,-0.8294,-0.9275,-0.9135,-0.9313,-0.9952,-0.9971,-0.999,-1.0038,-1.0038,-1.0038,-1.0038,-1.0038,-1.0038,-1.0038,-1.0038,-1.0038,-1.0038,-1.0038,-1.0038,-1.0038,-0.999,-0.9504,-0.877,-0.9175,-0.8867,-0.8341,-0.9073,-0.9391,-0.9362,-0.9843,-0.9971,-0.9971,-0.9962,-1.0546,-1.1316,-1.1339,-1.2102,0.0,0.0,-1.4506,-1.53,-1.6349,-1.6635,-1.6667,-1.6714,-1.673,-1.673,-1.673,-1.7006,-1.7158,-1.6718,-1.7299,-1.7484,-1.6437,0.0,-1.7888,-1.873,-1.938,-2.0398,-2.2205,-2.2832,-2.3329,-2.3764,-2.3826,-2.3655,-2.3095,-2.1881,-2.0706,-1.9763,-1.848,-1.7676,-1.7486,-1.5605,-1.409,-1.3058,-1.0522,0.0,0.0,0.0,0.0,0.0,0.0,0.0,0.0,0.0,0.0,0.0,0.0,0.0,0.0,0.0,0.0,0.0,0.0,0.0,0.0,0.0,0.0,0.0,0.0,0.0,0.0,0.0,0.0,-0.6638,-0.6769,0.0,-0.7892,-0.8278,-0.8484,-0.8486,-0.8904,-0.9352,-0.9737,-0.9666,-0.9724,-1.0028,-1.0038,-1.0038,-1.0038,-1.0038,-1.0038,-1.0038,-1.0038,-1.0038,-1.0038,-1.0038,-1.0038,-1.0038,-1.0038,-1.0038,-1.0038,-1.0038,-0.9781,-0.959,-0.9756,-0.9653,-0.9419,-0.964,-0.9756,-0.9795,-0.9933,-1.0038,-1.0202,-1.166,-1.2338,-1.2904,-1.4324,-1.5081,-1.5491,-1.5729,-1.5983,-1.6269,-1.6635,-1.673,-1.673,-1.673,-1.6921,-1.708,-1.708,-1.7572,-1.8022,-1.8262,-1.789,-1.739,-1.7009,-1.8193,-1.9372,-1.9848,-2.1093,-2.2211,-2.2853,-2.3598,-2.4115,-2.4281,-2.4571,-2.4451,-2.3604,-2.2334,-2.1121,-2.0142,-1.9052,-1.8351,-1.8039,-1.6461,-1.5007,-1.3675,-1.1755,-0.9743,0.0,0.0,0.0,0.0,0.0,0.0,0.0,0.0,0.0,0.0,0.0,0.0,0.0,0.0,0.0,0.0,0.0,0.0,0.0,0.0,0.0,0.0,0.0,0.0,0.0,-0.491,-0.543,-0.6339,-0.6878,-0.7396,-0.8013,-0.8811,-0.928,-0.9138,-0.9639,-1.0038,-1.0038,-1.0038,-1.0038,-1.0038,-1.0114,-1.0064,-1.0064,-1.013,-1.0159,-1.0159,-1.0159,-1.0159,-1.0159,-1.0159,-1.0159,-1.0159,-1.0093,-1.0102,-1.0149,-1.0095,-1.0086,-1.0055,-1.0067,-1.0038,-1.0038,-1.0038,-1.0038,-1.0038,-1.0038,-1.0038,-1.0289,-1.1906,-1.2674,-1.3353,-1.5213,-1.6057,-1.6402,-1.6648,-1.673,-1.673,-1.673,-1.6826,-1.6921,-1.6921,-1.7191,-1.7477,-1.7604,-1.7985,-1.8523,-1.9451,-1.9054,-1.8674,-1.901,-2.0305,-2.135,-2.1357,-2.2791,-2.3764,-2.3453,-2.4343,-2.5047,-2.5213,-2.5357,-2.4885,-2.3602,-2.2593,-2.1353,-1.9894,-1.9225,-1.8749,-1.8478,-1.7056,-1.5627,-1.4322,-1.2342,-1.0195,-0.7834,0.0,0.0,0.0,0.0,0.0,0.0,0.0,0.0,0.0,0.0,0.0,0.0,0.0,0.0,0.0,0.0,0.0,0.0,0.0,0.0,0.0,0.0,0.0,-0.5201,-0.5206,-0.5274,-0.5494,-0.6861,-0.7819,-0.7982,-0.9172,-0.9951,-0.9951,-0.996,-1.0047,-1.0047,-1.0057,-1.0057,-1.0057,-1.0178,-1.0282,-1.0272,-1.0471,-1.0575,-1.0575,-1.0584,-1.0584,-1.0584,-1.0594,-1.0584,-1.0565,-1.0376,-1.0395,-1.0537,-1.014,-1.0093,-1.0263,-1.0036,-1.0038,-1.0038,-1.0038,-1.0038,-1.0038,-1.0038,-1.0038,-1.0038,-1.0463,-1.1413,-1.254,-1.3633,-1.4824,-1.5854,-1.6515,-1.668,-1.6762,-1.6762,-1.7032,-1.7302,-1.7302,-1.7572,-1.7906,-1.824,-1.8335,-1.8807,-2.0133,-2.0802,-2.1404,-2.25,-2.3385,-2.3764,-2.3329,-2.4405,0.0,-2.4053,-2.5088,-2.6061,-2.6455,-2.6103,-2.5088,-2.3112,-2.253,-2.1305,-1.898,-1.8886,-1.8908,-1.8796,-1.7244,-1.5945,-1.5006,-1.2086,-0.9959,-0.8714,0.0,0.0,0.0,0.0,0.0,0.0,0.0,0.0,0.0,0.0,0.0,0.0,0.0,0.0,0.0,0.0,0.0,0.0,0.0,0.0,0.0,-0.4876,-0.5089,-0.5089,-0.5383,-0.5815,-0.6329,-0.7267,-0.7781,-0.7819,-0.9156,-0.9777,-0.9244,-0.9828,-1.0187,-1.0187,-1.0329,-1.0405,-1.0405,-1.0461,-1.0423,-1.0272,-1.0471,-1.0575,-1.0575,-1.0735,-1.0811,-1.0811,-1.0962,-1.0858,-1.0575,-1.0679,-1.0669,-1.0565,-1.0452,-1.0433,-1.0452,-1.0181,-1.0038,-1.0038,-1.0038,-1.0038,-1.0038,-1.0038,-1.0038,-1.0125,-1.1058,-1.1956,-1.2802,-1.3918,-1.5303,-1.6458,-1.6632,-1.7063,-1.7493,-1.7493,-1.7556,-1.7699,-1.7954,-1.8287,-1.8557,-1.8653,-1.9288,-1.9974,-2.0568,-2.176,-2.2908,-2.3477,-2.3731,-2.4183,-2.5021,-2.5461,-2.5606,-2.5357,-2.5937,-2.6061,-2.5192,-2.4985,-2.3974,-2.1692,-2.117,-2.0252,-1.8872,-1.8835,-1.8803,-1.8827,-1.7812,-1.6301,-1.3997,-1.1112,-0.9487,0.0,0.0,0.0,0.0,0.0,0.0,0.0,0.0,0.0,0.0,0.0,0.0,0.0,0.0,0.0,0.0,0.0,0.0,0.0,0.0,0.0,0.0,-0.5149,-0.5393,-0.5328,-0.5556,-0.5819,-0.6257,-0.6953,-0.7422,-0.7485,-0.8472,-0.9046,-0.8673,-0.9066,-0.9362,-0.9362,-0.938,-0.9397,-0.9397,-0.9552,-0.9587,-0.9483,-0.9733,-0.9904,-0.9904,-1.0493,-1.069,-1.0789,-1.1197,-1.1321,-1.1094,-1.1142,-1.1085,-1.0962,-1.0868,-1.083,-1.0792,0.0,0.0,0.0,0.0,-1.0216,-1.0216,-1.0216,-1.0216,-1.0385,-1.0998,-1.1615,-1.2271,-1.3242,-1.4421,-1.5548,-1.6183,-1.68,-1.743,-1.7692,-1.7985,-1.8271,-1.8478,-1.8891,-1.9304,-1.9447,-1.9955,-2.0603,-2.14,-2.2372,0.0,-2.4442,-2.4854,-2.5229,-2.5764,-2.6206,-2.631,-2.5937,-2.6455,-2.6558,-2.5771,-2.5689,-2.4775,-2.2612,-2.2198,0.0,0.0,0.0,-1.9084,-1.8383,-1.7326,0.0,0.0,0.0,-1.0031,-0.9836,-0.9221,0.0,0.0,-0.8393,-0.8655,0.0,0.0,0.0,0.0,0.0,0.0,0.0,0.0,0.0,0.0,0.0,0.0,0.0,0.0,0.0,0.0,-0.5432,-0.5735,-0.5752,-0.5752,-0.5752,-0.5752,-0.6364,-0.686,-0.6917,-0.7549,-0.8055,-0.8016,-0.8077,-0.8011,-0.8048,-0.7908,0.0,0.0,0.0,-0.8385,-0.8363,-0.8718,-0.8954,-0.8976,-0.9967,-1.0369,-1.0393,-1.1245,-1.1548,-1.1493,-1.1346,-1.1263,-1.1226,-1.1042,-1.1067,-1.1128,-1.0811,-1.0631,-1.0612,-1.0612,-1.0612,-1.0612,-1.0612,0.0,0.0,-1.0612,-1.1013,-1.1507,-1.2113,-1.3032,-1.4163,-1.5417,-1.6313,-1.6936,-1.7674,-1.8324,-1.8907,-1.8986,-1.9479,-2.0003,-2.0321,-2.0416,-2.0829,-2.2013,-2.24,-2.312,-2.5001,-2.5944,-2.6403,-2.6103,-2.6724,-2.6972,-2.6144,-2.6744,-2.72,-2.7055,-2.7034,0.0,-2.45,-2.4371,-2.3212,-2.0581,-2.0254,-1.9419,-1.7978,-1.6431,-1.5053,-1.39,-1.2277,-1.1158,-1.0641,-1.0622,-1.0705,-1.0648,-0.93,-0.913,0.0,0.0,0.0,0.0,0.0,0.0,0.0,0.0,0.0,0.0,0.0,0.0,0.0,0.0,0.0,-0.5199,-0.5539,-0.5768,-0.5855,-0.5871,-0.5871,-0.5871,-0.6503,-0.6734,-0.6315,-0.7336,-0.7822,-0.7309,-0.7836,-0.8199,-0.8365,-0.8445,-0.8557,-0.8726,-0.8765,-0.8661,-0.8431,-0.8758,-0.8937,-0.8976,-0.9338,0.0,-0.9732,-1.0077,-0.9984,-0.9727,-0.9844,-0.9813,-0.9672,-0.9641,-1.0046,-1.063,-1.0941,-1.0972,-1.083,-1.083,-1.083,-1.083,-1.083,-1.083,-1.083,-1.083,-1.1443,-1.2071,-1.2093,-1.3318,0.0,-1.5126,-1.6292,-1.7565,-1.8021,-1.8675,-1.9399,-1.9955,-2.0194,-2.0305,-2.0384,-2.0623,-2.075,-2.0829,-2.1712,-2.2619,-2.302,-2.4632,-2.6124,-2.6898,-2.7138,-2.72,-2.7013,-2.7158,-2.6848,-2.5751,-2.5627,-2.5023,-2.3487,-2.3378,-2.2625,-2.0853,-1.9745,-1.8985,-1.8621,-1.7338,-1.5989,-1.4778,-1.3414,-1.2225,-1.1075,-1.0915,-1.1019,-1.1482,-1.0998,-1.1662,0.0,0.0,0.0,0.0,0.0,0.0,0.0,0.0,0.0,0.0,0.0,0.0,0.0,0.0,-0.3635,-0.535,-0.57,-0.5844,-0.5898,-0.6007,-0.6007,-0.5996,-0.6363,-0.6415,-0.6261,-0.6786,-0.7083,-0.6828,-0.7068,-0.7408,-0.7515,-0.7498,-0.7492,-0.7633,-0.7569,-0.7498,-0.7421,-0.7704,-0.7885,-0.7956,-0.8594,-0.8953,-0.9036,-0.9545,-0.9704,-0.9555,-0.9645,-0.9585,-0.933,-0.933,-0.9648,-1.0063,-1.0393,-1.0808,-1.1359,-1.1359,-1.1359,-1.1359,-1.1359,-1.1359,-1.1359,-1.1359,-1.1692,-1.202,-1.1815,-1.2621,-1.38,-1.4493,-1.5253,-1.6265,-1.7469,-1.8356,-1.8973,-1.9606,-2.0225,-2.0655,-2.0655,-2.0798,-2.0861,-2.0686,-2.1204,-2.1827,-2.2434,-2.342,-2.451,-2.5567,-2.6167,-2.6476,-2.6476,-2.6976,-2.6993,-2.633,-2.6248,-2.5858,-2.4937,-2.3667,-2.2721,-2.1906,-2.0268,-1.9272,-1.9113,-1.7829,-1.6606,-1.5399,-1.3884,-1.264,-1.159,-1.1763,-1.1905,-1.2182,-1.3003,-1.3448,0.0,0.0,0.0,0.0,0.0,0.0,0.0,0.3837,0.2907,0.1426,0.0549,0.0,0.0,-0.1426,-0.3282,-0.5511,-0.5631,-0.5436,-0.536,-0.5756,-0.5968,-0.5605,-0.5862,-0.6181,-0.6323,-0.6317,-0.6388,-0.6605,-0.6507,-0.6502,-0.6649,-0.6453,-0.6361,-0.6404,-0.6388,-0.6372,-0.6372,-0.666,-0.6812,-0.6839,-0.7792,-0.8238,-0.8263,-0.9003,-0.9201,-0.9201,-0.9283,-0.9089,-0.8983,-0.9226,-0.9241,-0.9248,-0.9595,-1.0452,-1.1349,-1.1313,-1.1399,-1.1615,-1.1615,-1.1737,-1.1879,-1.1879,-1.1907,-1.1898,-1.1699,-1.1938,-1.2648,-1.3735,-1.409,-1.4712,-1.6587,-1.7548,-1.815,-1.8847,-1.9888,-2.0601,-2.0395,-2.0719,-2.0822,-2.0719,-2.0822,-2.1113,-2.203,-2.2232,-2.2619,-2.3899,-2.4786,-2.5392,-2.5392,-2.6167,-2.6668,-2.6668,-2.686,-2.6812,-2.6443,-2.4371,-2.2997,-2.2713,-2.0942,-1.9749,-1.9479,-1.8459,-1.7323,-1.6075,-1.4437,-1.3072,-1.2165,-1.2349,-1.2533,-1.292,-1.4543,-1.4871,0.5419,0.4574,0.4208,0.4571,0.4501,0.4626,0.0,0.5064,0.4794,0.5048,0.238,0.0,0.0,-0.0184,-0.1669,-0.5721,-0.4577,-0.3251,-0.3212,-0.489,-0.5452,-0.3681,-0.5088,-0.6246,-0.6556,-0.648,-0.6475,-0.6611,-0.6507,-0.654,-0.6768,-0.6654,-0.6681,-0.6899,-0.6801,-0.6741,-0.6741,-0.6785,-0.6855,-0.6964,-0.71,-0.7276,-0.7371,-0.7374,-0.7328,-0.7322,-0.7209,-0.7152,-0.7146,-0.8113,-0.8481,-0.8487,-0.9262,-0.9678,-0.9838,-0.9684,-1.0048,-1.0681,-1.0681,-1.1317,-1.2106,-1.2106,-1.2228,-1.2332,-1.2134,-1.2375,-1.289,-1.2995,-1.3762,-1.4671,-1.5766,-1.6574,-1.7373,-1.8296,-1.9124,-1.9569,-1.884,-1.9879,-2.0719,-1.9998,-2.0395,-2.0925,-2.1027,-2.113,-2.181,-2.38,-2.4196,-2.4295,-2.4295,-2.4393,-2.4492,-2.4492,-2.5294,-2.5877,-2.5818,-2.443,-2.313,-2.2177,-2.072,-1.9844,-1.9812,-1.97,-1.8753,-1.6966,-1.5778,-1.44,-1.263,-1.1775,-1.2068,-1.3414,-1.4543,-1.5455,0.6505,0.5598,0.5157,0.5468,0.5372,0.5382,0.5582,0.5582,0.5588,0.5823,0.3992,0.1866,0.0286,0.0,-0.0577,-0.2359,-0.3946,-0.4069,-0.1515,-0.4058,-0.5337,-0.3459,-0.4994,-0.6334,-0.6521,-0.6588,-0.661,-0.6728,-0.669,-0.6738,-0.7024,-0.7022,-0.7006,-0.7111,-0.6883,-0.6817,-0.6817,-0.6781,-0.6808,-0.6893,-0.6959,-0.6986,-0.7186,-0.7011,-0.6877,-0.6877,-0.6823,-0.6801,-0.6806,-0.7275,-0.7405,-0.7511,-0.783,-0.7886,-0.8033,-0.9097,-0.9671,-1.0004,-1.0107,-1.0401,-1.0791,-1.0791,-1.1167,-1.1638,-1.1442,-1.1806,-1.2548,-1.2866,-1.3005,-1.3393,-1.459,-1.527,-1.581,-1.6461,-1.7345,-1.7871,-1.745,-1.8185,-1.8812,-1.8499,-1.9346,-2.0189,-2.0189,-2.0617,-2.1216,-2.2114,-2.2802,-2.3203,-2.3203,-2.3701,-2.4097,-2.4097,-2.4492,-2.4786,-2.4786,-2.3655,-2.2775,-2.2295,-2.1162,-2.0384,-2.0178,-2.0079,-1.9315,-1.7807,-1.6895,-1.5531,-1.3635,-1.3402,-1.3303,-1.3435,-1.5172,-1.6265,0.7247,0.6478,0.6129,0.6216,0.6111,0.6023,0.594,0.5893,0.598,0.6078,0.5327,0.4113,0.2146,0.1272,0.0887,0.1012,-0.1625,-0.2555,0.052,-0.1567,-0.2945,-0.1494,-0.2677,-0.3653,-0.3665,-0.4943,-0.5836,-0.5941,-0.595,-0.5982,-0.6172,-0.6212,-0.617,-0.617,-0.5985,-0.5948,-0.5948,-0.5909,-0.5909,-0.5948,-0.5985,-0.6408,-0.7096,-0.6907,-0.6741,-0.6714,-0.6714,-0.6714,-0.6714,-0.6642,-0.6674,-0.6801,-0.6768,-0.6741,-0.684,-0.8255,-0.8962,-0.9197,-0.9349,-0.9545,-0.9794,-0.9794,-1.0241,-1.0664,-1.0526,-1.0923,-1.1567,-1.2316,-1.2103,-1.2149,-1.3588,-1.4051,-1.4363,-1.49,-1.5743,-1.6274,-1.6062,-1.6698,-1.7226,-1.7226,-1.808,-1.893,-1.9034,-1.9554,-1.9968,-1.9968,-2.0995,-2.1827,-2.203,-2.2719,-2.3302,-2.3601,-2.3701,-2.3701,-2.3701,-2.292,-2.2316,-2.2131,-2.1318,-2.0813,-2.0458,-2.0241,-1.9683,-1.8537,-1.771,-1.6553,-1.4963,-1.4572,-1.4283,-1.3948,-1.5354,-1.6443,0.7243,0.6993,0.7007,0.6624,0.6447,0.6449,0.6449,0.6267,0.6083,0.6194,0.6194,0.6138,0.6171,0.4512,0.3172,0.3491,0.3408,0.3327,0.3493,0.3395,0.331,0.3371,0.3376,0.3291,0.3344,-0.0659,-0.3403,-0.3684,-0.3689,-0.3689,-0.3692,-0.3689,-0.3689,-0.3689,-0.3687,-0.3687,-0.3687,-0.3689,-0.3689,-0.3687,-0.3737,-0.4804,-0.6779,-0.6763,-0.6697,-0.6385,-0.6385,-0.6385,-0.6396,-0.64,-0.6505,-0.6695,-0.6687,-0.6774,-0.6959,-0.6956,-0.7434,-0.8184,-0.8334,-0.9015,-0.9794,-0.9794,-0.9794,-0.9794,-0.9794,-0.9896,-1.0014,-1.0899,-1.1118,-1.1446,-1.298,-1.3315,-1.3532,-1.4062,-1.49,-1.5209,-1.4482,-1.5541,-1.6592,-1.6393,-1.6605,-1.6909,-1.7437,-1.7542,-1.7647,-1.7647,-1.8812,-2.0086,-2.0822,-2.1027,-2.142,-2.2434,-2.2518,-2.2518,-2.2518,-2.2535,-2.203,-2.1027,-2.0925,-2.0822,-2.0498,-2.0498,-2.002,-1.9179,-1.8238,-1.7374,-1.6687,-1.4558,-1.4061,-1.5077,-1.4749,-1.5632,0.8968,0.8991,0.8996,0.8472,0.8186,0.7868,0.7101,0.6715,0.6617,0.6623,0.6943,0.7279,0.744,0.6426,0.5598,0.5675,0.5916,0.5951,0.5948,0.5962,0.6004,0.5996,0.6005,0.6024,0.5944,0.3114,0.1221,0.1229,0.1229,0.1229,0.1229,0.1229,0.1229,0.1229,0.1229,0.1229,0.1229,0.1229,0.0995,0.054,0.2206,0.0728,-0.3572,-0.2669,-0.3038,-0.4236,-0.4236,-0.4268,-0.4314,-0.4286,-0.4346,-0.4563,-0.6167,-0.6747,-0.6669,-0.6711,-0.6937,-0.7271,-0.7494,-0.7778,-0.8036,-0.8036,-0.8478,-0.892,-0.892,-0.9361,-0.9904,-1.0131,-1.068,-1.1236,-1.1673,-1.2219,-1.2762,-1.298,-1.3186,-1.3295,-1.3088,-1.3727,-1.4374,-1.4385,-1.5114,-1.6168,-1.7015,-1.7121,-1.7015,-1.7015,-1.8513,-1.9983,-2.0822,-2.0925,-2.1027,-2.142,-2.142,-2.142,-2.142,-2.142,-2.1318,-2.0925,-2.0719,-2.0617,-2.0514,-2.0205,-1.9834,-1.9508,-1.8993,-1.8316,-1.7275,-1.6459,-1.553,-1.4556,-1.4915,-1.5657,1.0423,1.0494,1.0505,1.0138,0.9747,0.9221,0.8292,0.7766,0.7422,0.6982,0.7388,0.789,0.7938,0.7504,0.7247,0.7805,0.7761,0.7785,0.781,0.7828,0.7645,0.7282,0.7182,0.7182,0.7182,0.5819,0.4923,0.4927,0.4931,0.4931,0.4931,0.4931,0.4931,0.4931,0.4931,0.4931,0.4931,0.4931,0.4195,0.3005,0.5435,0.464,0.103,0.1114,0.0402,-0.0905,-0.0905,-0.0912,-0.0921,-0.0814,-0.1029,-0.1575,-0.3453,-0.4545,-0.5054,-0.5439,-0.5595,-0.5854,-0.6805,-0.7165,-0.7165,-0.716,-0.7598,-0.8042,-0.8042,-0.8478,-0.892,-0.9251,-0.9691,-1.0249,-1.057,-1.1008,-1.1555,-1.1891,-1.1891,-1.2001,-1.2327,-1.2654,-1.2989,-1.3207,-1.3835,-1.4674,-1.5541,-1.5648,-1.5636,-1.6168,-1.7331,-1.8603,-1.9968,-2.0292,-2.0617,-2.0925,-2.0925,-2.0925,-2.0925,-2.0925,-2.0925,-2.0925,-2.0617,-2.0411,-2.0411,-1.9894,-1.9465,-1.8945,-1.8736,-1.8318,-1.7582,-1.665,-1.5915,-1.5435,-1.4885,-1.5219,1.1696,1.1636,1.1699,1.1678,1.134,1.0762,0.9936,0.9237,0.8477,0.7356,0.7704,0.8122,0.793,0.7897,0.8272,0.9509,0.9122,0.8649,0.8789,0.8809,0.8367,0.7376,0.7265,0.7265,0.7265,0.7265,0.7276,0.7192,0.7192,0.7192,0.7192,0.7192,0.7192,0.7192,0.7192,0.7192,0.7192,0.7182,0.6001,0.382,0.5799,0.6658,0.6344,0.4282,0.3332,0.3335,0.3335,0.3335,0.3445,0.3705,0.3107,0.2074,0.1055,-0.0536,-0.2286,-0.2726,-0.2978,-0.358,-0.594,-0.6959,-0.7182,-0.7165,-0.716,-0.7154,-0.7154,-0.7154,-0.7376,-0.8152,-0.8484,-0.8706,-0.9471,-0.9794,-1.0021,-1.0798,-1.1017,-1.1236,-1.211,-1.2327,-1.2545,-1.3098,-1.2772,-1.2654,-1.3207,-1.3315,-1.3846,-1.5102,-1.5316,-1.6156,-1.8366,-1.9242,-1.9879,-2.0601,-2.0704,-2.0704,-2.0822,-2.0822,-2.0822,-2.0822,-2.0514,-2.0308,-1.9968,-1.9672,-1.8945,-1.7582,-1.7582,-1.7582,-1.7582,-1.5339,-1.5446,-1.7477,-1.4708,-1.4482,1.2944,1.3473,1.3688,1.2918,1.2767,1.2526,1.1299,1.023,0.9375,0.9226,0.9129,0.8958,0.8974,0.8914,0.8856,0.8837,0.817,0.7558,0.7593,0.7598,0.7598,0.7493,0.7493,0.7604,0.782,0.782,0.7826,0.7832,0.7388,0.7165,0.7165,0.7165,0.7165,0.7165,0.7165,0.7165,0.7165,0.6997,0.6758,0.6328,0.6606,0.6763,0.6797,0.6142,0.5884,0.5889,0.5889,0.5932,0.5896,0.5951,0.591,0.5823,0.5335,0.3832,0.1998,0.1887,0.1782,0.1452,-0.1005,-0.4139,-0.7192,-0.7187,-0.7187,-0.7182,-0.7176,-0.7176,-0.7282,-0.7493,-0.8042,-0.8595,-0.8816,-0.9361,-0.9904,-1.0131,-1.0131,-1.0241,-1.0453,-1.1008,-1.1455,-1.1673,-1.2762,-1.3521,-1.2762,-1.3727,-1.4266,-1.3295,-1.3943,-1.5221,-1.7015,-1.7331,-1.7542,-1.7752,-1.7752,-1.8067,-1.8916,-1.902,-1.902,-1.902,-1.9138,-1.8826,-1.7871,-1.7569,-1.7463,-1.7582,-1.6723,-1.6723,-1.7582,-1.6193,-1.5767,-1.6311,-1.5125,-1.5232,1.4393,1.4937,1.5306,1.4811,1.4772,1.4448,1.3292,1.221,1.1183,1.0362,1.0464,1.0609,1.0126,0.9757,0.9581,0.9664,0.8734,0.8036,0.8146,0.8582,0.8803,0.8595,0.9023,0.9354,0.9567,0.9567,0.9567,0.9567,0.8257,0.7598,0.7598,0.7487,0.7382,0.7382,0.7265,0.7154,0.7154,0.7138,0.7138,0.7149,0.6904,0.6861,0.6986,0.676,0.6812,0.6817,0.6817,0.6749,0.6808,0.6904,0.6948,0.7029,0.6958,0.6198,0.5099,0.5142,0.5154,0.4931,0.358,0.067,-0.2796,-0.4931,-0.5609,-0.5605,-0.5605,-0.6391,-0.7187,-0.7171,-0.7499,-0.7943,-0.7931,-0.8257,-0.8809,-0.914,-0.9251,-0.9361,-0.9691,-1.0131,-1.057,-1.057,-1.1437,-1.2091,-1.1337,-1.2091,-1.2516,-1.1891,-1.2436,-1.3254,-1.454,-1.5565,-1.6274,-1.6698,-1.6909,-1.7331,-1.7962,-1.829,-1.8408,-1.8408,-1.8408,-1.8199,-1.7555,-1.7252,-1.6935,-1.6511,-1.5861,-1.5861,-1.6511,-1.5007,-1.5114,-1.663,-1.5018,-1.4911,1.5846,1.6334,1.6647,1.6864,1.6796,1.6424,1.5303,1.4469,1.3223,1.1343,1.1801,1.2298,1.1303,1.0614,1.0407,1.1069,1.0103,0.9413,0.9677,1.0562,1.0891,1.0233,1.0983,1.1629,1.1629,1.1629,1.1629,1.1629,0.9786,0.8589,0.8478,0.8263,0.8152,0.8152,0.7925,0.7814,0.7814,0.7796,0.7686,0.7703,0.7471,0.7317,0.7437,0.7006,0.6956,0.7063,0.6956,0.685,0.6855,0.6964,0.6942,0.6872,0.7095,0.7111,0.692,0.7149,0.7192,0.7192,0.7192,0.5833,0.3354,-0.1229,-0.2908,-0.3131,-0.3131,-0.4592,-0.6289,-0.6619,-0.6953,-0.7182,-0.7165,-0.716,-0.7376,-0.8152,-0.8374,-0.8484,-0.9251,-0.9574,-0.9684,-0.9801,-0.9794,-0.9794,-0.9794,-0.9794,-1.0021,-1.0798,-1.0907,-1.1176,-1.188,-1.3677,-1.5246,-1.607,-1.6622,-1.695,-1.7174,-1.7752,-1.8108,-1.8108,-1.7884,-1.7779,-1.7569,-1.7358,-1.6511,-1.5018,-1.4793,-1.4685,-1.49,-1.3186,-1.4051,-1.7054,-1.4493,-1.418,1.6987,1.7544,1.7934,1.762,1.7923,1.8067,1.6989,1.547,1.4177,1.3709,1.2922,1.2195,1.2025,1.2313,1.2337,1.1782,1.1638,1.1458,1.115,1.1302,1.1529,1.1647,1.1764,1.1973,1.2191,1.2191,1.2191,1.2191,1.1864,1.1428,1.0866,1.0874,1.0866,1.0866,1.0757,1.0757,1.0757,1.0617,1.0517,1.0445,0.9305,0.9298,0.9968,0.7974,0.7639,0.8517,0.7529,0.7095,0.7095,0.7116,0.7111,0.71,0.7143,0.7143,0.7133,0.7154,0.716,0.7165,0.7182,0.6959,0.6163,0.3243,0.1006,-0.0671,-0.067,-0.0894,-0.1678,-0.3692,-0.5605,-0.7192,-0.7182,-0.7176,-0.7282,-0.7382,-0.7376,-0.7487,-0.7598,-0.8263,-0.892,-0.9684,-0.9794,-0.9794,-0.9794,-0.9794,-0.9794,-1.0021,-1.0021,-1.0343,-1.1193,-1.2051,-1.2856,-1.3288,-1.354,-1.4384,-1.5744,-1.6175,-1.6311,-1.6311,-1.6736,-1.6511,-1.5565,-1.503,-1.4815,-1.503,-1.363,-1.3295,-1.4385,-1.298,-1.3197,-1.4815,-1.3748,-1.3964,1.8041,1.8517,1.8854,1.859,1.8804,1.8728,1.7447,1.6344,1.5184,1.4052,1.3609,1.3345,1.3009,1.2845,1.2754,1.2481,1.2047,1.1792,1.2002,1.2879,1.3675,1.3901,1.4973,1.5813,1.5931,1.5931,1.5931,1.5931,1.5411,1.4234,1.2073,1.1855,1.1638,1.152,1.152,1.152,1.152,1.1432,1.1324,1.1311,1.0675,1.0683,1.1093,0.9998,0.9779,1.0218,0.9669,0.9449,0.9449,0.9449,0.9347,0.9244,0.9244,0.8803,0.8036,0.8036,0.7709,0.7154,0.7165,0.7171,0.7054,0.5815,0.47,0.3471,0.2235,0.19,0.1342,-0.1005,-0.2571,-0.3692,-0.5039,-0.6279,-0.7187,-0.7176,-0.7171,-0.7165,-0.716,-0.7487,-0.7931,-0.8367,-0.8478,-0.8478,-0.8478,-0.8478,-0.8589,-0.903,-0.914,-0.9442,-1.0124,-1.0584,-1.1176,-1.2356,-1.3189,-1.3784,-1.4316,-1.5281,-1.5779,-1.5458,-1.5672,-1.5565,-1.5041,-1.4493,-1.4169,-1.4072,-1.3315,-1.3207,-1.3748,-1.2871,-1.298,-1.4169,-1.3532,-1.3748,1.9163,1.9439,1.9698,1.9617,1.9665,1.9325,1.7888,1.7122,1.6231,1.4307,1.4346,1.4564,1.3958,1.3525,1.3338,1.3601,1.3069,1.2856,1.3612,1.5104,1.6175,1.6449,1.8157,1.9228,1.9228,1.9228,1.9124,1.8916,1.7884,1.6074,1.3285,1.3166,1.3048,1.2812,1.2812,1.2812,1.2812,1.2606,1.2389,1.2398,1.2064,1.2172,1.2596,1.1846,1.1738,1.2163,1.1738,1.152,1.152,1.152,1.142,1.121,1.121,1.0445,0.9464,0.9464,0.8913,0.8029,0.7814,0.7703,0.7593,0.7487,0.7282,0.6852,0.4927,0.4365,0.403,0.2124,0.0782,-0.0447,-0.2347,-0.4592,-0.6405,-0.64,-0.6847,-0.7182,-0.7165,-0.716,-0.716,-0.7154,-0.7154,-0.7154,-0.7154,-0.7154,-0.7487,-0.8152,-0.8263,-0.8446,-0.9197,-0.9291,-0.9985,-1.1655,-1.293,-1.3557,-1.3126,-1.4567,-1.5351,-1.4815,-1.4815,-1.4815,-1.4815,-1.4277,-1.3738,-1.3315,-1.3207,-1.3098,-1.3098,-1.2654,-1.2871,-1.3846,-1.3315,-1.3413,2.0201,2.0491,2.0695,2.0337,2.0508,2.0377,1.8906,1.7986,1.7222,1.6094,1.5605,1.5174,1.4791,1.5136,1.5487,1.5528,1.6012,1.6714,1.7456,1.8053,1.8482,1.8873,1.9124,1.9228,1.9228,1.9228,1.8812,1.7793,1.6736,1.5885,1.5565,1.6511,1.7041,1.7041,1.7041,1.7041,1.7041,1.598,1.5351,1.5148,1.404,1.4449,1.6156,1.292,1.2596,1.4522,1.238,1.152,1.152,1.152,1.152,1.1411,1.1411,1.1411,1.1302,1.1302,1.1193,1.0975,0.9896,0.9354,0.9016,0.8146,0.7616,0.7182,0.6953,0.6847,0.6852,0.6629,0.336,-0.0,-0.0223,-0.2125,-0.3924,-0.3918,-0.5609,-0.7192,-0.7182,-0.7182,-0.7176,-0.716,-0.7154,-0.7154,-0.7154,-0.7154,-0.7265,-0.7265,-0.7265,-0.7593,-0.8465,-0.8575,-0.9016,-0.9904,-1.1181,-1.2143,-1.2568,-1.3719,-1.4385,-1.4277,-1.4277,-1.4277,-1.4277,-1.3748,-1.3315,-1.3315,-1.2772,-1.2436,-1.2436,-1.2436,-1.2436,-1.2545,-1.2545,-1.2772,2.0382,2.0759,2.121,2.105,2.1392,2.1259,1.9169,1.8471,1.771,1.5782,1.5209,1.5179,1.5575,1.5643,1.6004,1.7358,1.7361,1.7532,1.8314,1.9423,2.0119,1.9697,2.0785,2.1445,2.1269,2.1302,2.0775,1.9642,1.9124,1.8603,1.7871,1.7674,1.7582,1.7582,1.8199,1.8617,1.8617,1.808,1.7463,1.6749,1.6299,1.6074,1.6193,1.4781,1.4674,1.5423,1.4567,1.4137,1.4137,1.4137,1.404,1.3932,1.3932,1.3393,1.2625,1.2625,1.2073,1.1411,1.0983,1.0765,1.0429,0.9464,0.8927,0.8602,0.7721,0.7282,0.7176,0.7187,0.5828,0.4027,0.2571,0.0335,-0.1454,-0.1453,-0.2125,-0.3245,-0.4704,-0.6168,-0.7187,-0.7182,-0.7182,-0.7182,-0.7182,-0.7176,-0.7171,-0.7171,-0.716,-0.7376,-0.7709,-0.7709,-0.782,-0.8146,-0.9953,-1.1,-1.0891,-1.1928,-1.2408,-1.2091,-1.2091,-1.2309,-1.2852,-1.1764,-1.1664,-1.2762,-1.2001,-1.1891,-1.2436,-1.2436,-1.2436,-1.2436,-1.2436,-1.2545,2.1051,2.1266,2.1695,2.1695,2.2039,2.1755,1.9635,1.9115,1.8478,1.6277,1.5838,1.5901,1.6211,1.6127,1.6459,1.7877,1.7898,1.8071,1.927,2.0481,2.1207,2.1112,2.2125,2.2814,2.2728,2.2366,2.1709,2.0995,2.057,2.0055,1.9228,1.8812,1.8408,1.8094,1.9124,1.9539,1.9228,1.8916,1.8304,1.7582,1.7265,1.6842,1.6418,1.6099,1.6099,1.6418,1.6099,1.5885,1.5885,1.5885,1.5791,1.5589,1.5589,1.4922,1.4051,1.4051,1.3491,1.2724,1.2398,1.2181,1.1955,1.0882,1.0453,1.0123,0.914,0.8263,0.7493,0.7393,0.7287,0.6837,0.5154,0.336,0.1902,0.1229,0.1118,0.0447,-0.2012,-0.3916,-0.527,-0.5949,-0.6172,-0.6172,-0.6172,-0.6168,-0.6391,-0.707,-0.7176,-0.7165,-0.7165,-0.7165,-0.716,-0.7154,-0.8692,-0.9574,-0.9471,-1.0445,-1.0874,-1.0453,-1.0453,-1.0672,-1.1328,-1.0343,-1.0351,-1.1555,-1.1017,-1.1008,-1.1664,-1.1664,-1.1664,-1.1664,-1.1664,-1.1664,2.2446,2.2403,2.2403,2.2403,2.2272,2.181,2.0585,2.0075,1.9569,1.8339,1.8036,1.7644,1.6658,1.6797,1.7007,1.6845,1.7467,1.8731,2.0806,2.1363,2.2077,2.3335,2.2905,2.2595,2.3009,2.1795,2.0877,2.0877,1.9849,1.9228,1.9228,2.0261,2.0364,1.9228,2.0261,2.0364,1.9228,1.8199,1.7582,1.7582,1.6418,1.6524,1.7582,1.6418,1.6524,1.7477,1.6418,1.5885,1.5885,1.5885,1.5885,1.5885,1.5885,1.5885,1.5885,1.5885,1.5885,1.5672,1.46,1.3932,1.348,1.2625,1.1964,1.152,1.1864,1.0123,0.8042,0.8042,0.761,0.7171,0.7192,0.7192,0.6512,0.4142,0.358,0.2908,0.0447,-0.0112,-0.0782,-0.3131,-0.3692,-0.3692,-0.3692,-0.3692,-0.448,-0.6852,-0.7198,-0.7192,-0.7182,-0.7182,-0.7176,-0.7154,-0.7265,-0.7598,-0.8484,-0.9361,-0.9794,-0.9794,-0.9794,-0.9794,-0.9794,-0.9794,-0.9794,-0.9794,-0.9794,-0.9794,-0.9794,-0.9794,-0.9794,-0.9794,-0.9794,-0.9794,2.2466,2.2888,2.349,2.3102,2.3287,2.331,2.2143,2.1487,2.0737,1.9034,1.8349,1.8058,1.8047,1.7899,1.8467,2.0467,2.0706,2.1215,2.2745,2.3824,2.4235,2.3477,2.3354,2.3394,2.3422,2.265,2.203,2.203,2.1709,2.1505,2.1505,2.1912,2.1505,2.0364,2.1505,2.1912,2.1505,2.12,2.0585,1.9849,1.9539,1.9124,1.8722,1.829,1.8394,1.8708,1.829,1.7779,1.7054,1.7054,1.663,1.5885,1.5885,1.5885,1.5885,1.5885,1.5885,1.5885,1.5458,1.5244,1.5018,1.3943,1.3501,1.3176,1.2526,1.0891,0.903,0.8263,0.7826,0.7715,0.7727,0.7504,0.7059,0.627,0.6051,0.5833,0.5043,0.358,0.2235,0.1452,-0.0,-0.1119,-0.1119,-0.1119,-0.1454,-0.2127,-0.3695,-0.4704,-0.4704,-0.6168,-0.7187,-0.7182,-0.7182,-0.7287,-0.7598,-0.7814,-0.8036,-0.8036,-0.8036,-0.8257,-0.892,-0.8367,-0.8589,-0.9794,-0.9251,-0.9251,-0.9794,-0.9794,-0.9794,-0.9794,-0.9794,-0.9794,2.2892,2.3737,2.4523,2.3967,2.3908,2.37,2.2544,2.1823,2.1009,1.9523,1.8952,1.878,1.8861,1.8759,1.9308,2.121,2.132,2.1732,2.347,2.4298,2.4493,2.3624,2.3749,2.3797,2.3502,2.3249,2.3038,2.3038,2.3038,2.2837,2.2653,2.2653,2.2232,2.1607,2.2232,2.2434,2.1928,2.1928,2.1607,2.0877,2.0467,1.9849,1.9228,1.9228,1.9228,1.9228,1.9228,1.8812,0.0,1.8199,1.7779,1.7147,1.6736,1.6524,1.6524,1.6099,1.5885,1.5885,1.5885,1.5885,1.5779,1.503,1.4815,1.46,1.3403,1.1655,0.9904,0.903,0.8484,0.8152,0.8042,0.7715,0.7499,0.7499,0.7504,0.7404,0.7293,0.6051,0.4923,0.4931,0.3695,0.2463,0.1566,0.1565,0.1677,0.1677,0.0223,-0.0893,-0.1115,-0.3129,-0.4704,-0.5377,-0.5605,-0.5828,-0.5815,-0.671,-0.716,-0.7154,-0.7154,-0.7487,-0.8042,-0.7487,-0.7703,-0.8809,-0.8257,-0.8257,-0.8809,-0.8809,-0.8809,-0.8809,-0.8809,-0.8809,0.0,2.4517,2.5226,2.4723,2.3933,2.3132,2.213,2.1329,0.0,1.9987,1.9836,1.9681,1.923,1.9456,1.9793,1.9959,2.016,2.1081,2.3384,2.3541,2.3568,2.3986,2.4203,2.4125,2.3505,2.3619,2.3836,2.3836,2.3836,2.3538,2.2837,2.2736,2.2736,2.2653,2.2653,2.2131,2.0995,2.0995,2.0995,2.0995,1.9952,1.9435,1.9435,1.9435,1.9435,1.9435,1.9435,1.9435,1.9332,1.9332,1.9228,1.9124,1.8094,1.7687,1.7582,1.6418,1.5992,1.5992,1.5885,1.5885,1.5885,1.5885,1.5885,1.5672,1.46,1.2743,1.0891,1.0453,0.9574,0.8706,0.8374,0.8263,0.8152,0.8152,0.8042,0.7826,0.7388,0.7276,0.7282,0.7304,0.7192,0.6512,0.4254,0.4362,0.4808,0.4808,0.4359,0.3795,0.3456,0.1673,-0.0112,-0.1785,-0.2905,-0.358,-0.3357,-0.5712,-0.7176,-0.716,-0.7154,-0.7154,-0.7154,-0.7154,-0.7154,-0.7154,-0.7154,-0.7154,-0.7154,-0.7154,-0.7154,-0.7154,-0.7154,-0.7154,2.2002,0.0,2.3904,2.3384,2.2805,2.2414,0.0,2.2056,2.1142,2.0564,2.0112,2.001,2.0777,2.0275,2.0618,2.3145,2.3315,2.3609,2.5338,2.5658,2.6094,2.6825,2.6167,2.5781,2.5917,2.5134,2.459,2.459,2.459,2.451,2.4412,2.4412,2.4115,2.3438,2.3438,2.3038,2.2232,2.2232,2.2232,2.2232,2.1928,2.181,2.181,2.181,2.181,2.181,2.181,2.1302,2.0467,2.0467,1.9952,1.9124,1.8916,1.8812,1.8708,1.7569,1.716,1.7054,1.6205,1.5885,1.5885,1.5885,1.5885,1.5885,1.5565,1.4482,1.3186,1.22,1.1655,1.1437,1.1437,1.0562,0.9684,0.9684,0.8809,0.7937,0.7826,0.7826,0.7826,0.7832,0.7727,0.7504,0.6937,0.7059,0.7299,0.775,0.775,0.741,0.6953,0.6386,0.5146,0.2455,-0.134,-0.2908,-0.1005,-0.4704,-0.7187,-0.7176,-0.7176,-0.7171,-0.7154,-0.7154,-0.7154,-0.7154,-0.7154,-0.7154,-0.7154,-0.7154,-0.7154,-0.7154,-0.7154,-0.7154,2.1117,2.26,2.3986,2.3448,2.291,2.2567,2.2705,2.1694,2.0639,2.0338,2.0012,2.0062,2.1049,2.1272,2.192,2.3815,2.4797,2.59,2.7556,2.7809,2.7936,2.8111,2.7114,2.6408,2.6447,2.584,2.5489,2.5489,2.5489,2.5294,2.4884,2.5178,2.4982,2.4313,2.4688,2.4196,2.2653,2.2653,2.2653,2.2653,2.2653,2.2653,2.2653,2.2653,2.2653,2.2653,2.2653,2.2232,2.1709,2.1709,2.1302,2.0672,2.0158,1.9952,1.9849,1.8722,1.8304,1.8304,1.7674,1.7041,1.663,1.6099,1.5885,1.5885,1.5885,1.5458,1.4696,1.3511,1.2852,1.2417,1.2417,1.1755,1.1109,1.0562,0.9794,0.903,0.8374,0.8263,0.8152,0.8042,0.7937,0.7937,0.7937,0.806,0.8295,0.8634,0.8752,0.8634,0.8295,0.819,0.751,0.5926,0.3349,0.1786,0.2009,-0.1341,-0.4027,-0.5489,-0.6619,-0.7182,-0.7176,-0.7176,-0.7171,-0.7165,-0.7165,-0.7165,-0.7154,-0.7154,-0.7154,-0.7154,-0.7154,-0.716,2.1059,2.2875,2.4444,2.3739,2.3261,2.2808,2.2254,2.0999,1.9965,1.9862,1.9965,2.0321,2.1364,2.2344,2.3271,2.4151,2.6005,2.7861,2.9558,2.9532,2.9167,2.8615,2.7549,2.6723,2.6423,2.6324,2.6284,2.6284,2.638,2.6071,2.5373,2.5858,2.5935,2.5373,2.6108,2.5528,2.322,2.322,2.322,2.322,2.322,2.312,2.2937,2.2937,2.2837,2.2653,2.2653,2.2653,2.2653,2.2653,2.2653,2.2535,2.1505,2.12,2.0995,1.9849,1.9435,1.9435,1.9228,1.8603,1.7687,1.6524,1.6205,1.6099,1.5992,1.5885,1.5672,1.4708,1.3727,1.296,1.296,1.2852,1.2417,1.1437,1.1109,1.0672,0.9361,0.914,0.903,0.8699,0.8706,0.8706,0.8706,0.8809,0.8809,0.8809,0.8706,0.8595,0.8595,0.8497,0.8399,0.8288,0.819,0.7293,0.5254,0.324,0.0893,-0.2011,-0.4931,-0.6517,-0.6629,-0.6629,-0.6624,-0.6619,-0.6959,-0.7176,-0.716,-0.6932,-0.671,-0.671,-0.6594,-0.6604,2.2645,2.3629,2.3408,2.1792,2.1771,2.201,2.1447,2.1069,2.0696,2.022,2.0497,2.159,2.415,2.3262,2.3603,2.7908,2.8897,2.9391,3.0323,2.953,2.8986,2.9452,2.8126,2.7297,2.7585,2.7277,2.7167,2.7167,2.7526,2.76,2.7505,2.7977,2.7955,2.72,2.7295,2.6894,2.5818,2.5818,2.5818,2.5818,2.5818,2.5237,2.4196,2.4393,2.3818,2.2653,2.2854,2.2854,2.2653,2.2653,2.2653,2.2552,2.2434,2.2333,2.2232,2.1081,2.0672,2.0467,1.9539,1.9124,1.8812,1.7674,1.7371,1.716,1.6205,1.5885,1.5885,1.5672,1.5458,1.5351,1.5351,1.4696,1.3835,1.3727,1.2852,1.2091,1.1873,1.1764,1.1764,1.1764,1.1755,1.1755,1.1755,1.1,1.0343,1.0343,0.9478,0.8823,0.8823,0.883,0.8719,0.8491,0.8621,0.8523,0.7727,0.7739,0.6619,0.4136,-0.067,-0.3586,-0.4142,-0.4142,-0.4142,-0.4142,-0.6172,-0.7192,-0.7187,-0.5489,-0.47,-0.4589,-0.3801,-0.3801,2.1274,2.2457,2.2949,2.2111,2.3347,2.469,2.4433,2.3839,2.3202,2.2634,2.2752,2.354,2.5561,2.5807,2.696,3.1111,3.1301,3.1304,3.2626,3.1809,3.111,3.1504,3.0398,2.9498,2.9453,2.9254,2.9212,2.9212,2.9073,2.9002,2.9002,2.9095,2.8817,2.8258,2.8724,2.8702,2.8121,2.8308,2.7725,2.6376,2.5818,2.5256,2.4688,2.4313,2.3737,2.3055,2.3155,2.3155,2.3038,2.3038,2.3038,2.3038,2.3038,2.3038,2.2937,2.2434,2.2215,2.2114,2.0979,2.0554,2.0349,1.9124,1.8708,1.8603,1.7871,1.766,1.766,1.766,1.6829,1.5885,1.5885,1.5458,1.4922,1.4385,1.3727,1.3176,1.2526,1.2417,1.2417,1.2417,1.2417,1.2417,1.2417,1.1982,1.1655,1.1655,1.1109,1.0789,1.0789,1.0241,0.9801,0.9691,0.9161,0.8843,0.8615,0.8177,0.7059,0.5035,0.1341,-0.0894,-0.1117,-0.1119,-0.1119,-0.1005,-0.2908,-0.3918,-0.3798,-0.3578,-0.3357,-0.3357,-0.2908,-0.2684,2.074,2.1876,2.3014,2.3715,2.5249,2.6622,2.6749,2.6193,2.5537,2.5133,2.5299,2.5892,2.7367,2.8987,3.0799,3.2916,3.2916,3.307,3.4384,3.3558,3.2828,3.3005,3.1974,3.1152,3.0843,3.0819,3.0819,3.0819,3.0418,3.026,3.026,3.017,3.0011,2.9532,3.0283,3.0464,2.9943,3.0306,2.9441,2.7253,2.6491,2.5838,2.5373,2.459,2.3935,2.3456,2.3456,2.3456,2.3456,2.3456,2.3456,2.3456,2.3456,2.3456,2.3456,2.3456,2.3456,2.3238,2.2417,2.2097,2.1895,2.0554,2.004,2.004,1.9524,1.9332,1.9332,1.9332,1.808,1.6617,1.6311,1.6311,1.5992,1.4922,1.46,1.4374,1.3393,1.3176,1.3176,1.3176,1.3176,1.3176,1.3176,1.296,1.2852,1.2852,1.2635,1.2417,1.2417,1.1655,1.1109,1.1109,1.0021,0.9154,0.894,0.8042,0.6927,0.5584,0.3798,0.2571,0.2011,0.1903,0.2014,0.223,0.1564,0.067,-0.0223,-0.0781,-0.123,-0.1678,-0.1678,-0.1231,2.3605,2.3709,2.3565,2.6343,2.6106,2.5271,2.5756,2.6223,2.6507,2.6512,2.7338,2.8637,3.0497,3.2712,3.3724,3.2227,3.3057,3.4069,3.4366,3.324,3.2438,3.2612,3.1601,3.0866,3.0819,3.0819,3.0819,3.0819,3.1199,3.1488,3.1488,3.1865,3.204,3.204,3.2127,3.1801,3.1205,3.1205,3.0758,2.992,2.9829,2.868,2.6683,2.6894,2.5664,2.3456,2.3655,2.3655,2.3456,2.3456,2.3456,2.3456,2.3456,2.3456,2.3456,2.3456,2.3456,2.3356,2.3356,2.3238,2.3138,2.1895,2.1574,2.1371,2.0231,1.9731,1.9524,1.9524,1.9332,1.8708,1.7793,1.7477,1.716,1.6099,1.5779,1.5779,1.5672,1.5672,1.5672,1.5672,1.5672,1.5672,1.5672,1.4815,1.4062,1.4062,1.3068,1.2417,1.2417,1.2309,1.2309,1.2309,1.1219,1.0131,0.9044,0.883,0.8712,0.8602,0.8418,0.7299,0.5146,0.5035,0.5035,0.5146,0.707,0.6051,0.1564,0.3019,0.291,0.1458,0.1458,0.157,2.1786,2.2769,2.3766,2.5712,2.7004,2.7858,2.8317,2.9187,2.9916,2.9862,3.0204,3.0811,3.2063,3.351,3.4285,3.3726,3.3989,3.4314,3.4397,3.3953,3.3615,3.37,3.3335,3.3054,3.3054,3.3054,3.3054,3.3054,3.2821,3.276,3.276,3.2476,3.2302,3.2302,3.1889,3.156,3.1294,3.0847,3.0487,3.0216,2.9555,2.8817,2.7955,2.7463,2.634,2.4824,2.4922,2.4529,2.3854,2.3854,2.3854,2.3854,2.3854,2.3854,2.3854,2.3854,2.3854,2.3854,2.3854,2.3854,2.3854,2.3238,2.302,2.292,2.2299,2.1996,2.1996,2.1996,2.1895,2.1285,1.9124,1.8603,1.8499,1.829,1.8171,1.8067,1.7555,1.745,1.7252,1.6311,1.6111,1.6111,1.5885,1.5565,1.5244,1.5244,1.4911,1.4589,1.4589,1.3943,1.3511,1.3511,1.2417,1.1546,1.1118,1.1118,1.0789,1.0021,0.8608,0.7393,0.6487,0.581,0.5699,0.6482,0.6604,0.6154,0.5135,0.425,0.3471,0.2912,0.213,0.1795,2.1451,2.2676,2.4271,2.5969,2.774,2.9394,3.0433,3.1373,3.2109,3.2305,3.2384,3.2614,3.3108,3.3728,3.4258,3.4366,3.4334,3.4397,3.4397,3.4397,3.4397,3.4397,3.4397,3.4397,3.4397,3.4397,3.4397,3.4397,3.3979,3.3725,3.3725,3.3275,3.2993,3.2993,3.2326,3.1825,3.1649,3.0937,3.0397,3.0216,2.9463,2.9002,2.8724,2.7955,2.7105,2.6167,2.6167,2.5781,2.5099,2.4824,2.4449,2.4152,2.4152,2.4152,2.4152,2.4152,2.4152,2.4152,2.4152,2.4152,2.4152,2.3954,2.3954,2.3854,2.3755,2.3555,2.3555,2.3555,2.3456,2.2937,2.1081,2.0261,1.9937,1.9731,1.9731,1.9627,1.9005,1.8902,1.8589,1.766,1.7463,1.7463,1.7239,1.6935,1.6723,1.6723,1.6311,1.6004,1.6004,1.5244,1.46,1.4277,1.3511,1.2852,1.2417,1.2417,1.2091,1.1328,0.9677,0.8472,0.7709,0.6927,0.6922,0.7598,0.6922,0.67,0.7043,0.5477,0.4474,0.4136,0.3357,0.2912,2.3407,2.3969,2.5213,2.7683,2.845,2.9156,3.1483,3.204,3.2313,3.3436,3.3727,3.3799,3.3645,3.3727,3.3721,3.3645,3.4031,3.4397,3.4397,3.4397,3.4397,3.4397,3.4397,3.4397,3.4397,3.4397,3.4397,3.4397,3.4397,3.4397,3.4397,3.4397,3.4397,3.4397,3.3725,3.3043,3.2302,3.1625,3.0937,3.0216,3.0216,2.9646,2.8724,2.8724,2.8143,2.7179,2.7179,2.7179,2.7084,2.6167,2.5118,2.4251,2.4251,2.4251,2.4251,2.4251,2.4251,2.4251,2.4152,2.4152,2.4152,2.4152,2.4152,2.4152,2.4152,2.4053,2.3755,2.3755,2.3655,2.3456,2.3456,2.2619,2.1473,2.0333,2.0025,2.0025,2.0025,2.0025,2.0025,2.0025,2.0025,2.0025,2.0025,1.9109,1.8394,1.8394,1.7147,1.6324,1.6324,1.6111,1.5458,1.4385,1.4169,1.3727,1.2526,1.2417,1.2417,1.2417,1.2417,1.1328,0.9051,0.894,0.894,0.894,0.894,0.8269,0.7154,0.7154,0.6478,0.5361,0.5361,0.5361,2.1839,2.3605,2.6226,2.8047,3.054,3.2844,3.398,3.3393,3.2996,3.4687,3.4633,3.4446,3.5128,3.466,3.4285,3.4366,3.4415,3.4397,3.4397,3.4397,3.4397,3.4397,3.4397,3.4397,3.4397,3.4397,3.4397,3.4397,3.4397,3.4397,3.4397,3.4397,3.4397,3.4397,3.3725,3.33,3.3043,3.2326,3.1889,3.1689,3.1181,3.0578,2.976,2.976,2.9187,2.8236,2.8236,2.7861,2.72,2.6914,2.6628,2.634,2.634,2.634,2.6244,2.5489,2.5216,2.5118,2.4449,2.4152,2.4152,2.4152,2.4152,2.4152,2.4152,2.4152,2.4053,2.4053,2.4053,2.3954,2.3954,2.3737,2.3338,2.282,2.2702,2.2501,2.1895,2.1183,2.0554,2.0333,1.9005,1.8199,1.8797,1.7975,1.7252,1.7252,1.6829,1.663,1.663,1.6324,1.6004,1.5684,1.5458,1.5244,1.4911,1.4911,1.4482,1.3727,1.3619,1.296,1.1437,1.1328,1.1008,1.0131,1.0131,0.9581,0.838,0.7487,0.6927,0.6594,0.5806,0.5361,2.4469,2.6376,2.8827,3.0749,3.2164,3.3407,3.4524,3.436,3.441,3.5833,3.5625,3.5355,3.613,3.559,3.5196,3.5535,3.5491,3.5251,3.495,3.495,3.4786,3.4481,3.4397,3.4397,3.4397,3.4397,3.4397,3.4397,3.4397,3.4397,3.4397,3.4397,3.4397,3.4397,3.3725,3.3386,3.3386,3.2673,3.2127,3.1889,3.1472,3.0937,3.0216,3.0216,2.9852,2.9279,2.9279,2.8724,2.7767,2.7767,2.7579,2.7179,2.7179,2.7179,2.7105,2.6532,2.6244,2.6244,2.5586,2.5392,2.5392,2.5392,2.5392,2.5294,2.4922,2.4824,2.4726,2.435,2.4152,2.4152,2.4152,2.4152,2.4152,2.3954,2.3954,2.3854,2.3338,2.2619,2.2097,2.1979,2.0861,2.0143,2.0656,1.942,1.8394,1.8394,1.7569,1.6842,1.6736,1.6524,1.6418,1.6418,1.6311,1.6205,1.6205,1.6099,1.5791,1.503,1.4922,1.4589,1.3825,1.2852,1.2091,1.1437,1.0891,1.0351,0.9588,0.8374,0.782,0.782,0.7149,0.6811,2.8944,3.0573,3.2065,3.4437,3.3513,3.2358,3.396,3.5187,3.6203,3.6824,3.6493,3.6352,3.6936,3.6521,3.6352,3.681,3.6894,3.666,3.5816,3.5655,3.5359,3.4481,3.4397,3.4397,3.4397,3.4397,3.4397,3.4397,3.4397,3.4397,3.4397,3.4397,3.4397,3.4397,3.381,3.3471,3.3471,3.2846,3.2152,3.156,3.1472,3.1116,3.0397,3.0306,3.0216,3.0216,3.0216,2.9669,2.8817,2.8817,2.833,2.7463,2.7463,2.7463,2.7463,2.7389,2.7389,2.7274,2.7179,2.7179,2.7179,2.7179,2.7179,2.6989,2.6071,2.5877,2.5684,2.4726,2.443,2.443,2.443,2.443,2.443,2.443,2.435,2.4152,2.4152,2.4152,2.4053,2.4152,2.4053,2.3954,2.4053,2.2316,2.0877,2.0877,1.893,1.7371,1.6935,1.6935,1.6829,1.6736,1.6736,1.6736,1.6736,1.6524,1.6324,1.6324,1.6111,1.5992,1.5992,1.3932,1.2635,1.2526,1.1437,1.0781,1.0672,0.9478,0.894,0.894,0.894,0.894,2.5329,2.8231,3.187,3.3443,3.4658,3.554,3.5887,3.6566,3.7063,3.7126,3.6931,3.6985,3.7767,3.7272,3.6754,3.6866,3.6894,3.666,3.5816,3.5655,3.5359,3.4481,3.4397,3.4397,3.4397,3.4397,3.4397,3.4397,3.4397,3.4397,3.4397,3.4397,3.4397,3.4397,3.423,3.4147,3.4147,3.4063,3.3869,3.37,3.3215,3.2587,3.1777,3.0734,3.0216,3.0216,3.0216,3.0125,2.9852,2.9852,2.9738,2.9555,2.9555,2.9555,2.9463,2.8724,2.833,2.8236,2.7484,2.7179,2.7179,2.7179,2.7179,2.7179,2.6914,2.6914,2.6819,2.6628,2.6532,2.6532,2.6532,2.6532,2.6532,2.6532,2.5392,2.4152,2.4152,2.3538,2.3138,2.4053,2.282,2.1912,2.2719,2.181,2.0877,2.0877,2.0483,1.9746,1.8812,1.8513,1.7989,1.7173,1.6842,1.6736,1.6736,1.663,1.663,1.663,1.6524,1.6524,1.6524,1.566,1.4696,1.3835,1.2635,1.1546,1.0672,0.9699,0.9161,0.894,0.9161,0.9272,2.7055,3.0107,3.33,3.4423,3.5413,3.6129,3.6129,3.6573,3.6939,3.6891,3.7521,3.8248,3.8723,3.8397,3.8144,3.819,3.8219,3.7965,3.7281,3.7127,3.6816,3.5869,3.5709,3.5709,3.5655,3.5575,3.5655,3.5709,3.5251,3.5114,3.544,3.4977,3.4812,3.5059,3.5059,3.5059,3.5059,3.5059,3.4868,3.4538,3.4204,3.3674,3.2882,3.0979,3.0216,3.0216,3.0216,3.0216,3.0216,3.0216,3.0216,3.0216,3.0216,3.0216,3.0125,2.9646,2.9371,2.9371,2.8795,2.8609,2.8609,2.8609,2.8609,2.8516,2.8049,2.7955,2.7861,2.7389,2.7179,2.7179,2.7179,2.7179,2.7179,2.7179,2.6436,2.5489,2.502,2.4412,2.4016,2.4152,2.3238,2.2619,2.3238,2.2417,2.1505,2.0995,2.0877,2.0672,2.0055,1.9849,1.9539,1.9034,1.8812,1.8499,1.7975,1.7779,1.7463,1.6948,1.6842,1.6736,1.6736,1.6418,1.5992,1.5446,1.4256,1.3383,1.2733,1.1755,1.1219,1.1,1.057,1.046,2.8914,3.1905,3.4407,3.5674,3.591,3.5752,3.5752,3.6255,3.679,3.679,3.8102,3.926,3.926,3.9421,3.9553,3.9696,3.9768,3.9523,3.8811,3.8738,3.8339,3.7357,3.7281,3.7204,3.7049,3.6972,3.7049,3.7281,3.6503,3.6215,3.661,3.5843,3.5467,3.571,3.571,3.571,3.571,3.571,3.544,3.4841,3.4759,3.4402,3.3707,3.1665,3.0734,3.0554,3.0554,3.0487,3.0306,3.0306,3.0306,3.0306,3.0306,3.0306,3.0306,3.0306,3.0306,3.0306,3.0306,3.0216,3.0216,3.0216,3.0216,3.0034,2.9279,2.9002,2.891,2.8049,2.7861,2.7861,2.7861,2.7861,2.7861,2.7861,2.7861,2.7463,2.6264,2.5974,2.5684,2.4627,2.435,2.4152,2.4152,2.3438,2.2518,2.1591,2.1489,2.1387,2.12,2.12,2.1097,2.0877,2.0877,2.0467,1.9539,1.9332,1.8826,1.7898,1.7569,1.7358,1.7147,1.7147,1.7041,1.6842,1.5648,1.5007,1.5007,1.3922,1.3372,1.3264,1.2299,1.1864,2.3815,2.7705,3.2425,3.5246,3.5973,3.5973,3.5973,3.6879,3.7819,3.7819,3.8318,3.8752,3.8752,3.9375,3.994,3.994,3.994,3.9696,3.8811,3.8738,3.8413,3.7587,3.7434,3.7434,3.7434,3.7434,3.7434,3.7434,3.7357,3.7049,3.661,3.6452,3.6163,3.571,3.571,3.571,3.571,3.571,3.5629,3.5548,3.5006,3.465,3.4485,3.3538,3.271,3.204,3.204,3.1625,3.0894,3.0894,3.0894,3.0894,3.0894,3.0894,3.0894,3.0894,3.0781,3.0578,3.0578,3.0397,3.0216,3.0216,3.0216,3.0216,3.0306,3.0397,3.0397,3.0487,3.051,3.051,3.051,3.051,3.051,3.051,3.051,2.9852,2.7463,2.701,2.6723,2.5684,2.4824,2.4152,2.4152,2.4053,2.3954,2.3737,2.3737,2.3438,2.2417,2.2316,2.1912,2.0995,2.0877,2.0893,2.0672,2.0672,2.057,2.0364,2.0364,1.9952,1.8916,1.8916,1.8394,1.7477,1.5861,1.5007,1.5007,1.4137,1.348,1.3264,1.3372,1.3372,2.6622,3.0145,3.3475,3.6628,3.7357,3.7292,3.7292,3.7618,3.7977,3.7977,3.8523,3.91,3.9425,3.9728,4.0081,4.0152,4.0152,4.0051,3.9778,3.9707,3.9565,3.9133,3.906,3.906,3.8914,3.8914,3.8841,3.859,3.7994,3.7539,3.7337,3.6822,3.6429,3.6429,3.6429,3.6429,3.6429,3.6429,3.6429,3.6429,3.6163,3.5976,3.5976,3.5628,3.4624,3.3054,3.3054,3.2796,3.2476,3.2476,3.2476,3.2389,3.1889,3.1737,3.1649,3.1139,3.0894,3.0781,3.0781,3.0781,3.0691,3.0691,3.0691,3.0691,3.0781,3.0781,3.0871,3.0984,3.0984,3.0984,3.0984,3.0984,3.0984,3.0984,3.0984,3.0691,2.9555,2.8402,2.7274,2.6167,2.5877,2.5664,2.5118,2.502,2.4824,2.4251,2.435,2.4134,2.3538,2.3538,2.3438,2.282,2.2719,2.2518,2.181,2.181,2.1505,2.0979,2.0877,2.0672,2.0158,2.0158,1.9952,1.9435,1.745,1.6511,1.6511,1.6074,1.5849,1.5743,1.5209,1.4888,2.8077,3.08,3.2741,3.6414,3.7525,3.7892,3.8284,3.8397,3.8354,3.8354,3.9039,3.9749,4.003,4.0121,4.0222,4.0331,4.0331,4.0401,4.047,4.0539,4.047,4.0331,4.0331,4.0261,4.0121,3.998,3.9768,3.9523,3.859,3.7994,3.7872,3.7211,3.685,3.6978,3.6978,3.6978,3.6978,3.6978,3.6978,3.6978,3.6978,3.6978,3.6978,3.6978,3.6056,3.4459,3.421,3.3707,3.3139,3.3395,3.331,3.3054,3.2389,3.2152,3.2064,3.1407,3.1139,3.105,3.105,3.1074,3.0984,3.0984,3.0984,3.0984,3.1074,3.105,3.105,3.1163,3.1163,3.1163,3.1163,3.1163,3.1163,3.1163,3.1163,3.1163,3.1074,2.9532,2.8028,2.7105,2.72,2.7084,2.6071,2.5877,2.5489,2.4548,2.4548,2.4548,2.4449,2.4548,2.4529,2.435,2.435,2.3935,2.312,2.2937,2.2619,2.181,2.1709,2.1607,2.1302,2.1302,2.12,2.0893,1.9228,1.8408,1.8408,1.8199,1.7989,1.7989,1.6817,1.6287,2.3752,2.5644,2.7486,3.2782,3.5211,3.6714,3.8142,3.8934,3.9395,3.9395,3.9948,4.0409,4.047,4.047,4.047,4.047,4.047,4.047,4.0539,4.0539,4.0539,4.047,4.047,4.047,4.047,4.0051,3.9696,3.9696,3.909,3.8472,3.7976,3.7825,3.7596,3.6978,3.6978,3.6978,3.6978,3.6978,3.6978,3.6978,3.6978,3.6978,3.6978,3.6978,3.69,3.6822,3.5976,3.4152,3.1825,3.2649,3.2562,3.1825,3.1737,3.1761,3.1761,3.1673,3.1496,3.1318,3.1318,3.1139,3.0984,3.0984,3.0984,3.1074,3.1229,3.1318,3.1318,3.1584,3.1673,3.1673,3.1673,3.1673,3.1673,3.1673,3.1673,3.1584,3.1074,3.0102,2.9304,2.9212,2.8473,2.7537,2.6512,2.634,2.6051,2.502,2.4824,2.4843,2.4843,2.4824,2.4843,2.4843,2.4627,2.443,2.443,2.4251,2.4053,2.4053,2.4053,2.3538,2.2434,2.2434,2.1912,2.0877,2.0775,2.0775,2.0775,1.9642,1.9124,1.9124,1.7989,1.7477,2.2965,2.4792,2.6795,3.118,3.4187,3.6369,3.7343,3.892,4.017,4.017,4.0355,4.0539,4.0539,4.0539,4.0539,4.0539,4.0539,4.0539,4.0539,4.0539,4.0539,4.0539,4.0539,4.0539,4.0539,4.0331,4.0051,3.9768,3.9162,3.8575,3.7947,3.7519,3.7211,3.6978,3.6978,3.6978,3.6978,3.6978,3.6978,3.6978,3.6978,3.6978,3.6978,3.6978,3.6665,3.6163,3.6401,3.5976,3.5169,3.5413,3.5413,3.5061,3.4511,3.3901,3.331,3.2735,3.2152,3.1584,3.1584,3.1496,3.1407,3.1407,3.1407,3.1496,3.1496,3.1584,3.1584,3.1673,3.1673,3.1673,3.1673,3.1673,3.1673,3.1673,3.1673,3.1673,3.1496,3.1026,3.0464,2.9806,2.9806,2.9532,2.8473,2.8287,2.7725,2.6147,2.5974,2.5781,2.502,2.5039,2.5137,2.4941,2.4824,2.4726,2.4726,2.4745,2.4646,2.4646,2.4646,2.443,2.4035,2.4035,2.3818,2.352,2.352,2.2601,2.0877,2.0467,2.0261,2.0261,1.9124,1.8617,2.1635,2.3391,2.5625,2.9932,3.2347,3.4374,3.6924,3.8278,3.9226,3.9985,4.0355,4.0539,4.0539,4.0539,4.0539,4.0539,4.0909,4.1063,4.0601,4.0724,4.0786,4.057,4.0539,4.0539,4.0539,4.0331,4.0091,3.9768,3.9162,3.8575,3.7947,3.7519,3.7211,3.6978,3.6978,3.6978,3.6978,3.6978,3.6978,3.6978,3.6978,3.6978,3.6978,3.6978,3.6665,3.6163,3.6744,3.6665,3.6136,3.6401,3.6401,3.6056,3.5494,3.4815,3.421,3.3649,3.3079,3.2562,3.2562,3.2562,3.25,3.2239,3.2176,3.2089,3.1737,3.1673,3.1673,3.1673,3.1673,3.1673,3.1673,3.1673,3.1673,3.1673,3.1673,3.1673,3.1673,3.156,3.1205,3.0554,3.0847,3.0847,2.9875,2.9692,2.912,2.7463,2.7274,2.7105,2.6244,2.634,2.636,2.6147,2.5781,2.5509,2.5509,2.5118,2.4941,2.4941,2.4941,2.4941,2.4941,2.4941,2.4941,2.4941,2.4941,2.4016,2.2198,2.1489,2.1081,2.0877,1.9435,1.8722,0.0,0.0,0.0,2.8669,2.9461,3.0563,3.659,3.6896,3.6471,3.8882,3.9893,4.0416,4.0509,4.057,4.0601,4.0601,4.1709,4.2109,4.0724,4.1155,4.137,4.0632,4.0539,4.0539,4.0539,4.0051,3.9696,3.9696,3.9162,3.8546,3.7947,3.7901,3.7596,3.7007,3.7035,3.7035,3.7035,3.7035,3.7035,3.7035,3.7035,3.7007,3.7007,3.7007,3.6978,3.6978,3.6978,3.5976,3.4459,3.5332,3.5224,3.4376,3.4376,3.4376,3.4293,3.4293,3.4293,3.4293,3.4293,3.4293,3.4126,3.331,3.2993,3.2907,3.2001,3.1737,3.1737,3.1737,3.1737,3.1737,3.1761,3.1761,3.1673,3.1673,3.1673,3.1673,3.1673,3.1673,3.1673,3.1673,3.1673,3.1383,3.0441,3.026,2.9897,2.8866,2.8773,2.8773,2.868,2.868,2.868,2.868,2.7579,2.6819,2.6819,2.5703,2.4941,2.4941,2.4941,2.4941,2.4941,2.4941,2.4941,2.4941,2.4941,2.4941,2.4941,2.2802,2.1489,2.0979,1.9049,1.8003,1.8347,0.0,0.0,0.0,0.0,0.0,3.0129,3.1277,3.2488,3.5599,3.66,3.7615,4.0078,4.134,4.2048,4.2048,4.1955,4.1555,4.0662,4.1555,4.1894,4.0662,4.097,4.1093,4.057,4.0401,4.0261,4.0261,3.9737,3.9162,3.8546,3.8179,3.7811,3.7653,3.8102,3.8355,3.8355,3.8355,3.8355,3.8355,3.7878,3.7653,3.7625,3.7175,3.6978,3.6978,3.6978,3.6744,3.6243,3.6559,3.648,3.6215,3.6215,3.5896,3.5332,3.5332,3.4897,3.421,3.3564,3.3817,3.4126,3.331,3.3395,3.3901,3.3649,3.3564,3.3564,3.3564,3.3564,3.3395,3.2821,3.2152,3.1673,3.1673,3.1673,3.1673,3.1673,3.1673,3.1673,3.1673,3.1673,3.156,3.1294,3.1294,3.0913,2.9988,2.9806,2.951,2.8773,2.868,2.868,2.868,2.8402,2.784,2.72,2.6819,2.6264,2.5528,2.543,2.543,2.543,2.543,2.543,2.543,2.543,2.5333,2.5235,2.443,2.3917,2.3719,2.2484,2.0947,1.9311,2.0084,2.1275,2.2863,0.0,0.0,2.8715,2.9836,3.1294,3.5571,3.7033,3.82,4.017,4.1186,4.174,4.174,4.1648,4.1555,4.1432,4.2109,4.2202,4.1093,4.134,4.1432,4.1001,4.097,4.097,4.097,4.0689,4.0262,3.9652,3.9266,3.8989,3.8672,3.9041,3.9159,3.8861,3.8861,3.8861,3.8861,3.8468,3.8299,3.8299,3.7934,3.7765,3.7765,3.7765,3.7625,3.7372,3.7372,3.7231,3.6978,3.6978,3.6665,3.6243,3.6243,3.5896,3.5305,3.4815,3.4979,3.5224,3.3985,3.4152,3.4733,3.3985,3.3733,3.3733,3.3733,3.3479,3.3139,3.3079,3.2326,3.1673,3.1673,3.1673,3.1673,3.1673,3.1673,3.1673,3.1673,3.1673,3.1673,3.1673,3.1673,3.1472,3.0913,3.0824,3.0621,2.9988,2.9988,2.9988,2.9988,2.9235,2.8495,2.784,2.7105,2.6284,2.5742,2.5742,2.5742,2.5742,2.5742,2.5742,2.5742,2.5742,2.5645,2.543,2.4824,2.4313,2.3719,2.3103,2.2064,2.1472,2.2549,2.411,2.5179,2.4052,0.0,2.9447,3.0068,3.0943,3.6069,3.8116,3.9071,3.9442,3.9658,3.9683,3.9683,4.0547,4.1503,4.2263,4.2571,4.2448,4.1678,4.174,4.1771,4.1617,4.1586,4.1586,4.1586,4.1607,4.1393,4.0855,4.0859,4.0598,3.9967,3.9945,3.9762,3.9058,3.9058,3.9058,3.9058,3.9002,3.8974,3.8974,3.8889,3.8861,3.8861,3.8861,3.8552,3.8018,3.8018,3.7597,3.6978,3.6978,3.6978,3.6978,3.6978,3.6978,3.6978,3.69,3.69,3.6744,3.4979,3.5061,3.5575,3.3901,3.3395,3.3395,3.3395,3.2821,3.2326,3.3079,3.2587,3.1825,3.1825,3.1737,3.1673,3.1673,3.1761,3.1761,3.1761,3.1761,3.1673,3.1673,3.1673,3.1673,3.1673,3.1673,3.1673,3.1673,3.1673,3.1673,3.1673,3.0079,2.8958,2.8866,2.722,2.611,2.6014,2.6014,2.6014,2.6014,2.5917,2.582,2.582,2.5742,2.5742,2.5742,2.4707,2.3701,2.2484,2.2484,2.2282,2.2398,2.3007,2.4379,2.3509,2.344,0.0,2.4252,2.4041,2.4612,2.7778,2.8909,3.016,3.2819,3.4153,3.4778,3.4746,3.7084,3.9401,4.0732,4.2355,4.294,4.174,4.254,4.2756,4.1709,4.1586,4.1586,4.1586,4.1645,4.1624,4.1549,4.1543,4.1243,4.0631,4.1069,4.0996,4.035,4.035,4.035,4.0322,3.9845,3.9592,3.9592,3.9086,3.8861,3.8861,3.8861,3.8805,3.8664,3.8664,3.8018,3.6978,3.6978,3.6978,3.6978,3.6978,3.6978,3.69,3.6163,3.6401,3.6822,3.5736,3.6004,3.6665,3.6322,3.6243,3.6243,3.6243,3.5575,3.5006,3.5169,3.3985,3.2735,3.2735,3.2239,3.1673,3.1673,3.1849,3.1937,3.1937,3.1849,3.1673,3.1673,3.1673,3.1673,3.1673,3.1673,3.1673,3.1673,3.1673,3.1673,3.1673,3.1383,3.0824,2.9988,2.9532,2.8958,2.8121,2.8121,2.8121,2.8121,2.7389,2.6914,2.6914,2.6091,2.5742,2.5742,2.5528,2.5216,2.502,2.502,2.451,2.326,2.399,2.5601,2.3736,2.3529,0.0,0.0,2.4206,2.5078,2.869,2.9253,2.9855,3.2289,3.2624,3.2551,3.28,3.5443,3.714,3.638,4.024,4.2864,4.2178,4.2708,4.2864,4.2178,4.2115,4.2271,4.2615,4.3024,4.3221,4.3221,4.3092,4.2839,4.2237,4.2106,4.1702,4.1057,4.1057,4.1057,4.1057,4.0717,4.0576,4.0576,4.0264,4.0122,4.0122,4.0122,3.9952,3.9669,3.9558,3.894,3.8093,3.8014,3.7934,3.7934,3.7934,3.7709,3.7349,3.6952,3.6995,3.6978,3.6163,3.6401,3.7056,3.6638,3.648,3.648,3.6638,3.5976,3.5494,3.5896,3.4979,3.3985,3.3985,3.3649,3.3335,3.3335,3.342,3.3335,3.2932,3.276,3.2587,3.2113,3.2025,3.2025,3.1849,3.1849,3.1849,3.1761,3.1673,3.1673,3.1673,3.1294,3.0734,3.026,2.9692,2.9235,2.8773,2.868,2.868,2.868,2.8215,2.7934,2.7934,2.6914,2.6456,2.6456,2.5917,2.5742,2.5742,2.5742,2.543,2.5043,2.5906,2.7523,2.4902,2.4459,2.4824,0.0,0.0,0.0,3.0152,3.038,3.0271,3.1499,3.079,3.0093,3.0362,3.2926,3.4005,3.1399,3.6495,4.0578,4.0734,4.1933,4.2501,4.1806,4.1649,4.2126,4.339,4.3611,4.3959,4.4622,4.4588,4.4205,4.3585,4.285,4.2063,4.1396,4.1396,4.1396,4.1396,4.1396,4.1396,4.1396,4.1396,4.1396,4.1396,4.1396,4.111,4.0653,4.0487,4.0092,3.9609,3.9137,3.8861,3.8861,3.8861,3.8605,3.8154,3.8014,3.7805,3.7381,3.6587,3.6794,3.7211,3.6559,3.6322,3.6322,3.6452,3.6056,3.5628,3.6373,3.5896,3.5224,3.5224,3.5142,3.4979,3.4979,3.5061,3.4815,3.4152,3.4069,3.3674,3.255,3.24,3.2313,3.2138,3.2025,3.2025,3.1849,3.1849,3.1849,3.1849,3.1092,3.0621,3.0621,2.9875,2.9418,2.9326,2.9326,2.9326,2.9235,2.905,2.8958,2.8773,2.7934,2.7463,2.7463,2.6648,2.611,2.5742,2.5742,2.5742,2.9489,2.9489,3.042,2.6764,2.6868,2.7012,2.3595,0.0,2.3949,2.365,0.0,2.375,2.392,0.0,0.0,2.3627,2.6664,2.8682,2.7735,3.0797,3.3425,3.3999,3.9661,4.2248,3.9094,3.8243,3.922,4.2505,4.1049,4.1396,4.4527,4.4588,4.4205,4.3585,4.285,4.2063,4.1396,4.1396,4.1396,4.1396,4.1396,4.1396,4.1396,4.1396,4.1396,4.1396,4.1396,4.1367,4.1281,4.1281,4.1253,4.0998,3.9476,3.8861,3.8861,3.8861,3.8968,3.9017,3.8342,3.8274,3.8367,3.7642,3.7471,3.7548,3.7443,3.7443,3.7443,3.7443,3.7366,3.7289,3.7443,3.6794,3.6136,3.6136,3.5548,3.4979,3.4979,3.5142,3.5224,3.5142,3.5305,3.4733,3.2723,3.24,3.24,3.24,3.24,3.2313,3.2288,3.2313,3.2313,3.2313,3.2201,3.2113,3.2113,3.2025,3.1849,3.1649,3.1673,3.156,3.1383,3.0531,2.9692,2.8958,2.868,2.8495,2.8495,2.8402,2.7484,2.5742,2.5742,2.5742,2.9111,3.0137,3.1632,2.7218,2.7673,2.8219,2.4115,2.3199,2.3323,2.3824,0.0,0.0,0.0,0.0,0.0,0.0,2.5614,2.6891,2.4806,2.8828,3.2127,3.2414,3.5048,3.7118,3.7662,3.7854,3.945,4.2975,4.1276,4.1597,4.5122,4.4809,4.4358,4.4128,4.293,4.2092,4.1843,4.1843,4.1843,4.1843,4.1843,4.1843,4.1843,4.1843,4.1843,4.1843,4.1843,4.1843,4.1814,4.1647,4.1535,4.1478,4.0629,4.0347,4.0347,4.0347,4.0203,3.9943,3.9577,3.9424,3.9212,3.8953,3.8867,3.8867,3.8867,3.8867,3.8946,3.8995,3.8842,3.8553,3.8553,3.7959,3.7414,3.7414,3.7078,3.6844,3.6844,3.6922,3.6816,3.6346,3.6267,3.5869,3.4485,3.3869,3.3471,3.336,3.2871,3.255,3.24,3.24,3.24,3.24,3.24,3.24,3.24,3.24,3.2313,3.2225,3.2225,3.2201,3.2113,3.1737,3.1294,3.1003,3.0351,2.9966,2.9966,2.9418,2.8588,2.7579,2.7484,2.7105,3.0587,3.1572,3.2644,2.7667,2.781,2.8149,2.4223,2.3391,2.3693,2.435,2.411,0.0,0.0,0.0,2.3226,2.3308,0.0,2.5176,2.2765,2.6254,2.9146,2.934,3.0247,3.2158,3.5525,3.5461,3.708,4.1614,3.98,4.0388,4.4683,4.4476,4.4233,4.4233,4.2841,4.2175,4.2392,4.2257,4.2092,4.2092,4.2092,4.2092,4.2092,4.2092,4.2092,4.2092,4.2092,4.2092,4.2092,4.1897,4.1785,4.1814,4.1647,4.1564,4.1564,4.148,4.1194,4.0764,4.0621,4.0268,3.9881,3.9881,3.9881,3.9881,3.9881,3.9881,3.9881,4.001,3.977,3.945,3.945,3.9073,3.8725,3.8725,3.8725,3.8667,3.8522,3.8463,3.8254,3.7443,3.726,3.7078,3.6425,3.5413,3.4677,3.4485,3.3927,3.3445,3.3275,3.3275,3.3215,3.2982,3.2982,3.281,3.2661,3.2574,3.2574,3.2463,3.24,3.24,3.2463,3.24,3.24,3.2463,3.1737,3.127,3.127,3.0621,3.0147,2.9875,2.9143,2.8402,3.6387,3.5042,3.3869,2.8592,2.7316,2.6433,2.2883,2.386,2.5069,2.3594,2.5038,2.6149,2.4856,2.455,2.4218,2.3268,2.2955,0.0,0.0,2.1693,2.1924,2.2604,2.5745,2.8984,3.1898,2.9081,2.9988,3.6983,3.491,3.6098,4.2351,4.3189,4.3494,4.3568,4.2574,4.2474,4.3269,4.2474,4.2092,4.2092,4.2092,4.2092,4.2092,4.2092,4.2092,4.2092,4.2092,4.2092,4.2092,4.2092,4.2092,4.2092,4.2092,4.2092,4.2009,4.1564,4.1535,4.1587,4.1011,4.0509,4.0089,4.0089,4.0089,4.0089,4.0089,4.0089,4.0089,4.0089,4.0089,4.006,4.006,4.006,4.0031,4.0031,4.0031,3.9886,3.9305,3.916,3.8986,3.8318,3.8127,3.8127,3.8127,3.666,3.5548,3.5548,3.5521,3.5521,3.5548,3.5548,3.5224,3.4397,3.4314,3.3979,3.3154,3.3068,3.2982,3.2723,3.2463,3.2463,3.2723,3.2463,3.2463,3.2723,3.2463,3.24,3.24,3.2288,3.2313,3.2201,2.9988,2.8866,3.847,3.884,3.832,3.2429,3.1221,3.0101,2.4612,2.4135,2.4529,2.3365,2.4508,2.5447,2.4506,2.4339,2.407,2.3237,2.2889,2.2468,0.0,2.1464,2.1406,2.1665,2.4839,2.7429,2.8401,2.9534,3.219,3.695,3.6886,3.8553,4.3105,4.3895,4.4194,4.4194,4.3378,4.2981,4.3269,4.2474,4.2092,4.2092,4.2092,4.2092,4.2092,4.2092,4.2092,4.2092,4.2092,4.2092,4.2092,4.2092,4.2092,4.2092,4.2092,4.2092,4.2092,4.1926,4.1926,4.1893,4.1256,4.059,4.0089,4.0089,4.0408,4.0757,4.0757,4.1076,4.1424,4.1424,4.1105,4.0757,4.0757,4.0437,4.0089,4.0089,4.0089,4.0031,3.9828,3.9799,3.9741,3.9509,3.945,3.945,3.945,3.8953,3.8088,3.6642,3.5949,3.5628,3.5628,3.5628,3.5467,3.5224,3.5169,3.4841,3.4063,3.3411,3.3326,3.381,3.324,3.2896,3.2982,3.2896,3.2896,3.2982,3.2896,3.281,3.281,3.281,3.2723,3.255,3.1801,3.0979,4.1171,4.161,4.1064,3.566,3.4631,3.3326,2.7263,2.6576,2.6947,2.5878,2.594,2.6737,2.8357,2.6338,2.4614,2.5041,2.3687,2.2344,0.0,2.1402,2.1309,2.1309,2.3381,2.5292,2.6587,2.7397,3.0474,3.6853,3.6335,3.7842,4.2655,4.3754,4.4306,4.4275,4.364,4.3427,4.3741,4.2607,4.2257,4.2555,4.2257,4.2257,4.2555,4.2257,4.2092,4.2092,4.2092,4.2092,4.2092,4.2092,4.2092,4.2092,4.2092,4.2092,4.2092,4.2092,4.2092,4.2005,4.1337,4.0815,4.0408,4.0176,4.0379,4.0728,4.0728,4.1047,4.1395,4.1395,4.125,4.1105,4.1105,4.096,4.0815,4.0815,4.0815,4.0757,4.0495,4.0466,4.0379,4.0147,4.0089,4.0089,4.0089,4.0089,3.9642,3.8261,3.7569,3.7167,3.6865,3.6837,3.6674,3.6136,3.5789,3.5142,3.4063,3.3751,3.3641,3.3894,3.3725,3.3411,3.3068,3.3068,3.3068,3.3068,3.3068,3.3068,3.3068,3.3068,3.2982,3.281,3.281,3.2438]}]]